[[{"header":{"parameterUnit":"m.s-1","parameterCategory":1,"la1":31.0,"la2":29.5877,"lo1":-88.7671,"lo2":-86.6584,"dy":0.0162,"dx":0.0185,"nx":115,"ny":88,"refTime":"2023-07-01T12:00:00:Z","depth":0,"parameterNumber":2,"parameterNumberName":"U-component_of_WINDS"},"data":[0.0,0.0,0.0,0.0,0.0,0.0,0.0,0.0,0.0,0.0,0.0,0.0,0.0,0.0,0.0,0.0,0.0,0.0,0.0,0.0,0.0,0.0,0.0,0.0,0.0,0.0,0.0,0.0,0.0,0.0,0.0,0.0,0.0,0.0,0.0,0.0,0.0,0.0,0.0,0.0,0.0,0.0,0.0,0.0,0.0,0.0,0.0,0.0,0.0,0.0,0.0,0.0,0.0,0.0,0.0,0.0,0.0,0.0,0.0,0.0,0.0,0.0,0.0,0.0,0.0,0.0,0.0,0.0,0.0,0.0,0.0,0.0,0.0,0.0,0.0,0.0,0.0,0.0,0.0,0.0,0.0,0.0,0.0,0.0,0.0,0.0,0.0,0.0,0.0,0.0,0.0,0.0,0.0,0.0,0.0,0.0,0.0,0.0,0.0,0.0,0.0,0.0,0.0,0.0,0.0,0.0,0.0,0.0,0.0,0.0,0.0,0.0,0.0,0.0,0.0,0.0,0.0,0.0,0.0,0.0,0.0,0.0,0.0,0.0,0.0,0.0,0.0,0.0,0.0,0.0,0.0,0.0,0.0,0.0,0.0,0.0,0.0,0.0,0.0,0.0,0.0,0.0,0.0,0.0,0.0,0.0,0.0,0.0,0.0,0.0,0.0,0.0,0.0,0.0,0.0,0.0,0.0,0.0,0.0,0.0,0.0,0.0,0.0,0.0,0.0,0.0,0.0,0.0,0.0,0.0,0.0,0.0,0.0,0.0,0.0,0.0,0.0,0.0,0.0,0.0,0.0,0.0,0.0,0.0,0.0,0.0,0.0,0.0,0.0,0.0,0.0,0.0,0.0,0.0,0.0,0.0,0.0,0.0,0.0,0.0,0.0,0.0,0.0,0.0,0.0,0.0,0.0,0.0,0.0,0.0,0.0,0.0,0.0,0.0,0.0,0.0,0.0,0.0,0.0,0.0,0.0,0.0,0.0,0.0,0.0,0.0,0.0,0.0,0.0,0.0,0.0,0.0,0.0,0.0,0.0,0.0,0.0,0.0,0.0,0.0,0.0,0.0,0.0,0.0,0.0,0.0,0.0,0.0,0.0,0.0,0.0,0.0,0.0,0.0,0.0,0.0,0.0,0.0,0.0,0.0,0.0,0.0,0.0,0.0,0.0,0.0,0.0,0.0,0.0,0.0,0.0,0.0,0.0,0.0,0.0,0.0,0.0,0.0,0.0,0.0,0.0,0.0,0.0,0.0,0.0,0.0,0.0,0.0,0.0,0.0,0.0,0.0,0.0,0.0,0.0,0.0,0.0,0.0,0.0,0.0,0.0,0.0,0.0,0.0,0.0,0.0,0.0,0.0,0.0,0.0,0.0,0.0,0.0,0.0,0.0,0.0,0.0,0.0,0.0,0.0,0.0,0.0,0.0,0.0,0.0,0.0,0.0,0.0,0.0,0.0,0.0,0.0,0.0,0.0,0.0,0.0,0.0,0.0,0.0,0.0,0.0,0.0,0.0,0.0,0.0,0.0,0.0,0.0,0.0,0.0,0.0,0.0,0.0,0.0,0.0,0.0,0.0,0.0,0.0,0.0,0.0,0.0,0.0,0.0,0.0,0.0,0.0,0.0,0.0,0.0,0.0,0.0,0.0,0.0,0.0,0.0,0.0,0.0,0.0,0.0,0.0,0.0,0.0,0.0,0.0,0.0,0.0,0.0,0.0,0.0,0.0,0.0,0.0,0.0,0.0,0.0,0.0,0.0,0.0,0.0,0.0,0.0,0.0,0.0,0.0,0.0,0.0,0.0,0.0,0.0,0.0,0.0,0.0,0.0,0.0,0.0,0.0,0.0,0.0,0.0,0.0,0.0,0.0,0.0,0.0,0.0,0.0,0.0,0.0,0.0,0.0,0.0,0.0,0.0,0.0,0.0,0.0,0.0,0.0,0.0,0.0,0.0,0.0,0.0,0.0,0.0,0.0,0.0,0.0,0.0,0.0,0.0,0.0,0.0,0.0,0.0,0.0,0.0,0.0,0.0,0.0,0.0,0.0,0.0,0.0,0.0,0.0,0.0,0.0,0.0,0.0,0.0,0.0,0.0,0.0,0.0,0.0,0.0,0.0,0.0,0.0,0.0,0.0,0.0,0.0,0.0,0.0,0.0,0.0,0.0,0.0,0.0,0.0,0.0,0.0,0.0,0.0,0.0,0.0,0.0,0.0,0.0,0.0,0.0,0.0,0.0,0.0,0.0,0.0,0.0,0.0,0.0,0.0,0.0,0.0,0.0,0.0,0.0,0.0,0.0,0.0,0.0,0.0,0.0,0.0,0.0,0.0,0.0,0.0,0.0,0.0,0.0,0.0,0.0,0.0,0.0,0.0,0.0,0.0,0.0,0.0,0.0,0.0,0.0,0.0,0.0,0.0,0.0,0.0,0.0,0.0,0.0,0.0,0.0,0.0,0.0,0.0,0.0,0.0,0.0,0.0,0.0,0.0,0.0,0.0,0.0,0.0,0.0,0.0,0.0,0.0,0.0,0.0,0.0,0.0,0.0,0.0,0.0,0.0,0.0,0.0,0.0,0.0,0.0,0.0,0.0,0.0,0.0,0.0,0.0,0.0,0.0,0.0,0.0,0.0,0.0,0.0,0.0,0.0,0.0,0.0,0.0,0.0,0.0,0.0,0.0,0.0,0.0,0.0,0.0,0.0,0.0,0.0,0.0,0.0,0.0,0.0,0.0,0.0,0.0,0.0,0.0,0.0,0.0,0.0,0.0,0.0,0.0,0.0,0.0,0.0,0.0,0.0,0.0,0.0,0.0,0.0,0.0,0.0,0.0,0.0,0.0,0.0,0.0,0.0,0.0,0.0,0.0,0.0,0.0,0.0,0.0,0.0,0.0,0.0,0.0,0.0,0.0,0.0,0.0,0.0,0.0,0.0,0.0,0.0,0.0,0.0,0.0,0.0,0.0,0.0,0.0,0.0,0.0,0.0,0.0,0.0,0.0,0.0,0.0,0.0,0.0,0.0,0.0,0.0,0.0,0.0,0.0,0.0,0.0,0.0,0.0,0.0,0.0,0.0,0.0,0.0,0.0,0.0,0.0,0.0,0.0,0.0,0.0,0.0,0.0,0.0,0.0,0.0,0.0,0.0,0.0,0.0,0.0,0.0,0.0,0.0,0.0,0.0,0.0,0.0,0.0,0.0,0.0,0.0,0.0,0.0,0.0,0.0,0.0,0.0,0.0,0.0,0.0,0.0,0.0,0.0,0.0,0.0,0.0,0.0,0.0,0.0,0.0,0.0,0.0,0.0,0.0,0.0,0.0,0.0,0.0,0.0,0.0,0.0,0.0,0.0,0.0,0.0,0.0,0.0,0.0,0.0,0.0,0.0,0.0,0.0,0.0,0.0,0.0,0.0,0.0,0.0,0.0,0.0,0.0,0.0,0.0,0.0,0.0,0.0,0.0,0.0,0.0,0.0,0.0,0.0,0.0,0.0,0.0,0.0,0.0,0.0,0.0,0.0,0.0,0.0,0.0,0.0,0.0,0.0,0.0,0.0,0.0,0.0,0.0,0.0,0.0,0.0,0.0,0.0,0.0,0.0,0.0,0.0,0.0,0.0,0.0,0.0,0.0,0.0,0.0,0.0,0.0,0.0,0.0,0.0,0.0,0.0,0.0,0.0,0.0,0.0,0.0,0.0,0.0,0.0,0.0,0.0,0.0,0.0,0.0,0.0,0.0,0.0,0.0,0.0,0.0,0.0,0.0,0.0,0.0,0.0,0.0,0.0,0.0,0.0,0.0,0.0,0.0,0.0,0.0,0.0,0.0,0.0,0.0,0.0,0.0,0.0,0.0,0.0,0.0,0.0,0.0,0.0,0.0,0.0,0.0,0.0,0.0,0.0,0.0,0.0,0.0,0.0,0.0,0.0,0.0,0.0,0.0,0.0,0.0,0.0,0.0,0.0,0.0,0.0,0.0,0.0,0.0,0.0,0.0,0.0,0.0,0.0,0.0,0.0,0.0,0.0,0.0,0.0,0.0,0.0,0.0,0.0,0.0,0.0,0.0,0.0,0.0,0.0,0.0,0.0,0.0,0.0,0.0,0.0,0.0,0.0,0.0,0.0,0.0,0.0,0.0,0.0,0.0,0.0,0.0,0.0,0.0,0.0,0.0,0.0,0.0,0.0,0.0,0.0,0.0,0.0,0.0,0.0,0.0,0.0,0.0,0.0,0.0,0.0,0.0,0.0,0.0,0.0,0.0,0.0,0.0,0.0,0.0,-2.4756,0.0,0.0,0.0,0.0,0.0,0.0,0.0,0.0,0.0,0.0,0.0,0.0,0.0,0.0,0.0,0.0,0.0,0.0,0.0,0.0,0.0,0.0,0.0,0.0,0.0,0.0,0.0,0.0,0.0,0.0,0.0,0.0,0.0,0.0,0.0,0.0,0.0,0.0,0.0,0.0,0.0,0.0,0.0,0.0,0.0,0.0,0.0,0.0,0.0,0.0,0.0,0.0,0.0,0.0,0.0,0.0,0.0,0.0,0.0,0.0,0.0,0.0,0.0,0.0,0.0,0.0,0.0,0.0,0.0,0.0,0.0,0.0,0.0,0.0,0.0,0.0,0.0,0.0,0.0,0.0,0.0,0.0,0.0,0.0,0.0,0.0,0.0,0.0,0.0,0.0,0.0,0.0,0.0,0.0,0.0,0.0,0.0,0.0,0.0,0.0,0.0,0.0,0.0,0.0,0.0,0.0,0.0,0.0,0.0,0.0,-2.5453,-2.5652,-2.5791,-2.5804,-2.5511,0.0,0.0,0.0,0.0,0.0,0.0,0.0,0.0,0.0,0.0,0.0,0.0,0.0,0.0,0.0,0.0,0.0,0.0,0.0,0.0,0.0,0.0,0.0,0.0,0.0,0.0,0.0,0.0,0.0,0.0,0.0,0.0,0.0,0.0,0.0,0.0,0.0,0.0,0.0,0.0,0.0,0.0,0.0,0.0,0.0,0.0,0.0,0.0,0.0,0.0,0.0,0.0,0.0,0.0,0.0,0.0,0.0,0.0,0.0,0.0,0.0,0.0,0.0,0.0,0.0,0.0,0.0,0.0,0.0,0.0,0.0,0.0,0.0,0.0,0.0,0.0,0.0,0.0,0.0,0.0,0.0,0.0,0.0,0.0,0.0,0.0,0.0,0.0,0.0,0.0,0.0,0.0,0.0,0.0,0.0,0.0,0.0,0.0,0.0,0.0,0.0,0.0,0.0,0.0,0.0,0.0,0.0,0.0,0.0,0.0,0.0,0.0,-2.6564,-2.6496,-2.6164,0.0,0.0,0.0,0.0,0.0,0.0,0.0,0.0,0.0,0.0,0.0,0.0,0.0,0.0,0.0,0.0,0.0,0.0,0.0,0.0,0.0,0.0,0.0,0.0,0.0,0.0,0.0,0.0,0.0,0.0,0.0,0.0,0.0,0.0,0.0,0.0,0.0,0.0,0.0,0.0,0.0,0.0,0.0,0.0,0.0,0.0,0.0,0.0,0.0,0.0,0.0,0.0,0.0,0.0,0.0,0.0,0.0,0.0,0.0,0.0,0.0,0.0,0.0,0.0,0.0,0.0,0.0,0.0,0.0,0.0,0.0,0.0,0.0,0.0,0.0,0.0,0.0,0.0,0.0,0.0,0.0,0.0,0.0,0.0,0.0,0.0,0.0,0.0,0.0,0.0,0.0,0.0,0.0,0.0,0.0,0.0,0.0,0.0,0.0,0.0,0.0,0.0,0.0,0.0,0.0,0.0,0.0,0.0,0.0,0.0,-2.704,-2.739,-2.739,0.0,-2.6905,0.0,0.0,0.0,0.0,0.0,0.0,0.0,0.0,0.0,0.0,0.0,0.0,0.0,0.0,0.0,0.0,0.0,0.0,0.0,0.0,0.0,0.0,0.0,0.0,0.0,0.0,0.0,0.0,0.0,0.0,0.0,0.0,0.0,0.0,0.0,0.0,0.0,0.0,0.0,0.0,0.0,0.0,0.0,0.0,0.0,0.0,0.0,0.0,0.0,0.0,0.0,0.0,0.0,0.0,0.0,0.0,0.0,0.0,0.0,0.0,0.0,0.0,0.0,0.0,0.0,0.0,0.0,0.0,0.0,0.0,0.0,0.0,0.0,0.0,0.0,0.0,0.0,0.0,0.0,0.0,0.0,0.0,0.0,0.0,0.0,0.0,0.0,0.0,0.0,0.0,0.0,0.0,0.0,0.0,0.0,0.0,0.0,0.0,0.0,0.0,0.0,0.0,0.0,0.0,0.0,0.0,0.0,0.0,0.0,0.0,-2.866,-2.8518,-2.804,-2.7723,0.0,0.0,0.0,0.0,0.0,0.0,0.0,0.0,0.0,0.0,0.0,0.0,0.0,0.0,0.0,0.0,0.0,0.0,0.0,0.0,0.0,0.0,0.0,0.0,0.0,0.0,0.0,0.0,0.0,0.0,0.0,0.0,0.0,0.0,0.0,0.0,0.0,0.0,0.0,0.0,0.0,0.0,0.0,0.0,0.0,0.0,0.0,0.0,0.0,0.0,0.0,0.0,0.0,0.0,0.0,0.0,0.0,0.0,0.0,0.0,0.0,0.0,0.0,0.0,0.0,0.0,0.0,0.0,0.0,0.0,0.0,0.0,0.0,0.0,0.0,0.0,0.0,0.0,0.0,0.0,0.0,0.0,0.0,0.0,0.0,0.0,0.0,0.0,0.0,0.0,0.0,0.0,0.0,0.0,0.0,0.0,0.0,0.0,0.0,0.0,0.0,0.0,0.0,0.0,0.0,0.0,0.0,0.0,0.0,0.0,-2.9805,-2.9956,-2.9659,-2.8918,-2.8542,-2.8411,0.0,0.0,0.0,0.0,0.0,0.0,0.0,0.0,0.0,0.0,0.0,0.0,0.0,0.0,0.0,0.0,0.0,0.0,0.0,0.0,0.0,0.0,0.0,0.0,0.0,0.0,0.0,0.0,0.0,0.0,0.0,0.0,0.0,0.0,0.0,0.0,0.0,0.0,0.0,0.0,0.0,0.0,0.0,0.0,0.0,0.0,0.0,0.0,0.0,0.0,0.0,0.0,0.0,0.0,0.0,0.0,0.0,0.0,0.0,0.0,0.0,0.0,0.0,0.0,0.0,0.0,0.0,0.0,0.0,0.0,0.0,0.0,0.0,0.0,0.0,0.0,0.0,0.0,0.0,0.0,0.0,0.0,0.0,0.0,0.0,0.0,0.0,0.0,0.0,0.0,0.0,0.0,0.0,0.0,0.0,0.0,0.0,0.0,0.0,0.0,0.0,0.0,0.0,0.0,0.0,0.0,0.0,0.0,-3.0296,-3.0569,-3.0692,-3.0853,-3.0245,-2.9797,0.0,0.0,0.0,0.0,0.0,0.0,0.0,0.0,0.0,0.0,0.0,0.0,0.0,0.0,0.0,0.0,0.0,0.0,0.0,0.0,0.0,0.0,0.0,0.0,0.0,0.0,0.0,0.0,0.0,0.0,0.0,0.0,0.0,0.0,0.0,0.0,0.0,0.0,0.0,0.0,0.0,0.0,0.0,0.0,0.0,0.0,0.0,0.0,0.0,0.0,0.0,0.0,0.0,0.0,0.0,0.0,0.0,0.0,0.0,0.0,0.0,0.0,0.0,0.0,0.0,0.0,0.0,0.0,0.0,0.0,0.0,0.0,0.0,0.0,0.0,0.0,0.0,0.0,0.0,0.0,0.0,0.0,0.0,0.0,0.0,0.0,0.0,0.0,0.0,0.0,0.0,0.0,0.0,0.0,0.0,0.0,0.0,0.0,0.0,0.0,0.0,0.0,0.0,0.0,0.0,0.0,0.0,0.0,0.0,-3.1461,-3.1748,-3.2033,-3.2154,-3.1481,-3.0844,0.0,0.0,0.0,0.0,0.0,0.0,0.0,0.0,0.0,0.0,0.0,0.0,0.0,0.0,0.0,0.0,0.0,0.0,0.0,0.0,0.0,0.0,0.0,0.0,0.0,0.0,0.0,0.0,0.0,0.0,0.0,0.0,0.0,0.0,0.0,0.0,0.0,0.0,0.0,0.0,0.0,0.0,0.0,0.0,0.0,0.0,0.0,0.0,0.0,0.0,0.0,0.0,0.0,0.0,0.0,0.0,0.0,0.0,0.0,0.0,0.0,0.0,0.0,0.0,0.0,0.0,0.0,0.0,0.0,0.0,0.0,0.0,0.0,0.0,0.0,0.0,0.0,0.0,0.0,0.0,0.0,0.0,0.0,0.0,0.0,0.0,0.0,0.0,0.0,0.0,0.0,0.0,0.0,0.0,0.0,0.0,0.0,0.0,0.0,0.0,0.0,0.0,0.0,0.0,0.0,0.0,0.0,0.0,0.0,-3.272,0.0,-3.3346,-3.3331,-3.2677,-3.2017,0.0,0.0,0.0,0.0,0.0,0.0,0.0,0.0,0.0,0.0,0.0,0.0,0.0,0.0,0.0,0.0,0.0,0.0,0.0,0.0,0.0,0.0,0.0,0.0,0.0,0.0,0.0,0.0,0.0,0.0,0.0,0.0,0.0,0.0,0.0,0.0,0.0,0.0,0.0,0.0,0.0,0.0,0.0,0.0,0.0,0.0,0.0,0.0,0.0,0.0,0.0,0.0,0.0,0.0,0.0,0.0,0.0,0.0,0.0,0.0,0.0,0.0,0.0,0.0,0.0,0.0,0.0,0.0,0.0,0.0,0.0,0.0,0.0,0.0,0.0,0.0,0.0,0.0,0.0,0.0,0.0,0.0,0.0,0.0,0.0,0.0,0.0,0.0,0.0,0.0,0.0,0.0,0.0,0.0,0.0,0.0,0.0,0.0,0.0,0.0,0.0,0.0,0.0,0.0,0.0,0.0,0.0,0.0,-3.3007,-3.4085,-3.4452,-3.4587,-3.4385,-3.379,-3.3258,0.0,0.0,0.0,0.0,0.0,0.0,0.0,0.0,0.0,0.0,0.0,0.0,0.0,0.0,0.0,0.0,0.0,0.0,0.0,0.0,0.0,0.0,0.0,0.0,0.0,0.0,0.0,0.0,0.0,0.0,0.0,0.0,0.0,0.0,0.0,0.0,0.0,0.0,0.0,0.0,0.0,0.0,0.0,0.0,0.0,0.0,0.0,0.0,0.0,0.0,0.0,0.0,0.0,0.0,0.0,0.0,0.0,0.0,0.0,0.0,0.0,0.0,0.0,0.0,0.0,0.0,0.0,0.0,0.0,0.0,0.0,0.0,0.0,0.0,0.0,0.0,0.0,0.0,0.0,0.0,0.0,0.0,0.0,0.0,0.0,0.0,0.0,0.0,0.0,0.0,0.0,0.0,0.0,0.0,0.0,0.0,0.0,0.0,0.0,0.0,0.0,0.0,0.0,0.0,0.0,0.0,0.0,0.0,0.0,-3.4654,-3.4883,-3.5052,-3.5073,-3.4809,-3.4237,0.0,0.0,0.0,0.0,0.0,0.0,0.0,0.0,0.0,0.0,0.0,0.0,0.0,0.0,0.0,0.0,0.0,0.0,0.0,0.0,0.0,0.0,0.0,0.0,0.0,0.0,0.0,0.0,0.0,0.0,0.0,0.0,0.0,0.0,0.0,0.0,0.0,0.0,0.0,0.0,0.0,0.0,0.0,0.0,0.0,0.0,0.0,0.0,0.0,0.0,0.0,0.0,0.0,0.0,0.0,0.0,0.0,0.0,0.0,0.0,0.0,0.0,0.0,0.0,0.0,0.0,0.0,0.0,0.0,0.0,0.0,0.0,0.0,0.0,0.0,0.0,0.0,0.0,0.0,0.0,0.0,0.0,0.0,0.0,0.0,0.0,0.0,0.0,0.0,0.0,0.0,0.0,0.0,0.0,0.0,0.0,0.0,0.0,0.0,0.0,0.0,0.0,0.0,0.0,0.0,0.0,0.0,0.0,0.0,-3.5509,-3.5524,-3.5559,-3.5608,-3.5524,-3.515,-3.4265,0.0,0.0,0.0,0.0,0.0,0.0,0.0,0.0,0.0,0.0,0.0,0.0,0.0,0.0,0.0,0.0,0.0,0.0,0.0,0.0,0.0,0.0,0.0,0.0,0.0,0.0,0.0,0.0,0.0,0.0,0.0,0.0,0.0,0.0,0.0,0.0,0.0,0.0,0.0,0.0,0.0,0.0,0.0,0.0,0.0,0.0,0.0,0.0,0.0,0.0,0.0,0.0,0.0,0.0,0.0,0.0,0.0,0.0,0.0,0.0,0.0,0.0,0.0,0.0,0.0,0.0,0.0,0.0,0.0,0.0,0.0,0.0,0.0,0.0,0.0,0.0,0.0,0.0,0.0,0.0,0.0,0.0,0.0,0.0,0.0,0.0,0.0,0.0,0.0,0.0,0.0,0.0,0.0,0.0,0.0,0.0,0.0,0.0,0.0,0.0,0.0,0.0,0.0,0.0,0.0,0.0,0.0,0.0,-3.6538,-3.6336,-3.6211,-3.6037,-3.6037,-3.5767,0.0,0.0,0.0,0.0,0.0,0.0,0.0,0.0,0.0,0.0,0.0,0.0,0.0,0.0,0.0,0.0,0.0,0.0,0.0,0.0,0.0,0.0,0.0,0.0,0.0,0.0,0.0,0.0,0.0,0.0,0.0,0.0,0.0,0.0,0.0,0.0,0.0,0.0,0.0,0.0,0.0,0.0,0.0,0.0,0.0,0.0,0.0,0.0,0.0,0.0,0.0,0.0,0.0,0.0,0.0,0.0,0.0,0.0,0.0,0.0,0.0,0.0,0.0,0.0,0.0,0.0,0.0,0.0,0.0,0.0,0.0,0.0,0.0,0.0,0.0,0.0,0.0,0.0,0.0,0.0,0.0,0.0,0.0,0.0,0.0,0.0,0.0,0.0,0.0,0.0,0.0,0.0,0.0,0.0,0.0,0.0,0.0,0.0,0.0,0.0,0.0,0.0,0.0,0.0,0.0,0.0,0.0,0.0,0.0,-3.6799,-3.7134,-3.715,-3.6754,-3.6492,-3.6211,0.0,0.0,0.0,0.0,0.0,0.0,0.0,0.0,0.0,0.0,0.0,0.0,0.0,0.0,0.0,0.0,0.0,0.0,0.0,0.0,0.0,0.0,0.0,0.0,0.0,0.0,0.0,0.0,0.0,0.0,0.0,0.0,0.0,0.0,0.0,0.0,0.0,0.0,0.0,0.0,0.0,0.0,0.0,0.0,0.0,0.0,0.0,0.0,0.0,0.0,0.0,0.0,0.0,0.0,0.0,0.0,0.0,0.0,0.0,0.0,0.0,0.0,0.0,0.0,0.0,0.0,0.0,0.0,0.0,0.0,0.0,0.0,0.0,0.0,0.0,0.0,0.0,0.0,0.0,0.0,0.0,0.0,0.0,0.0,0.0,0.0,0.0,0.0,0.0,0.0,0.0,0.0,0.0,0.0,0.0,0.0,0.0,0.0,0.0,0.0,0.0,0.0,0.0,0.0,0.0,0.0,0.0,0.0,-3.7118,-3.7342,-3.7653,-3.7743,-3.7449,-3.7089,-3.6723,0.0,0.0,0.0,0.0,0.0,0.0,0.0,0.0,0.0,0.0,0.0,0.0,0.0,0.0,0.0,0.0,0.0,0.0,0.0,0.0,0.0,0.0,0.0,0.0,0.0,0.0,0.0,0.0,0.0,0.0,0.0,0.0,0.0,0.0,0.0,0.0,0.0,0.0,0.0,0.0,0.0,0.0,0.0,0.0,0.0,0.0,0.0,0.0,0.0,0.0,0.0,0.0,0.0,0.0,0.0,0.0,0.0,0.0,0.0,0.0,0.0,0.0,0.0,0.0,0.0,0.0,0.0,0.0,0.0,0.0,0.0,0.0,0.0,0.0,0.0,0.0,0.0,0.0,0.0,0.0,0.0,0.0,0.0,0.0,0.0,0.0,0.0,0.0,0.0,0.0,0.0,0.0,0.0,0.0,0.0,0.0,0.0,0.0,0.0,0.0,0.0,0.0,0.0,0.0,0.0,0.0,0.0,0.0,-3.7637,-3.7943,-3.81,-3.8173,-3.8116,-3.7695,-3.7238,0.0,0.0,0.0,0.0,0.0,0.0,0.0,0.0,0.0,0.0,0.0,0.0,0.0,0.0,0.0,0.0,0.0,0.0,0.0,0.0,0.0,0.0,0.0,0.0,0.0,0.0,0.0,0.0,0.0,0.0,0.0,0.0,0.0,0.0,0.0,0.0,0.0,0.0,0.0,0.0,0.0,0.0,0.0,0.0,0.0,0.0,0.0,0.0,0.0,0.0,0.0,0.0,0.0,0.0,0.0,0.0,0.0,0.0,0.0,0.0,0.0,0.0,0.0,0.0,0.0,0.0,0.0,0.0,0.0,0.0,0.0,0.0,0.0,0.0,0.0,0.0,0.0,0.0,0.0,0.0,0.0,0.0,0.0,0.0,0.0,0.0,0.0,0.0,0.0,0.0,0.0,0.0,0.0,0.0,0.0,0.0,0.0,0.0,0.0,0.0,0.0,0.0,0.0,0.0,0.0,0.0,0.0,0.0,-3.8059,-3.8278,-3.8528,-3.8583,-3.8504,-3.7918,-3.7449,0.0,0.0,0.0,0.0,0.0,0.0,0.0,0.0,0.0,0.0,0.0,0.0,0.0,0.0,0.0,0.0,0.0,0.0,0.0,0.0,0.0,0.0,0.0,0.0,0.0,0.0,0.0,0.0,0.0,0.0,0.0,0.0,0.0,0.0,0.0,0.0,0.0,0.0,0.0,0.0,0.0,0.0,0.0,0.0,0.0,0.0,0.0,0.0,-3.1918,0.0,0.0,0.0,0.0,0.0,0.0,0.0,0.0,0.0,0.0,0.0,0.0,0.0,0.0,0.0,0.0,0.0,0.0,0.0,0.0,0.0,0.0,0.0,0.0,0.0,0.0,0.0,0.0,0.0,0.0,0.0,0.0,0.0,0.0,0.0,0.0,0.0,0.0,0.0,0.0,0.0,0.0,0.0,0.0,0.0,0.0,0.0,0.0,0.0,0.0,0.0,0.0,0.0,0.0,0.0,0.0,0.0,0.0,0.0,-3.8472,-3.8838,-3.8985,-3.8985,-3.8892,-3.8432,-3.7828,0.0,0.0,0.0,0.0,0.0,0.0,0.0,0.0,0.0,0.0,0.0,0.0,0.0,0.0,0.0,0.0,0.0,0.0,0.0,0.0,0.0,0.0,0.0,0.0,0.0,0.0,0.0,0.0,0.0,0.0,0.0,0.0,0.0,0.0,0.0,0.0,0.0,0.0,0.0,0.0,0.0,0.0,0.0,0.0,0.0,0.0,0.0,0.0,0.0,0.0,0.0,0.0,0.0,0.0,0.0,0.0,0.0,0.0,0.0,0.0,0.0,0.0,0.0,0.0,0.0,0.0,0.0,0.0,0.0,0.0,0.0,0.0,0.0,0.0,0.0,0.0,0.0,0.0,0.0,0.0,0.0,0.0,0.0,0.0,0.0,0.0,0.0,0.0,0.0,0.0,0.0,0.0,0.0,0.0,0.0,0.0,0.0,0.0,0.0,0.0,0.0,0.0,0.0,0.0,0.0,0.0,0.0,-3.8472,-3.8914,-3.9272,-3.9325,-3.9325,-3.9272,-3.8876,-3.8286,-3.7535,0.0,0.0,0.0,0.0,0.0,0.0,0.0,0.0,0.0,0.0,0.0,0.0,0.0,0.0,0.0,0.0,0.0,0.0,0.0,0.0,0.0,0.0,0.0,0.0,0.0,0.0,0.0,0.0,0.0,0.0,0.0,0.0,0.0,0.0,0.0,0.0,0.0,0.0,-3.0443,-3.1919,0.0,0.0,0.0,0.0,0.0,0.0,0.0,0.0,-3.3577,0.0,0.0,0.0,0.0,0.0,0.0,0.0,0.0,0.0,0.0,0.0,0.0,0.0,0.0,0.0,0.0,0.0,0.0,0.0,0.0,0.0,0.0,0.0,0.0,0.0,0.0,0.0,0.0,0.0,0.0,0.0,0.0,0.0,0.0,0.0,0.0,0.0,0.0,0.0,0.0,0.0,0.0,0.0,0.0,0.0,0.0,0.0,0.0,0.0,0.0,0.0,0.0,0.0,0.0,0.0,0.0,-3.8319,-3.8892,-3.9218,-3.9325,-3.952,-3.952,-3.9325,-3.8985,-3.8472,-3.7828,0.0,0.0,0.0,0.0,0.0,0.0,0.0,0.0,0.0,0.0,0.0,0.0,0.0,0.0,0.0,0.0,0.0,0.0,0.0,0.0,0.0,0.0,0.0,0.0,0.0,0.0,0.0,0.0,0.0,0.0,0.0,0.0,0.0,0.0,0.0,0.0,0.0,0.0,0.0,-3.2782,-3.3622,0.0,0.0,0.0,0.0,0.0,0.0,0.0,0.0,-3.4099,0.0,0.0,0.0,0.0,0.0,0.0,0.0,0.0,0.0,0.0,0.0,0.0,0.0,0.0,0.0,0.0,0.0,0.0,0.0,0.0,0.0,0.0,0.0,0.0,0.0,0.0,0.0,0.0,0.0,0.0,0.0,0.0,0.0,0.0,0.0,0.0,0.0,0.0,0.0,0.0,0.0,0.0,0.0,0.0,0.0,0.0,0.0,0.0,0.0,0.0,0.0,0.0,0.0,0.0,0.0,-3.8711,-3.9164,-3.9484,-3.9573,-3.9729,-3.9694,-3.952,-3.9148,-3.8639,0.0,0.0,0.0,0.0,0.0,0.0,0.0,0.0,0.0,0.0,0.0,0.0,0.0,0.0,0.0,0.0,0.0,0.0,0.0,0.0,0.0,0.0,0.0,0.0,0.0,0.0,0.0,0.0,0.0,0.0,0.0,0.0,0.0,0.0,0.0,0.0,0.0,0.0,0.0,0.0,-3.3725,-3.4398,-3.4773,0.0,0.0,0.0,0.0,0.0,0.0,-3.4668,-3.4601,0.0,0.0,0.0,0.0,0.0,0.0,0.0,0.0,0.0,0.0,0.0,0.0,0.0,0.0,0.0,0.0,0.0,0.0,0.0,0.0,0.0,0.0,0.0,0.0,0.0,0.0,0.0,0.0,0.0,0.0,0.0,0.0,0.0,0.0,0.0,0.0,0.0,0.0,0.0,0.0,0.0,0.0,0.0,0.0,0.0,0.0,0.0,0.0,0.0,0.0,0.0,0.0,0.0,0.0,0.0,-3.9023,-3.9432,-3.9711,-3.9901,-3.9935,-3.9884,-3.9677,-3.9276,-3.8805,0.0,0.0,0.0,0.0,0.0,0.0,0.0,0.0,0.0,0.0,0.0,0.0,0.0,0.0,0.0,0.0,0.0,0.0,0.0,0.0,0.0,0.0,0.0,0.0,0.0,0.0,0.0,0.0,0.0,0.0,0.0,0.0,0.0,0.0,0.0,0.0,0.0,0.0,0.0,0.0,0.0,-3.5052,-3.5067,-3.5118,0.0,0.0,0.0,0.0,-3.5052,-3.5052,0.0,0.0,0.0,0.0,0.0,0.0,0.0,0.0,0.0,0.0,0.0,0.0,0.0,0.0,0.0,0.0,0.0,0.0,0.0,0.0,0.0,0.0,0.0,0.0,0.0,0.0,0.0,0.0,0.0,0.0,0.0,0.0,0.0,0.0,0.0,0.0,0.0,0.0,0.0,0.0,0.0,0.0,0.0,0.0,0.0,0.0,0.0,0.0,0.0,0.0,0.0,0.0,0.0,0.0,0.0,0.0,-3.9272,-3.9642,-3.9849,-3.9901,-3.9986,-3.9986,-3.9729,-3.9382,-3.8952,0.0,0.0,0.0,0.0,0.0,0.0,0.0,0.0,0.0,0.0,0.0,0.0,0.0,0.0,0.0,0.0,0.0,0.0,0.0,0.0,0.0,0.0,0.0,0.0,0.0,0.0,0.0,0.0,0.0,0.0,0.0,0.0,0.0,0.0,0.0,0.0,0.0,0.0,0.0,0.0,0.0,-3.5623,-3.5623,-3.5767,-3.5861,0.0,0.0,-3.5831,-3.5623,-3.5623,0.0,0.0,0.0,0.0,0.0,0.0,0.0,0.0,0.0,0.0,0.0,0.0,0.0,0.0,0.0,0.0,0.0,0.0,0.0,0.0,0.0,0.0,0.0,0.0,0.0,0.0,0.0,0.0,0.0,0.0,0.0,0.0,0.0,0.0,0.0,0.0,0.0,0.0,0.0,0.0,0.0,0.0,0.0,0.0,0.0,0.0,0.0,0.0,0.0,0.0,0.0,0.0,0.0,0.0,0.0,-3.9202,-3.952,-3.9798,-3.9952,-3.9986,-4.0003,-3.9833,-3.959,-3.9185,-3.8678,0.0,0.0,0.0,0.0,0.0,0.0,0.0,0.0,0.0,0.0,0.0,0.0,0.0,0.0,0.0,0.0,0.0,0.0,0.0,0.0,0.0,0.0,0.0,0.0,0.0,0.0,0.0,0.0,0.0,0.0,0.0,0.0,0.0,0.0,0.0,0.0,0.0,0.0,0.0,0.0,0.0,0.0,-3.5688,-3.6213,0.0,0.0,0.0,-3.7096,-3.7016,0.0,0.0,0.0,0.0,0.0,0.0,0.0,0.0,0.0,0.0,0.0,0.0,0.0,0.0,0.0,0.0,0.0,0.0,0.0,0.0,0.0,0.0,0.0,0.0,0.0,0.0,0.0,0.0,0.0,0.0,0.0,0.0,0.0,0.0,0.0,0.0,0.0,0.0,0.0,0.0,0.0,0.0,0.0,0.0,0.0,0.0,0.0,0.0,0.0,0.0,0.0,0.0,0.0,0.0,0.0,0.0,0.0,-3.9729,-3.9884,-3.9986,-4.007,-3.9935,-3.9746,-3.9501,-3.904,0.0,0.0,0.0,0.0,0.0,0.0,0.0,0.0,0.0,0.0,0.0,0.0,0.0,0.0,0.0,0.0,0.0,0.0,0.0,0.0,0.0,0.0,0.0,0.0,0.0,0.0,0.0,-2.9048,0.0,0.0,0.0,0.0,0.0,0.0,0.0,0.0,0.0,0.0,0.0,0.0,0.0,0.0,-3.5827,-3.5978,-3.6641,-3.7231,0.0,0.0,-3.8095,-3.8162,-3.7537,-3.7005,0.0,0.0,0.0,0.0,0.0,0.0,0.0,0.0,0.0,0.0,0.0,0.0,0.0,0.0,0.0,0.0,0.0,0.0,0.0,0.0,0.0,0.0,0.0,0.0,0.0,0.0,0.0,0.0,0.0,0.0,0.0,0.0,0.0,0.0,0.0,0.0,0.0,0.0,0.0,0.0,0.0,0.0,0.0,0.0,0.0,0.0,0.0,0.0,0.0,0.0,0.0,0.0,0.0,0.0,-3.959,-3.9901,-4.0037,-4.007,-4.0087,-3.9986,-3.9798,-3.9501,-3.904,-3.8511,0.0,0.0,0.0,0.0,0.0,0.0,0.0,0.0,0.0,0.0,0.0,0.0,0.0,0.0,0.0,0.0,0.0,0.0,0.0,0.0,0.0,0.0,0.0,0.0,0.0,0.0,0.0,0.0,0.0,0.0,0.0,0.0,0.0,0.0,0.0,0.0,0.0,0.0,0.0,0.0,0.0,-3.6201,-3.6808,-3.7204,-3.7723,0.0,-3.8542,-3.8492,-3.8477,-3.8147,-3.7879,-3.7647,0.0,0.0,0.0,0.0,0.0,0.0,0.0,0.0,0.0,0.0,0.0,0.0,0.0,0.0,0.0,0.0,0.0,0.0,0.0,0.0,0.0,0.0,0.0,0.0,0.0,0.0,0.0,0.0,0.0,0.0,0.0,0.0,0.0,0.0,0.0,0.0,0.0,0.0,0.0,0.0,0.0,0.0,0.0,0.0,0.0,0.0,0.0,0.0,0.0,0.0,0.0,0.0,0.0,-3.9798,-3.9901,-4.0037,-4.0087,-4.0003,-3.9833,-3.9573,-3.9094,-3.8623,-3.8116,0.0,0.0,0.0,0.0,0.0,0.0,0.0,0.0,0.0,0.0,0.0,0.0,0.0,0.0,0.0,0.0,0.0,0.0,0.0,0.0,0.0,0.0,0.0,0.0,0.0,0.0,0.0,0.0,-3.1268,-3.1902,-3.3097,0.0,0.0,0.0,0.0,0.0,0.0,0.0,0.0,0.0,0.0,-3.6557,-3.693,-3.7872,0.0,0.0,-3.9545,-3.9754,-3.9739,-3.913,-3.8599,-3.8516,-3.7895,0.0,0.0,0.0,0.0,0.0,0.0,0.0,0.0,0.0,0.0,0.0,0.0,0.0,0.0,0.0,0.0,0.0,0.0,0.0,0.0,0.0,0.0,0.0,0.0,0.0,0.0,0.0,0.0,0.0,0.0,0.0,0.0,0.0,0.0,0.0,0.0,0.0,0.0,0.0,0.0,0.0,0.0,0.0,0.0,0.0,0.0,0.0,0.0,0.0,0.0,0.0,0.0,-3.9901,-3.9935,-4.002,-4.0037,-3.9884,-3.9729,-3.9362,-3.8805,-3.827,-3.7754,0.0,0.0,0.0,0.0,0.0,0.0,0.0,0.0,0.0,0.0,0.0,0.0,0.0,0.0,0.0,0.0,0.0,0.0,0.0,0.0,0.0,0.0,0.0,0.0,0.0,0.0,0.0,0.0,-3.1942,-3.2667,-3.377,0.0,0.0,0.0,0.0,0.0,0.0,0.0,0.0,0.0,0.0,-3.6929,-3.7521,-3.8491,-3.9351,-3.9853,-4.0216,-4.0539,-4.0593,-3.9849,-3.9267,-3.9267,0.0,0.0,0.0,0.0,0.0,0.0,0.0,0.0,0.0,0.0,0.0,0.0,0.0,0.0,0.0,0.0,0.0,0.0,0.0,0.0,0.0,0.0,0.0,0.0,0.0,0.0,0.0,-3.4475,0.0,0.0,-3.543,0.0,0.0,0.0,0.0,0.0,0.0,0.0,0.0,0.0,0.0,0.0,0.0,0.0,0.0,0.0,0.0,0.0,0.0,0.0,0.0,0.0,0.0,-3.9952,-4.0087,-4.007,-4.0037,-3.9901,-3.9659,-3.9272,-3.8821,-3.823,-3.7562,-3.6906,0.0,0.0,0.0,0.0,0.0,0.0,0.0,0.0,0.0,0.0,0.0,0.0,0.0,0.0,0.0,0.0,0.0,0.0,0.0,0.0,0.0,0.0,0.0,0.0,0.0,0.0,-3.1856,-3.2704,-3.3409,0.0,0.0,0.0,0.0,0.0,0.0,0.0,0.0,0.0,-3.6372,-3.661,-3.7261,-3.8721,-3.907,-3.9535,-4.0591,-4.0578,-4.0593,-4.073,-4.0301,-3.9996,0.0,0.0,0.0,0.0,0.0,0.0,0.0,0.0,0.0,0.0,0.0,0.0,0.0,0.0,0.0,0.0,0.0,0.0,0.0,0.0,0.0,0.0,0.0,0.0,0.0,0.0,0.0,-3.6057,-3.5814,0.0,0.0,0.0,0.0,0.0,0.0,0.0,0.0,0.0,0.0,0.0,-3.7801,-3.7876,0.0,0.0,0.0,0.0,0.0,0.0,0.0,0.0,0.0,0.0,0.0,0.0,-3.9901,-3.9816,-3.9935,-3.9849,-3.9642,-3.9432,-3.911,-3.856,-3.8033,-3.7314,-3.6321,0.0,0.0,0.0,0.0,0.0,0.0,0.0,0.0,0.0,0.0,0.0,0.0,0.0,0.0,0.0,0.0,0.0,0.0,0.0,0.0,0.0,0.0,0.0,0.0,0.0,-3.182,0.0,0.0,0.0,0.0,0.0,0.0,0.0,0.0,0.0,0.0,-3.5893,-3.6237,-3.6462,-3.7278,-3.8037,-3.8696,-3.9204,-3.9707,0.0,0.0,0.0,0.0,0.0,0.0,0.0,0.0,0.0,0.0,0.0,0.0,0.0,0.0,-3.9466,-3.9967,-4.0368,-4.0763,-4.1231,0.0,0.0,0.0,0.0,0.0,0.0,0.0,0.0,0.0,0.0,0.0,0.0,0.0,0.0,-3.6816,-3.6492,-3.6492,0.0,0.0,0.0,0.0,0.0,0.0,0.0,0.0,-3.6938,-3.7225,-3.7743,-3.786,-3.8164,0.0,-3.8711,-3.8805,0.0,0.0,0.0,0.0,0.0,0.0,0.0,0.0,-3.9798,-3.9729,-3.9746,-3.9659,-3.9432,-3.9148,-3.8766,-3.8262,-3.7567,-3.6769,-3.5894,-3.5703,-3.5394,0.0,0.0,0.0,0.0,0.0,0.0,0.0,0.0,0.0,0.0,0.0,0.0,0.0,0.0,0.0,0.0,0.0,0.0,0.0,0.0,0.0,0.0,0.0,-3.2023,0.0,0.0,0.0,0.0,0.0,0.0,0.0,0.0,0.0,-3.5848,-3.6222,-3.6656,-3.709,-3.7868,-3.8537,-3.9003,0.0,0.0,0.0,0.0,0.0,0.0,0.0,-3.9681,-3.9681,-3.9553,-3.9424,-3.9424,-3.9424,-3.9496,-3.9854,0.0,0.0,-4.0814,-4.1138,-4.1456,-4.198,-4.2238,-4.2445,-4.2571,-4.2571,-4.2508,0.0,0.0,0.0,0.0,0.0,0.0,0.0,0.0,-3.7121,-3.6816,0.0,-3.6492,0.0,0.0,0.0,0.0,-3.6492,-3.6492,0.0,0.0,-3.6877,-3.7105,-3.7417,-3.7743,-3.8033,-3.8391,-3.8488,-3.8655,-3.8805,-3.9094,0.0,0.0,0.0,0.0,0.0,0.0,-3.9677,-3.9677,-3.9537,-3.9379,-3.9272,-3.8805,-3.8343,-3.7886,-3.6799,-3.6054,-3.5688,-3.5539,-3.5294,-3.492,-3.4601,0.0,0.0,0.0,0.0,0.0,0.0,0.0,0.0,0.0,0.0,0.0,0.0,0.0,0.0,0.0,0.0,0.0,0.0,0.0,0.0,-3.1373,0.0,0.0,0.0,0.0,0.0,0.0,0.0,0.0,0.0,-3.6522,-3.6567,-3.6582,-3.7,-3.8212,0.0,0.0,0.0,0.0,-3.9768,-3.9925,-4.0011,-3.9996,-4.0011,-3.9839,-3.9681,-3.9681,0.0,0.0,-3.9424,-3.9424,-3.9496,-3.9696,-3.9854,-4.0207,-4.0913,-4.1221,-4.1456,-4.198,-4.2238,-4.2445,-4.2571,-4.238,-4.2269,-4.068,0.0,0.0,0.0,0.0,-3.8528,-3.796,-3.7358,-3.7105,-3.6816,-3.6492,-3.6492,0.0,0.0,0.0,0.0,0.0,0.0,-3.6538,-3.6723,-3.68,-3.7013,-3.7417,-3.7476,-3.777,-3.8189,-3.8246,-3.8359,-3.8504,-3.8616,-3.8766,-3.8969,0.0,0.0,0.0,0.0,-3.9131,-3.9077,-3.9023,-3.8914,-3.8805,-3.8359,-3.777,-3.7058,-3.6523,-3.607,-3.5688,-3.5459,-3.5148,-3.4935,-3.4467,0.0,0.0,0.0,0.0,0.0,0.0,0.0,0.0,0.0,0.0,0.0,0.0,0.0,0.0,0.0,0.0,0.0,0.0,0.0,-3.1198,-3.1447,-3.1817,0.0,0.0,0.0,0.0,0.0,0.0,0.0,0.0,0.0,-3.7793,-3.7853,-3.7973,0.0,0.0,-3.92,-3.9451,-3.9496,-3.9481,-3.9568,-3.9568,0.0,-3.9568,-3.9481,-3.9481,-3.9496,-3.9409,-3.9424,-3.9424,-3.9424,-3.9496,-3.9666,-3.9839,-4.0137,-4.0608,-4.0987,-4.1374,-4.172,-4.198,-4.219,-4.2302,-4.1901,-4.1372,-4.068,-4.037,-4.0037,-3.9609,-3.9061,-3.8528,-3.7902,-3.7298,-3.7105,-3.6816,-3.6492,-3.6492,-3.6492,-3.6492,-3.6492,0.0,0.0,0.0,-3.6554,-3.66,-3.6662,-3.6831,-3.7118,-3.7298,-3.7519,-3.7812,-3.796,-3.8091,-3.8221,-3.8221,-3.8278,-3.8359,0.0,-3.8655,-3.8655,-3.8711,-3.8711,-3.8639,-3.8528,-3.8399,-3.8343,-3.7711,-3.7118,-3.6523,-3.6196,-3.5831,-3.5509,-3.5329,-3.5016,-3.4735,-3.4264,-3.3701,0.0,0.0,0.0,0.0,0.0,0.0,0.0,0.0,0.0,0.0,0.0,-3.0986,-3.0986,0.0,0.0,0.0,-3.0986,-3.1153,-3.1602,-3.1792,0.0,0.0,0.0,0.0,0.0,0.0,0.0,-3.7122,-3.739,-3.7823,-3.8478,-3.8653,-3.8725,-3.8796,-3.9155,-3.9424,-3.9424,0.0,-3.9334,-3.9065,-3.9005,-3.8916,-3.8676,-3.8616,-3.8616,-3.8631,-3.8631,-3.8616,-3.8631,-3.8631,-3.8616,-3.8757,-3.8983,-3.9206,-3.9467,-3.9859,-4.0403,-4.0984,-4.1005,-4.1247,-4.2029,-4.1293,-4.0119,-4.0551,-4.0238,-3.9986,-3.9504,-3.8969,-3.8327,-3.7754,-3.7178,-3.706,-3.6816,-3.6492,-3.6492,-3.6492,-3.6492,-3.6492,0.0,-3.6492,-3.6492,-3.6492,-3.6492,-3.66,-3.6723,-3.6723,-3.7118,-3.7358,-3.7342,-3.7685,-3.7817,-3.7801,-3.7817,-3.7759,-3.7658,-3.8049,-3.8278,-3.8335,-3.8335,-3.8335,-3.8335,-3.8017,-3.7812,-3.777,-3.7058,-3.6523,-3.6196,-3.5879,-3.5524,-3.5213,-3.5148,-3.4883,-3.4414,-3.3991,-3.3493,-3.2988,0.0,0.0,0.0,0.0,0.0,0.0,0.0,0.0,0.0,0.0,0.0,0.0,0.0,0.0,-3.1052,-3.1104,0.0,-3.208,-3.2376,0.0,0.0,0.0,-3.4985,-3.5402,-3.5985,-3.6765,-3.7565,0.0,0.0,-3.8708,-3.8914,-3.9103,-3.9262,-3.9379,-3.9394,-3.9349,-3.932,-3.9095,-3.8407,-3.8302,-3.8093,-3.7644,-3.7524,-3.7539,-3.7524,-3.7404,-3.7479,-3.7494,-3.7479,-3.7434,-3.7494,-3.7571,-3.782,-3.7955,-3.8274,-3.8716,-3.9794,-3.9626,-3.9866,-4.1229,-4.0356,-3.8795,-4.0387,-4.0138,-3.9696,-3.9276,-3.8805,-3.8343,-3.777,-3.7178,-3.7044,-3.6816,-3.6492,-3.6492,-3.6492,-3.6492,-3.6492,-3.6492,-3.6492,-3.6492,-3.6492,-3.6492,-3.6554,-3.66,-3.6723,-3.6846,-3.6968,-3.7105,-3.7181,-3.7241,-3.7241,-3.7241,-3.7165,-3.7181,-3.7301,-3.7449,-3.7594,-3.7669,-3.7653,-3.7669,-3.7476,-3.7194,-3.6846,-3.6523,-3.6148,-3.5816,-3.5653,-3.5424,-3.5213,-3.4817,-3.4481,-3.4196,-3.373,-3.3157,-3.2561,-3.23,0.0,0.0,0.0,0.0,0.0,0.0,0.0,0.0,0.0,-3.0986,-3.0986,0.0,-3.164,0.0,-3.2032,-3.2333,-3.2555,-3.2725,0.0,0.0,-3.4262,-3.5013,-3.5613,-3.6642,-3.7451,-3.7955,-3.8341,-3.862,-3.8767,-3.8457,-3.8176,-3.8263,-3.8894,-3.923,-3.8736,-3.8646,-3.8392,-3.7793,-3.7629,-3.7599,-3.7404,-3.7404,-3.7375,-3.7404,-3.7389,-3.7404,-3.7389,-3.7404,-3.7404,-3.7404,-3.7571,-3.7707,-3.7745,-3.7582,-3.746,-3.7759,-3.8505,-3.9264,-3.9722,-3.8904,-3.7793,-4.0171,-3.9867,-3.9435,-3.8952,-3.8455,-3.8116,-3.7685,-3.7089,-3.706,-3.6816,-3.6492,-3.6492,-3.6492,-3.6492,-3.6492,-3.6492,-3.6492,-3.6492,-3.6492,-3.6492,-3.6492,-3.6554,-3.66,-3.6662,-3.6785,-3.6862,-3.6938,-3.6999,-3.6999,-3.6999,-3.6954,-3.6862,-3.6877,-3.6907,-3.7013,-3.7134,-3.721,-3.7194,-3.7013,-3.6708,-3.6289,-3.6052,-3.5782,-3.5589,-3.5294,-3.503,-3.4883,-3.4399,-3.3991,-3.3716,-3.3227,-3.2731,-3.2286,-3.2009,-3.1643,0.0,0.0,0.0,0.0,0.0,0.0,0.0,0.0,0.0,0.0,0.0,-3.2228,-3.2215,-3.2515,-3.2803,-3.3064,-3.3237,-3.3569,-3.4073,-3.478,-3.5446,-3.6086,-3.6859,-3.7457,-3.7915,-3.7881,-3.7929,-3.7989,-3.7535,-3.7212,-3.7298,-3.7878,-3.818,-3.7838,-3.7764,-3.7511,-3.6886,-3.6767,-3.6663,-3.6477,-3.65,-3.6567,-3.6567,-3.6552,-3.6552,-3.6567,-3.6552,-3.6552,-3.6567,-3.6648,-3.6767,-3.6803,-3.6597,-3.6455,-3.6645,-3.7082,-3.7631,-3.7864,-3.7415,-3.6718,-3.9935,-3.9625,-3.9185,-3.8678,-3.81,-3.7976,-3.7583,-3.6999,-3.6999,-3.6816,-3.6492,-3.6492,-3.6492,-3.6492,-3.6492,-3.6492,-3.6492,-3.6492,-3.6492,-3.6492,-3.6492,-3.6492,-3.6492,-3.66,-3.6662,-3.6662,-3.6877,-3.6938,-3.6954,-3.6954,-3.6877,-3.6662,-3.6662,-3.66,-3.6492,-3.6754,-3.6877,-3.6862,-3.6616,-3.6289,-3.591,-3.5619,-3.5439,-3.5374,-3.4898,-3.4549,-3.4346,-3.3922,-3.3577,-3.3171,-3.266,-3.2286,-3.2096,-3.1569,-3.1272,0.0,-3.1061,0.0,0.0,0.0,0.0,0.0,0.0,0.0,0.0,-3.2764,-3.2829,-3.2908,-3.2908,-3.3117,-3.3639,-3.3855,-3.4296,-3.5006,-3.5399,-3.5871,-3.6522,-3.6766,-3.6944,-3.7357,-3.6878,-3.6642,-3.6776,-3.6447,-3.6185,-3.6326,-3.638,-3.6461,-3.6546,-3.6674,-3.6581,-3.5863,-3.5775,-3.568,-3.537,-3.5368,-3.5499,-3.5484,-3.5463,-3.5439,-3.5499,-3.5499,-3.5469,-3.5484,-3.5448,-3.5549,-3.5574,-3.5589,-3.5653,-3.5812,-3.5793,-3.5933,-3.6356,-3.6216,-3.5691,-3.9729,-3.9379,-3.9094,-3.8678,-3.8116,-3.796,-3.7524,-3.6999,-3.6999,-3.6816,-3.6492,-3.6492,-3.6492,-3.6492,-3.6492,-3.6492,-3.6492,-3.6492,-3.6492,-3.6492,-3.6492,-3.6492,-3.6492,-3.6554,-3.6554,-3.6554,-3.6554,-3.6616,-3.6616,-3.6616,-3.6554,-3.6554,-3.6554,-3.6554,-3.6492,0.0,0.0,0.0,-3.6148,-3.5925,-3.5619,-3.5359,-3.5162,-3.4831,-3.4631,0.0,-3.3908,-3.3591,-3.3157,-3.2574,-3.2359,0.0,0.0,0.0,0.0,0.0,0.0,0.0,0.0,0.0,0.0,0.0,-3.2973,-3.3104,-3.2738,-3.3143,-3.36,-3.4018,-3.4071,-3.4123,-3.4228,-3.4254,-3.4528,-3.5059,-3.5154,-3.5494,-3.6138,-3.5935,-3.5927,-3.631,-3.6014,-3.5778,-3.5969,-3.5511,-3.5095,-3.5137,-3.4749,-3.4462,-3.4545,-3.5448,-3.5834,-3.5244,-3.5104,-3.5097,-3.4964,-3.5001,-3.5082,-3.5001,-3.5001,-3.5001,-3.5001,-3.5001,-3.5001,-3.5016,-3.5016,-3.5001,-3.5052,-3.5067,-3.5118,-3.5133,-3.5067,-3.5258,-3.5924,-3.5689,-3.5264,-3.9415,-3.9148,-3.8821,-3.8432,0.0,-3.786,-3.748,-3.6999,-3.6999,-3.6816,-3.6492,-3.6492,-3.6492,-3.6492,-3.6492,-3.6492,-3.6492,-3.6492,-3.6492,-3.6492,-3.6492,-3.6492,-3.6492,-3.6492,-3.6492,-3.6492,-3.6492,-3.6492,-3.6492,-3.6414,-3.6352,-3.6352,-3.6289,-3.6226,-3.6241,-3.6148,-3.6022,-3.5943,-3.5846,-3.5619,-3.5359,-3.5016,-3.475,-3.4549,-3.4074,0.0,0.0,0.0,0.0,0.0,0.0,0.0,0.0,-3.1198,0.0,-3.0986,-3.0986,-3.0986,-3.1013,-3.1522,-3.1967,-3.2254,-3.3077,-3.3574,-3.3522,-3.3809,-3.4097,-3.4371,-3.4397,-3.4397,-3.4397,-3.4397,-3.4446,-3.4537,-3.4578,-3.4794,-3.4961,-3.4972,-3.501,-3.5245,-3.4934,-3.4702,-3.482,-3.437,-3.4143,-3.4185,-3.4027,-3.3896,-3.398,-3.4539,-3.4855,-3.4712,-3.4624,-3.4677,-3.4802,-3.4868,-3.4935,-3.4935,-3.4935,-3.4935,-3.4935,-3.4935,-3.4935,-3.4935,-3.4935,-3.4935,-3.4935,-3.4935,-3.4935,-3.4868,-3.4883,-3.4927,-3.534,-3.5251,-3.4986,-3.9148,-3.8914,-3.8544,-3.8221,-3.7876,-3.77,-3.7345,-3.6938,-3.6938,0.0,0.0,-3.6492,-3.6492,-3.6492,-3.6492,-3.6492,-3.6492,-3.6492,-3.6492,-3.6492,-3.6492,-3.6492,-3.6492,-3.6476,-3.6429,-3.6429,-3.6445,-3.6429,-3.6414,-3.6211,-3.6148,-3.6133,-3.5915,-3.573,-3.5576,-3.5546,-3.5419,-3.5228,-3.5434,-3.5374,-3.5082,-3.4616,-3.4278,-3.421,-3.3521,-3.3171,-3.31,-3.2458,-3.2109,-3.2023,-3.1569,-3.1272,-3.1198,-3.1061,-3.0911,-3.0898,-3.0898,-3.0898,-3.0911,-3.1369,-3.1733,-3.1824,-3.2802,-3.3584,-3.4214,-3.4332,-3.4397,-3.4397,-3.4319,-3.4254,-3.4254,-3.4149,-3.4009,-3.3779,-3.39,-3.3939,-3.395,-3.399,-3.4087,-3.4245,-3.385,-3.355,-3.3654,-3.3421,-3.3241,-3.3396,-3.355,-3.3744,-3.3813,-3.3965,-3.42,-3.4293,-3.4303,-3.4409,-3.4549,-3.4631,-3.4735,-3.4683,-3.4668,-3.4735,-3.4735,-3.4802,-3.4802,-3.4802,-3.4802,-3.4802,-3.4735,-3.4721,-3.4735,-3.4735,-3.4616,-3.4578,-3.4704,-3.4624,-3.4478,-3.9094,-3.8805,-3.8488,-3.8221,-3.786,-3.7551,-3.7194,-3.6723,-3.66,-3.6569,-3.6492,-3.6492,-3.6492,-3.6492,-3.6492,-3.6492,-3.6492,-3.6492,-3.6492,-3.6492,-3.6492,-3.6492,-3.6492,-3.6352,-3.6211,-3.6211,-3.6163,-3.6037,-3.6037,-3.6022,-3.6037,-3.5946,-3.5459,-3.4711,-3.3937,-3.3769,-3.3505,-3.3221,-3.4728,-3.5162,-3.4549,-3.4264,-3.3922,-3.3452,-3.3002,-3.2646,-3.2386,-3.2109,-3.1803,-3.1434,-3.1347,-3.1123,-3.0773,-3.0773,-3.0685,-3.052,-3.0444,-3.0444,-3.0533,-3.0971,-3.1498,-3.2027,-3.2233,-3.273,-3.3652,-3.4136,-3.4397,-3.4384,-3.3953,-3.3705,-3.3679,-3.326,-3.304,-3.3146,-3.3133,-3.3316,-3.3584,-3.332,-3.3098,-3.3444,-3.2983,-3.264,-3.2869,-3.2844,-3.2846,-3.286,-3.2931,-3.3002,-3.3382,-3.3772,-3.398,-3.398,-3.4048,-3.4034,-3.4103,-3.402,-3.4088,-3.4034,-3.4088,-3.4157,-3.4264,-3.4264,-3.4332,-3.4481,-3.4481,-3.4399,-3.4264,-3.4196,-3.4196,-3.4142,-3.4074,-3.4059,-3.4045,-3.3614,-3.3303,-3.8876,-3.8544,-3.8262,-3.8008,-3.7759,-3.7329,-3.6968,-3.6662,-3.6461,-3.6414,-3.6492,-3.6492,-3.6492,-3.6492,-3.6414,-3.6352,-3.6352,-3.6226,-3.6241,-3.6241,-3.6241,-3.6241,-3.6196,-3.5782,-3.5552,-3.5536,-3.5109,-3.4896,-3.4896,-3.4772,-3.4648,-3.4618,-3.413,-3.3645,-3.3143,-3.3051,-3.2864,-3.2576,-3.3739,-3.4076,-3.3624,-3.3614,-3.3437,-3.3016,-3.266,-3.23,-3.2036,-3.173,-3.1421,-3.1123,-3.1061,-3.0849,-3.0533,-3.0533,-3.052,-3.0368,-3.0368,-3.0368,-3.0368,-3.0599,-3.0855,-3.1189,-3.1419,-3.1768,-3.229,-3.282,-3.3226,-3.332,-3.3073,-3.3023,-3.3104,-3.2855,-3.2647,-3.2319,-3.2462,-3.2484,-3.2421,-3.2244,-3.2219,-3.2327,-3.2258,-3.2155,-3.2241,-3.2431,-3.2561,-3.2561,-3.2632,-3.2789,-3.2945,-3.3325,-3.3733,-3.3842,-3.3728,-3.3728,-3.3868,-3.3896,-3.3896,-3.3896,-3.3896,-3.398,-3.402,-3.402,-3.4034,-3.4088,-3.4157,-3.4088,-3.4005,-3.402,-3.3951,-3.3922,-3.3554,-3.3382,-3.3129,-3.2305,-3.1994,-3.86,-3.8335,-3.7992,-3.7743,-3.7539,-3.7121,-3.68,-3.66,-3.6336,-3.6274,-3.6367,-3.6367,-3.6352,-3.6367,-3.6211,-3.6148,-3.6133,-3.5885,-3.5746,-3.573,-3.5594,-3.5533,-3.5488,-3.4987,-3.4697,-3.4575,-3.4106,-3.3804,-3.3728,-3.3484,-3.3287,-3.3106,-3.2815,-3.2507,-3.2251,-3.2174,-3.1985,-3.1739,-3.2349,-3.2606,-3.2563,-3.2651,-3.2528,-3.2162,-3.1956,-3.1688,-3.1456,-3.1281,-3.1061,-3.0898,-3.0685,-3.0546,-3.0368,-3.0292,-3.0216,-3.0203,-3.0139,-3.0126,-3.0126,-3.0139,-3.0126,-3.0139,-3.052,-3.0696,-3.0735,-3.1156,-3.1791,-3.2236,-3.221,-3.2186,-3.2319,-3.2267,-3.2046,-3.1628,-3.1716,-3.1711,-3.1439,-3.1447,-3.1522,-3.1609,-3.1743,-3.183,-3.189,-3.2082,-3.2214,-3.2286,-3.2431,-3.2489,-3.2646,-3.2899,-3.3212,-3.3396,-3.3394,-3.3296,-3.3563,-3.3591,-3.3591,-3.3675,-3.3703,-3.3633,-3.3675,-3.3689,-3.3758,-3.3716,-3.3587,-3.3488,-3.3502,-3.3291,-3.3192,-3.3024,-3.2617,-3.2277,-3.1833,-3.1184,-3.0689,-3.8391,-3.8335,-3.7934,-3.7464,-3.706,-3.6846,-3.6538,-3.6274,-3.6196,-3.6163,-3.6006,-3.6037,-3.6006,-3.6037,-3.6022,-3.6006,-3.5961,-3.5336,-3.5078,-3.5002,-3.4455,-3.4167,-3.4167,-3.4001,-3.3849,-3.3651,-3.3423,-3.3196,-3.3043,-3.301,-3.265,-3.1995,-3.1827,-3.1351,-3.0661,-3.0268,-3.0021,-2.9848,-3.0183,-3.0769,-3.1551,-3.1182,-3.0788,-3.0596,-3.0575,-3.0481,-3.0335,-3.0563,-3.0685,-3.0444,-3.0432,-3.0368,-3.0152,-2.9921,-2.9767,-2.9496,-2.9353,-2.9209,-2.9209,-2.9209,-2.9287,-2.9209,-2.9349,-2.9386,-2.9386,-2.9568,-3.041,-3.157,-3.156,-3.1382,-3.1331,-3.1113,-3.0944,-3.0879,-3.1042,-3.1176,-3.1224,-3.1347,-3.1434,-3.1609,-3.1609,-3.1596,-3.1669,-3.1669,-3.1743,-3.195,-3.2023,-3.2082,-3.2359,-3.2417,-3.2503,-3.2775,-3.2747,-3.2818,-3.2846,-3.2832,-3.2917,-3.2917,-3.2973,-3.3016,-3.3101,-3.3017,-3.3059,-3.2959,-3.2833,-3.2537,-3.226,-3.1844,-3.1509,-3.1662,-3.1332,-3.096,-3.0394,-3.0066,-3.0038,-3.8278,-3.8107,-3.7669,-3.727,-3.6862,-3.6677,-3.6414,-3.618,-3.5581,-3.5241,-3.507,-3.4613,-3.4994,-3.5943,-3.5501,-3.5241,-3.518,-3.439,-3.398,-3.395,-3.3589,-3.3408,-3.3363,-3.2944,-3.272,-3.2599,-3.2182,-3.1869,-3.1718,-3.1521,-3.1206,-3.082,-3.0592,-3.034,-2.9913,-2.9637,-2.9373,-2.9149,-2.9141,-2.9258,-2.9465,-3.0052,-3.0158,-2.9767,-2.9795,-2.9614,-2.9365,-2.9722,-2.9806,-2.9593,-2.9885,-2.9844,-2.9521,-2.9456,-2.9378,-2.9209,-2.9131,-2.9143,-2.9143,-2.9143,-2.9143,-2.9143,-2.9143,-2.9143,-2.9143,-2.9197,-2.9576,-3.0124,-3.0454,-3.056,-3.0701,-3.0586,-3.0533,-3.052,-3.0596,-3.0748,-3.0911,-3.0911,-3.0999,-3.1224,-3.136,-3.1434,-3.1447,-3.1522,-3.1609,-3.1683,-3.1757,-3.1803,-3.1936,-3.2109,-3.2196,-3.2241,-3.23,-3.2516,-3.2632,-3.269,-3.269,-3.269,-3.2717,-3.2733,-3.2304,-3.1749,-3.1501,-3.1888,-3.1652,-3.1485,-3.1417,-3.1279,-3.0962,-3.0798,-3.0347,-2.9992,-2.9165,-2.8991,-2.8991,-3.7528,-3.7186,-3.6805,-3.6451,-3.6105,-3.5922,-3.5738,-3.5413,-3.4695,-3.425,-3.4017,-3.3461,-3.3946,-3.4946,-3.4508,-3.4235,-3.4083,-3.3344,-3.2924,-3.2894,-3.2608,-3.249,-3.2446,-3.1987,-3.1691,-3.1542,-3.119,-3.085,-3.0582,-3.0312,-3.0083,-2.9974,-2.9761,-2.956,-2.9401,-2.9184,-2.8944,-2.8597,-2.8379,-2.8131,-2.7974,-2.8675,-2.9056,-2.8817,-2.889,-2.8757,-2.8329,-2.8851,-2.8935,-2.855,-2.9087,-2.9232,-2.8831,-2.8888,-2.8907,-2.8816,-2.8749,-2.8736,-2.8749,-2.8749,-2.8749,-2.8736,-2.8749,-2.8749,-2.8816,-2.8895,-2.8895,-2.901,-2.9456,-2.9934,-2.9985,-3.0139,-3.0216,-3.0228,-3.0292,-3.0444,-3.0622,-3.0609,-3.0685,-3.0836,-3.0973,-3.1123,-3.1198,-3.1286,-3.1447,-3.1522,-3.1522,-3.1535,-3.1609,-3.1783,-3.1944,-3.183,-3.195,-3.2155,-3.2503,-3.2503,-3.2547,-3.2368,-3.2327,-3.2246,-3.1487,-3.0539,-3.0239,-3.0705,-3.0487,-3.0364,-3.0269,-3.0255,-3.0158,-3.0062,-2.967,-2.9143,-2.8568,-2.8354,-2.8197,-3.5752,-3.5505,-3.5018,-3.4806,-3.4568,-3.4421,-3.4091,-3.377,-3.3559,-3.3391,-3.3066,-3.2978,-3.3037,-3.3096,-3.3022,-3.3066,-3.2978,-3.2402,-3.2046,-3.1987,-3.1485,-3.1191,-3.1161,-3.1132,-3.1013,-3.0758,-3.07,-3.0462,-3.0158,-2.9946,-2.9761,-2.9588,-2.9387,-2.9184,-2.8867,-2.8702,-2.8457,-2.8105,-2.7789,-2.7456,-2.7335,-2.7062,-2.7139,-2.742,-2.7752,-2.7742,-2.7452,-2.7846,-2.7988,-2.7582,-2.8049,-2.8292,-2.8098,-2.8391,-2.8351,-2.8042,-2.7962,-2.7962,-2.7962,-2.8042,-2.8042,-2.7962,-2.803,-2.7962,-2.8042,-2.8351,-2.851,-2.851,-2.8907,-2.9131,-2.9209,-2.9534,-2.9779,-2.9856,-3.0152,-3.0292,-3.0368,-3.0381,-3.0368,-3.0457,-3.0609,-3.0836,-3.0986,-3.0986,-3.1136,-3.1286,-3.1347,-3.136,-3.1522,-3.1495,-3.1569,-3.1569,-3.1542,-3.1589,-3.2069,-3.2092,-3.1888,-3.1629,-3.1607,-3.1762,-3.0497,-2.9491,-2.9573,-2.9507,-2.9375,-2.9255,-2.9027,-2.8839,-2.8585,-2.8544,-2.8584,-2.8185,-2.8106,-2.8106,-2.8013,-3.5419,-3.5023,-3.4694,-3.446,-3.4268,-3.391,-3.3668,-3.344,-3.2778,-3.2416,-3.2159,-3.1684,-3.1372,-3.1297,-3.1188,-3.1605,-3.2252,-3.1496,-3.1097,-3.1068,-3.0638,-3.0476,-3.0476,-3.0476,-3.0416,-3.0294,-3.0294,-3.0097,-2.9803,-2.9477,-2.9275,-2.9058,-2.8958,-2.8688,-2.8481,-2.8235,-2.7973,-2.7656,-2.731,-2.704,-2.6782,-2.6508,-2.6371,-2.6396,-2.6697,-2.6671,-2.6404,-2.6769,-2.6895,-2.6602,-2.7049,-2.7344,-2.7472,-2.7905,-2.8042,-2.7881,-2.7881,-2.7881,-2.7881,-2.7881,-2.7881,-2.7881,-2.7881,-2.7881,-2.7881,-2.803,-2.8122,-2.8122,-2.8203,-2.8363,-2.8431,-2.8907,-2.9378,-2.9378,-2.9534,-2.9754,-2.9921,-3.0011,-3.0088,-3.0368,-3.0444,-3.0609,-3.0773,-3.0773,-3.0911,-3.1061,-3.1136,-3.1136,-3.1211,-3.1259,-3.1294,-3.1341,-3.1176,-3.0996,-3.1154,-3.1227,-3.1066,-3.0734,-3.0618,-3.0389,-2.9562,-2.8862,-2.8715,-2.8785,-2.8559,-2.8452,-2.8399,-2.8359,-2.7947,-2.7868,-2.7868,-2.7815,-2.7749,-2.7762,-2.7669,-3.4478,-3.4069,-3.3856,-3.3551,-3.3302,-3.2961,-3.2796,-3.257,-3.1883,-3.145,-3.118,-3.0696,-3.0341,-3.0219,-3.0097,-3.0557,-3.127,-3.0696,-3.0462,-3.0401,-3.0233,-3.0111,-3.0111,-3.0111,-3.0036,-2.9988,-2.9913,-2.9741,-2.9415,-2.9099,-2.8908,-2.8753,-2.8522,-2.8314,-2.8039,-2.7776,-2.7523,-2.7175,-2.6905,-2.6633,-2.622,-2.6013,-2.5804,-2.5676,-2.5688,-2.5758,-2.5688,-2.5875,-2.5853,-2.578,-2.6,-2.6358,-2.6555,-2.7011,-2.7232,-2.7232,-2.7383,-2.7464,-2.7476,-2.7476,-2.7476,-2.7464,-2.7476,-2.7476,-2.7557,-2.7638,-2.7708,-2.7788,-2.7881,-2.7881,-2.7962,-2.8363,-2.8749,-2.8907,-2.9052,-2.9209,-2.9559,-2.9546,-2.9767,-3.0062,-3.0228,-3.0381,-3.0533,-3.0596,-3.0685,-3.0911,-3.0911,-3.0911,-3.0973,-3.0952,-3.0921,-3.0869,-3.0467,-3.013,-2.9989,-2.987,-3.0024,-2.9774,-2.9968,-2.9577,-2.8985,-2.8317,-2.8012,-2.8027,-2.7947,-2.7881,-2.7881,-2.7881,-2.7736,-2.7603,-2.7469,-2.7429,-2.7429,-2.7361,-2.7217,-3.2765,-3.2505,-3.2262,-3.2103,-3.1775,-3.1674,-3.1279,-3.1013,-3.0775,-3.0609,-3.0441,-3.0172,-3.0097,-3.0111,-3.005,-3.014,-3.0168,-3.0125,-3.0111,-3.0111,-3.005,-3.005,-3.005,-3.005,-2.9898,-2.9761,-2.9526,-2.9303,-2.9099,-2.878,-2.8587,-2.8522,-2.821,-2.7868,-2.7536,-2.7456,-2.7108,-2.6633,-2.6414,-2.6151,-2.5676,-2.5465,-2.5253,-2.5016,-2.4909,-2.4992,-2.5241,-2.5111,-2.4956,-2.4884,-2.5063,-2.5315,-2.5492,-2.5769,-2.5833,-2.6026,-2.6363,-2.6599,-2.6644,-2.6715,-2.6727,-2.6727,-2.6644,-2.6809,-2.6974,-2.7126,-2.7267,-2.7441,-2.7626,-2.78,-2.78,-2.7962,-2.8122,-2.8431,-2.8828,-2.8961,-2.9052,-2.9131,-2.93,-2.9702,-2.9934,-3.0152,-3.0292,-3.0368,-3.0444,-3.0622,-3.062,-3.0644,-3.0716,-3.0438,-3.0163,-3.0032,-2.9712,-2.9298,-2.8821,-2.8468,-2.8686,-2.8904,-2.9241,-2.9228,-2.8505,-2.7841,-2.7788,-2.7789,-2.7669,-2.7603,-2.7482,-2.7482,-2.7348,-2.7214,-2.7159,-2.7134,-2.7134,-2.7095,-2.6819,-3.2523,-3.2342,-3.1879,-3.1667,-3.1495,-3.1161,-3.0866,-3.0628,-3.0507,-3.0341,-3.0158,-2.996,-2.9898,-2.9884,-2.9789,-2.9727,-2.9602,-2.9602,-2.9727,-2.9851,-2.9789,-2.9727,-2.9665,-2.9602,-2.9526,-2.9275,-2.9099,-2.8908,-2.8729,-2.8509,-2.8235,-2.7855,-2.7736,-2.7536,-2.7146,-2.685,-2.6552,-2.6414,-2.5861,-2.5523,-2.5394,-2.4981,-2.4694,-2.4622,-2.4334,-2.4261,-2.4322,-2.4394,-2.4334,-2.42,-2.4118,-2.4276,-2.4686,-2.5116,-2.5464,-2.5788,-2.5945,-2.6225,-2.6517,-2.6561,-2.6561,-2.6561,-2.6561,-2.6633,-2.6727,-2.6715,-2.6787,-2.688,-2.7056,-2.7231,-2.7231,-2.7464,-2.7708,-2.8042,-2.8351,-2.8578,-2.8669,-2.8895,-2.9131,-2.93,-2.9521,-2.9677,-2.9921,-3.005,-3.0152,-3.0329,-3.0098,-2.9941,-3.0073,-2.9744,-2.9405,-2.9425,-2.9,-2.8621,-2.8347,-2.8085,-2.8035,-2.8197,-2.8491,-2.8718,-2.8,-2.7709,-2.7643,-2.751,-2.7456,-2.7323,-2.7146,-2.7079,-2.7011,-2.6973,-2.6934,-2.6934,-2.6867,-2.662,-2.6286,-3.2287,-3.2048,-3.1652,-3.1379,-3.1204,-3.0881,-3.0642,-3.0447,-3.0251,-3.0068,-2.996,-2.9837,-2.9713,-2.9651,-2.954,-2.9415,-2.9289,-2.9289,-2.9401,-2.9526,-2.9477,-2.9352,-2.9289,-2.9289,-2.9162,-2.8908,-2.878,-2.8587,-2.8406,-2.8118,-2.7842,-2.7536,-2.7335,-2.7053,-2.6794,-2.6508,-2.6277,-2.6,-2.5511,-2.517,-2.4897,-2.455,-2.4273,-2.4116,-2.3824,-2.3677,-2.3593,-2.3593,-2.3677,-2.3593,-2.3446,-2.3378,-2.3687,-2.4062,-2.448,-2.4766,-2.5139,-2.5469,-2.5755,-2.5931,-2.6052,-2.6052,-2.6229,-2.6229,-2.6313,-2.6396,-2.6479,-2.6644,-2.6727,-2.6798,-2.6809,-2.6962,-2.729,-2.7476,-2.7869,-2.8111,-2.8283,-2.8669,-2.8816,-2.8895,-2.9118,-2.9266,-2.9285,-2.9453,-2.9492,-2.9529,-2.9298,-2.9142,-2.9233,-2.9015,-2.8866,-2.8677,-2.8343,-2.8164,-2.8046,-2.7824,-2.7589,-2.7602,-2.7721,-2.7853,-2.7629,-2.759,-2.7523,-2.739,-2.7268,-2.7066,-2.6943,-2.693,-2.6863,-2.6786,-2.6477,-2.6206,-2.6029,-2.5813,-2.5519,-3.2007,-3.1537,-3.148,-3.1204,-3.0821,-3.0642,-3.0447,-3.0251,-3.0007,-2.9808,-2.9761,-2.9665,-2.9477,-2.9415,-2.9352,-2.9226,-2.9099,-2.9099,-2.9035,-2.9099,-2.9035,-2.9022,-2.9035,-2.9022,-2.8844,-2.8587,-2.8522,-2.8406,-2.8079,-2.7736,-2.7469,-2.7323,-2.6918,-2.6577,-2.6358,-2.622,-2.5804,-2.537,-2.5229,-2.4826,-2.4261,-2.4116,-2.397,-2.3604,-2.3372,-2.315,-2.2927,-2.2777,-2.2841,-2.315,-2.2927,-2.2713,-2.2574,-2.2839,-2.3171,-2.3332,-2.3966,-2.4367,-2.4591,-2.5016,-2.5262,-2.5251,-2.5505,-2.5644,-2.5812,-2.5979,-2.6146,-2.6396,-2.6479,-2.6561,-2.6561,-2.6633,-2.6809,-2.6974,-2.7545,-2.7869,-2.7962,-2.8283,-2.8395,-2.8426,-2.8743,-2.8807,-2.8369,-2.8422,-2.8425,-2.8287,-2.8293,-2.8337,-2.8451,-2.8299,-2.8092,-2.789,-2.778,-2.7782,-2.7717,-2.7745,-2.7469,-2.7469,-2.7469,-2.7469,-2.7469,-2.7469,-2.7403,-2.7281,-2.7095,-2.6905,-2.668,-2.6523,-2.6228,-2.5858,-2.5552,-2.5259,-2.5109,-2.5036,-2.4847,-3.1811,-3.1495,-3.1278,-3.0999,-3.0642,-3.0433,-3.019,-2.9931,-2.987,-2.9699,-2.9526,-2.9463,-2.9352,-2.9226,-2.9162,-2.9035,-2.8908,-2.8908,-2.8844,-2.8702,-2.8573,-2.8624,-2.8651,-2.8573,-2.8444,-2.8276,-2.821,-2.8,-2.7669,-2.7523,-2.7188,-2.6701,-2.6564,-2.6208,-2.5873,-2.5664,-2.53,-2.4874,-2.4611,-2.4322,-2.397,-2.3519,-2.3298,-2.315,-2.2852,-2.2553,-2.2327,-2.2035,-2.2101,-2.2553,-2.2553,-2.2478,-2.2338,-2.2476,-2.2677,-2.3006,-2.325,-2.3647,-2.3987,-2.4413,-2.4647,-2.4711,-2.4977,-2.5285,-2.538,-2.5454,-2.5633,-2.5812,-2.5979,-2.6135,-2.6313,-2.6434,-2.661,-2.6891,-2.7197,-2.7545,-2.7834,-2.7962,-2.7912,-2.7613,-2.7843,-2.7722,-2.75,-2.7531,-2.7668,-2.7618,-2.7491,-2.7482,-2.7523,-2.7494,-2.7276,-2.7336,-2.7304,-2.7333,-2.7429,-2.7496,-2.7469,-2.7469,-2.7469,-2.7469,-2.7469,-2.739,-2.7268,-2.7146,-2.6777,-2.6536,-2.6123,-2.5841,-2.5435,-2.5121,-2.4983,-2.4845,-2.4732,-2.4594,-2.4305,-3.1524,-3.1278,-3.0999,-3.0762,-3.0447,-3.019,-3.0007,-2.9808,-2.9699,-2.9526,-2.9415,-2.9289,-2.9162,-2.8986,-2.8972,-2.883,-2.8573,-2.8573,-2.8522,-2.8406,-2.8262,-2.8314,-2.8327,-2.8262,-2.8131,-2.8,-2.7868,-2.7669,-2.7403,-2.7188,-2.6769,-2.6427,-2.6151,-2.5886,-2.5523,-2.5182,-2.4897,-2.4527,-2.4105,-2.3824,-2.3519,-2.3075,-2.2777,-2.2628,-2.2327,-2.2035,-2.1731,-2.1512,-2.1578,-2.1883,-2.1959,-2.1883,-2.1883,-2.1873,-2.2018,-2.2289,-2.2455,-2.2704,-2.3043,-2.345,-2.37,-2.3794,-2.4232,-2.4598,-2.4766,-2.4978,-2.5285,-2.5464,-2.5549,-2.5619,-2.5579,-2.5743,-2.5876,-2.597,-2.6337,-2.6748,-2.7277,-2.7158,-2.6936,-2.6835,-2.6884,-2.6947,-2.6497,-2.6698,-2.6785,-2.6735,-2.6584,-2.6685,-2.6751,-2.659,-2.6645,-2.6794,-2.7011,-2.7146,-2.7281,-2.7335,-2.7469,-2.7456,-2.7469,-2.7469,-2.7403,-2.7255,-2.7108,-2.6867,-2.6485,-2.611,-2.5703,-2.5297,-2.4971,-2.472,-2.4582,-2.4292,-2.4104,-2.4016,-2.3742,-3.1336,-3.1028,-3.0747,-3.0447,-3.0251,-2.9946,-2.9808,-2.9761,-2.9526,-2.9415,-2.9289,-2.9162,-2.8972,-2.878,-2.878,-2.8573,-2.8287,-2.83,-2.8183,-2.8066,-2.8013,-2.8013,-2.7947,-2.8,-2.7868,-2.7656,-2.7536,-2.7335,-2.7121,-2.6633,-2.6427,-2.6151,-2.5816,-2.5465,-2.5182,-2.4909,-2.4562,-2.4116,-2.374,-2.3383,-2.3001,-2.2703,-2.2402,-2.2176,-2.1721,-2.1502,-2.1205,-2.1051,-2.1128,-2.1349,-2.1195,-2.1282,-2.1282,-2.1205,-2.1302,-2.1363,-2.1713,-2.1916,-2.1958,-2.2372,-2.2554,-2.2706,-2.3361,-2.3764,-2.3909,-2.4294,-2.4735,-2.4787,-2.4946,-2.4847,-2.4876,-2.4796,-2.4924,-2.4992,-2.506,-2.5397,-2.6016,-2.6078,-2.59,-2.5907,-2.606,-2.5977,-2.5858,-2.5779,-2.5877,-2.6008,-2.592,-2.6049,-2.6235,-2.632,-2.644,-2.6589,-2.6794,-2.7011,-2.7146,-2.7214,-2.7335,-2.739,-2.7403,-2.7403,-2.7281,-2.7121,-2.6867,-2.6616,-2.6215,-2.5703,-2.5209,-2.487,-2.4506,-2.4117,-2.3879,-2.3468,-2.3157,-2.3281,-2.317,-3.1176,-3.0836,-3.0642,-3.0401,-3.0158,-2.9898,-2.9761,-2.9665,-2.9477,-2.9289,-2.9162,-2.8972,-2.878,-2.8651,-2.8509,-2.8352,-2.83,-2.8118,-2.7934,-2.7669,-2.7603,-2.7482,-2.7348,-2.7469,-2.7469,-2.7281,-2.7146,-2.693,-2.6633,-2.6427,-2.6151,-2.5804,-2.5523,-2.5194,-2.4933,-2.4562,-2.4043,-2.3508,-2.3213,-2.2872,-2.2467,-2.2092,-2.1886,-2.1756,-2.1175,-2.0876,-2.0644,-2.042,-2.0186,-2.0333,-2.0809,-2.1128,-2.1128,-2.1138,-2.1128,-2.1158,-2.1198,-2.1366,-2.1436,-2.1679,-2.202,-2.206,-2.2493,-2.2848,-2.292,-2.3186,-2.3505,-2.3617,-2.378,-2.4055,-2.4196,-2.435,-2.4355,-2.4492,-2.4382,-2.4381,-2.4822,-2.5279,-2.5352,-2.5263,-2.5298,-2.5284,-2.4891,-2.5013,-2.5123,-2.5194,-2.5324,-2.5535,-2.5746,-2.6037,-2.6176,-2.6314,-2.6533,-2.6739,-2.6863,-2.6998,-2.7214,-2.7268,-2.7268,-2.7268,-2.7146,-2.6845,-2.6595,-2.6257,-2.587,-2.5375,-2.4808,-2.4317,-2.3942,-2.3529,-2.3206,-2.2997,-2.2861,-2.2751,-2.2678,-3.0999,-3.0702,-3.0447,-3.0219,-2.996,-2.9761,-2.9651,-2.9477,-2.9352,-2.9162,-2.8908,-2.8702,-2.8509,-2.8444,-2.8314,-2.8183,-2.8039,-2.7789,-2.7549,-2.7335,-2.7281,-2.7066,-2.6782,-2.6918,-2.693,-2.6956,-2.6794,-2.6577,-2.6427,-2.6151,-2.5804,-2.5465,-2.53,-2.4969,-2.4562,-2.4166,-2.3604,-2.2893,-2.2505,-2.2135,-2.1576,-2.125,-2.1022,-2.0903,-2.0517,-2.0255,-2.0245,-2.0098,-1.9951,-2.002,-2.0333,-2.0576,-2.0566,-2.0576,-2.0566,-2.0576,-2.0576,-2.0576,-2.0654,-2.085,-2.1007,-2.1174,-2.166,-2.199,-2.222,-2.2473,-2.2778,-2.293,-2.3093,-2.3363,-2.3498,-2.3522,-2.3644,-2.3733,-2.3634,-2.3621,-2.3891,-2.4382,-2.4612,-2.4488,-2.4579,-2.4696,-2.4583,-2.4585,-2.4718,-2.4992,-2.5111,-2.5324,-2.5465,-2.5676,-2.5898,-2.605,-2.6327,-2.6465,-2.6577,-2.6782,-2.7011,-2.7079,-2.7146,-2.6998,-2.6863,-2.6608,-2.626,-2.5873,-2.5464,-2.4935,-2.4393,-2.3891,-2.3492,-2.3218,-2.2935,-2.2763,-2.2616,-2.2555,-2.242,-3.0821,-3.0507,-3.0233,-2.9974,-2.9822,-2.9651,-2.9554,-2.9415,-2.9162,-2.8908,-2.8716,-2.843,-2.83,-2.8235,-2.8066,-2.7855,-2.7656,-2.739,-2.7134,-2.693,-2.693,-2.6645,-2.6427,-2.6358,-2.6521,-2.6752,-2.6521,-2.6302,-2.6082,-2.5791,-2.5465,-2.5229,-2.4909,-2.4495,-2.4112,-2.3648,-2.3028,-2.2204,-2.1728,-2.125,-2.0617,-2.0277,-2.0002,-1.9805,-1.9688,-1.962,-1.9561,-1.9568,-1.9662,-1.969,-1.9747,-1.9775,-1.9784,-1.9872,-1.9872,-1.9951,-2.002,-2.002,-2.0098,-2.0048,-2.0146,-2.0284,-2.0731,-2.1094,-2.1351,-2.176,-2.207,-2.2231,-2.2352,-2.2559,-2.2631,-2.2622,-2.2681,-2.2767,-2.2885,-2.3001,-2.3224,-2.3604,-2.3818,-2.3954,-2.4169,-2.4281,-2.4319,-2.4429,-2.4574,-2.4706,-2.4909,-2.5111,-2.5253,-2.5465,-2.5618,-2.584,-2.605,-2.627,-2.6383,-2.6569,-2.6812,-2.6777,-2.6815,-2.6659,-2.6473,-2.6013,-2.5671,-2.5401,-2.5008,-2.4469,-2.3942,-2.3479,-2.3144,-2.2873,-2.2726,-2.2555,-2.2432,-2.2359,-2.2173,-3.0642,-3.0326,-3.0158,-2.9974,-2.9761,-2.9526,-2.9415,-2.9352,-2.9035,-2.878,-2.8587,-2.8365,-2.8249,-2.8066,-2.7736,-2.7403,-2.7201,-2.6998,-2.685,-2.6577,-2.6508,-2.6302,-2.6107,-2.5955,-2.6037,-2.6037,-2.5968,-2.5828,-2.5594,-2.5382,-2.5087,-2.4791,-2.4178,-2.3699,-2.329,-2.2618,-2.1958,-2.1431,-2.0963,-2.0533,-2.0063,-1.9653,-1.9248,-1.8944,-1.8817,-1.8714,-1.8751,-1.8803,-1.8893,-1.8929,-1.9058,-1.9107,-1.9274,-1.959,-1.9756,-1.9784,-1.9863,-1.9784,-1.9784,-1.9863,-1.9942,-1.996,-2.0134,-2.0153,-2.0339,-2.0693,-2.1105,-2.1223,-2.1449,-2.1659,-2.1942,-2.2012,-2.2273,-2.2553,-2.2777,-2.2841,-2.3075,-2.3298,-2.3446,-2.3593,-2.3751,-2.397,-2.4127,-2.42,-2.4345,-2.449,-2.4622,-2.4838,-2.5052,-2.5253,-2.5465,-2.5618,-2.5828,-2.605,-2.6201,-2.6352,-2.6549,-2.6333,-2.6311,-2.6082,-2.5798,-2.5313,-2.4983,-2.4781,-2.448,-2.3992,-2.3504,-2.3033,-2.2837,-2.2678,-2.2494,-2.2371,-2.2333,-2.2221,-2.1999,-3.0582,-3.0205,-3.0111,-2.9913,-2.9713,-2.9477,-2.9352,-2.9226,-2.8908,-2.8651,-2.8444,-2.8249,-2.8066,-2.7802,-2.7536,-2.7121,-2.6782,-2.6658,-2.6508,-2.622,-2.6107,-2.6037,-2.5758,-2.5688,-2.5535,-2.5477,-2.5419,-2.5324,-2.5205,-2.4789,-2.4449,-2.4026,-2.3433,-2.2913,-2.2531,-2.1945,-2.114,-2.0652,-2.0219,-1.9766,-1.9124,-1.8676,-1.837,-1.819,-1.8128,-1.8026,-1.8006,-1.804,-1.8109,-1.8145,-1.8213,-1.8333,-1.8545,-1.8783,-1.9169,-1.9395,-1.9539,-1.9539,-1.9539,-1.9627,-1.9618,-1.9715,-1.9715,-1.9784,-1.9951,-2.0127,-2.0333,-2.0644,-2.0819,-2.1205,-2.1599,-2.1721,-2.2035,-2.2327,-2.2553,-2.2703,-2.2852,-2.299,-2.3139,-2.3298,-2.3497,-2.3717,-2.3886,-2.4043,-2.4127,-2.4273,-2.4406,-2.4587,-2.4719,-2.4826,-2.5025,-2.5153,-2.529,-2.5369,-2.5518,-2.574,-2.5942,-2.587,-2.5656,-2.5428,-2.5176,-2.4707,-2.4442,-2.4241,-2.3804,-2.3443,-2.3194,-2.2812,-2.2616,-2.2432,-2.2247,-2.2123,-2.2109,-2.2059,-2.1773,-3.0346,-3.0111,-3.0036,-2.9851,-2.954,-2.9415,-2.9226,-2.9035,-2.878,-2.8509,-2.8235,-2.8052,-2.7802,-2.7469,-2.7201,-2.6863,-2.6358,-2.6371,-2.6094,-2.5898,-2.5828,-2.5688,-2.5465,-2.5312,-2.511,-2.479,-2.4625,-2.4684,-2.4684,-2.4284,-2.37,-2.3167,-2.2708,-2.2128,-2.1556,-2.1094,-2.0477,-1.9965,-1.9486,-1.8871,-1.8046,-1.7703,-1.7537,-1.7314,-1.747,-1.7385,-1.7276,-1.7427,-1.748,-1.7516,-1.7539,-1.769,-1.7835,-1.7896,-1.8124,-1.8635,-1.8964,-1.9134,-1.9152,-1.9152,-1.9231,-1.9399,-1.9478,-1.9557,-1.9706,-1.9872,-2.0029,-2.0489,-2.0654,-2.0906,-2.1282,-2.1578,-2.1807,-2.2035,-2.2327,-2.2628,-2.2703,-2.2852,-2.2927,-2.3128,-2.3305,-2.343,-2.3565,-2.3897,-2.4043,-2.399,-2.4123,-2.4082,-2.4248,-2.4202,-2.4329,-2.456,-2.4647,-2.4579,-2.4748,-2.4843,-2.5065,-2.5144,-2.4946,-2.4746,-2.4456,-2.4129,-2.3904,-2.3617,-2.3393,-2.3059,-2.2776,-2.2592,-2.242,-2.2235,-2.2049,-2.1949,-2.1922,-2.1722,-2.1498,-2.9777,-3.0097,-2.987,-2.9637,-2.9373,-2.9142,-2.9008,-2.8753,-2.8454,-2.8235,-2.8066,-2.7723,-2.7456,-2.7188,-2.6701,-2.644,-2.6176,-2.605,-2.5779,-2.5521,-2.5368,-2.5204,-2.5052,-2.4933,-2.4449,-2.4061,-2.3804,-2.3793,-2.3746,-2.3526,-2.3133,-2.2457,-2.1688,-2.1016,-2.0769,-2.0126,-1.9343,-1.9111,-1.8572,-1.793,-1.7411,-1.7121,-1.6939,-1.6738,-1.6652,-1.6519,-1.6599,-1.672,-1.6925,-1.6952,-1.7094,-1.7269,-1.7273,-1.7348,-1.7348,-1.7679,-1.8144,-1.8772,-1.8727,-1.8834,-1.8931,-1.9082,-1.9082,-1.9161,-1.939,-1.9636,-1.9872,-2.0274,-2.0352,-2.0586,-2.0974,-2.1205,-2.1436,-2.17,-2.1962,-2.2339,-2.2563,-2.2399,-2.2505,-2.2567,-2.2644,-2.2882,-2.3128,-2.3565,-2.3886,-2.3811,-2.3796,-2.372,-2.3758,-2.3711,-2.3635,-2.3815,-2.3958,-2.3923,-2.3827,-2.3983,-2.4149,-2.4313,-2.4241,-2.4042,-2.3829,-2.3567,-2.3257,-2.2997,-2.285,-2.2689,-2.2481,-2.2347,-2.2235,-2.2111,-2.1851,-2.1824,-2.1733,-2.1509,-2.1221,-2.8512,-2.9026,-2.8834,-2.8581,-2.8293,-2.8138,-2.8098,-2.8094,-2.788,-2.7811,-2.7749,-2.7603,-2.7255,-2.6731,-2.6371,-2.6107,-2.5898,-2.5639,-2.5272,-2.4915,-2.4646,-2.4388,-2.407,-2.3758,-2.3433,-2.3294,-2.2891,-2.256,-2.248,-2.2287,-2.2015,-2.1553,-2.0841,-2.0236,-2.0023,-1.9389,-1.8906,-1.8482,-1.7862,-1.7392,-1.7107,-1.6821,-1.6612,-1.6333,-1.6132,-1.6,-1.5902,-1.5899,-1.5948,-1.5965,-1.6063,-1.6232,-1.6377,-1.6461,-1.6504,-1.6691,-1.7013,-1.7622,-1.8241,-1.8541,-1.8621,-1.8834,-1.8904,-1.9073,-1.9311,-1.9441,-1.9608,-1.9882,-2.0186,-2.0401,-2.0615,-2.0896,-2.1205,-2.1451,-2.1518,-2.1808,-2.2008,-2.1897,-2.188,-2.1941,-2.2073,-2.2254,-2.2369,-2.2517,-2.2868,-2.3115,-2.3026,-2.2994,-2.3121,-2.3212,-2.3167,-2.3114,-2.3173,-2.3171,-2.3062,-2.3069,-2.3206,-2.333,-2.3405,-2.3257,-2.3207,-2.296,-2.2776,-2.2604,-2.2493,-2.2357,-2.2173,-2.2111,-2.2061,-2.1925,-2.1726,-2.1635,-2.1533,-2.1244,-2.0967,-2.7311,-2.7698,-2.7839,-2.7734,-2.744,-2.723,-2.725,-2.7385,-2.7135,-2.6995,-2.6987,-2.6855,-2.6458,-2.6013,-2.5636,-2.5313,-2.5111,-2.4927,-2.4572,-2.4115,-2.3824,-2.3534,-2.3245,-2.289,-2.2594,-2.2343,-2.2026,-2.1632,-2.1219,-2.1008,-2.0908,-2.0653,-2.016,-1.9647,-1.9218,-1.8818,-1.8482,-1.7862,-1.7373,-1.7038,-1.6821,-1.6542,-1.6263,-1.5991,-1.5788,-1.5576,-1.5434,-1.5363,-1.5292,-1.53,-1.5325,-1.5491,-1.5657,-1.578,-1.5846,-1.598,-1.6246,-1.6674,-1.7252,-1.7735,-1.811,-1.832,-1.8478,-1.8587,-1.877,-1.9095,-1.9251,-1.9226,-1.9467,-1.9793,-2.0158,-2.0367,-2.0601,-2.0791,-2.0903,-2.1167,-2.1343,-2.1336,-2.1371,-2.1544,-2.162,-2.1461,-2.152,-2.1435,-2.1685,-2.216,-2.2252,-2.2264,-2.2409,-2.2587,-2.2476,-2.2362,-2.2455,-2.2524,-2.2471,-2.2406,-2.2445,-2.2543,-2.2629,-2.2702,-2.2764,-2.2702,-2.2567,-2.2432,-2.2247,-2.2061,-2.1937,-2.1874,-2.1812,-2.1663,-2.1537,-2.1446,-2.1267,-2.0978,-2.0711,-2.6304,-2.6283,-2.7185,-2.7384,-2.7221,-2.6963,-2.6722,-2.6633,-2.6162,-2.5952,-2.5933,-2.5409,-2.5071,-2.4772,-2.4516,-2.4226,-2.3996,-2.3747,-2.3558,-2.3332,-2.3127,-2.2854,-2.2513,-2.2207,-2.2004,-2.1487,-2.1174,-2.0698,-2.0303,-2.0029,-2.003,-2.0009,-1.956,-1.9285,-1.8875,-1.8405,-1.793,-1.7382,-1.7038,-1.6821,-1.6542,-1.6202,-1.5867,-1.5726,-1.5497,-1.5204,-1.5204,-1.5133,-1.5054,-1.5054,-1.5054,-1.5062,-1.5105,-1.5121,-1.5186,-1.5267,-1.5528,-1.5832,-1.6213,-1.6666,-1.6995,-1.724,-1.7596,-1.7921,-1.8176,-1.7965,-1.8145,-1.8555,-1.8807,-1.8947,-1.9123,-1.9331,-1.9821,-2.0169,-2.041,-2.0483,-2.0736,-2.0854,-2.0968,-2.1172,-2.1159,-2.1013,-2.0871,-2.0829,-2.1051,-2.152,-2.1721,-2.1729,-2.1697,-2.1747,-2.1696,-2.1689,-2.1753,-2.1855,-2.2032,-2.2049,-2.2185,-2.2247,-2.2309,-2.2432,-2.258,-2.2494,-2.2309,-2.2173,-2.1987,-2.1874,-2.1761,-2.1624,-2.1486,-2.14,-2.1348,-2.1181,-2.0926,-2.0571,-2.0377,-2.6233,-2.6113,-2.6217,-2.6242,-2.6128,-2.5813,-2.5783,-2.5795,-2.5445,-2.5224,-2.5116,-2.4859,-2.4484,-2.421,-2.4025,-2.3761,-2.3561,-2.3293,-2.296,-2.2561,-2.2281,-2.1921,-2.1574,-2.124,-2.0798,-2.0567,-2.027,-1.9972,-1.9647,-1.9396,-1.9264,-1.9198,-1.9075,-1.8808,-1.8405,-1.7852,-1.7373,-1.7107,-1.6821,-1.6542,-1.614,-1.5929,-1.5655,-1.5426,-1.4999,-1.4848,-1.4784,-1.4633,-1.4561,-1.4561,-1.4561,-1.4561,-1.4561,-1.4553,-1.4553,-1.4633,-1.4888,-1.5001,-1.5267,-1.5848,-1.6573,-1.696,-1.7212,-1.7402,-1.7638,-1.7775,-1.7952,-1.8202,-1.8286,-1.8432,-1.8746,-1.9004,-1.9355,-1.9693,-1.9839,-1.9878,-2.0056,-2.0239,-2.036,-2.0554,-2.0506,-2.0379,-2.0369,-2.0293,-2.0567,-2.0831,-2.1059,-2.1206,-2.1186,-2.1221,-2.1336,-2.1336,-2.1486,-2.1612,-2.1737,-2.1812,-2.1937,-2.1999,-2.2061,-2.2185,-2.2259,-2.2073,-2.1886,-2.1812,-2.1726,-2.1537,-2.1423,-2.1296,-2.1233,-2.1221,-2.1031,-2.0786,-2.0518,-2.0237,-2.0053,-2.6165,-2.5948,-2.5647,-2.5439,-2.5369,-2.5018,-2.4949,-2.4945,-2.4627,-2.4397,-2.423,-2.4,-2.3756,-2.3486,-2.3215,-2.2983,-2.2728,-2.2453,-2.2105,-2.1758,-2.1337,-2.0971,-2.0575,-2.0292,-2.0162,-1.9922,-1.966,-1.9341,-1.9274,-1.9008,-1.8808,-1.8674,-1.8664,-1.8405,-1.8066,-1.7451,-1.7028,-1.6821,-1.6482,-1.6202,-1.5876,-1.5584,-1.5363,-1.5062,-1.4713,-1.4569,-1.4425,-1.4274,-1.4201,-1.4209,-1.4137,-1.4137,-1.4137,-1.4137,-1.4065,-1.4137,-1.4209,-1.4353,-1.4711,-1.53,-1.6105,-1.6391,-1.649,-1.6802,-1.7158,-1.7313,-1.7334,-1.7515,-1.7769,-1.8052,-1.8269,-1.8381,-1.8708,-1.9004,-1.9083,-1.9219,-1.951,-1.9697,-1.9793,-1.9897,-1.9987,-2.014,-2.014,-2.0194,-2.0314,-2.0555,-2.0772,-2.0975,-2.1099,-2.1158,-2.1285,-2.1285,-2.1348,-2.1474,-2.1537,-2.16,-2.1675,-2.1824,-2.1886,-2.1824,-2.1824,-2.1635,-2.1572,-2.1549,-2.1411,-2.1273,-2.1094,-2.0914,-2.0978,-2.0967,-2.0786,-2.0529,-2.0324,-2.0053,-1.9922,-2.6071,-2.5674,-2.5536,-2.5369,-2.5188,-2.4791,-2.4474,-2.4217,-2.3837,-2.3457,-2.3059,-2.2615,-2.2428,-2.2303,-2.2107,-2.1853,-2.1626,-2.144,-2.1179,-2.0879,-2.0696,-2.0368,-2.014,-1.9922,-1.9736,-1.9539,-1.9274,-1.9075,-1.9008,-1.8674,-1.8347,-1.8144,-1.8076,-1.794,-1.7872,-1.7245,-1.683,-1.6542,-1.607,-1.5867,-1.5584,-1.5229,-1.4935,-1.4641,-1.4425,-1.4281,-1.4137,-1.3992,-1.392,-1.3912,-1.3912,-1.3912,-1.3912,-1.3912,-1.3985,-1.3992,-1.4057,-1.4129,-1.4225,-1.4896,-1.5336,-1.5618,-1.5855,-1.6019,-1.6183,-1.636,-1.659,-1.7008,-1.7049,-1.7274,-1.7426,-1.7643,-1.8046,-1.834,-1.8506,-1.8748,-1.9055,-1.9446,-1.9571,-1.9736,-1.9944,-2.0096,-2.0096,-2.0161,-2.0216,-2.0379,-2.0627,-2.0733,-2.0903,-2.1019,-2.1146,-2.1221,-2.1296,-2.1348,-2.1411,-2.14,-2.1474,-2.1624,-2.1635,-2.1572,-2.1509,-2.1498,-2.136,-2.1233,-2.1169,-2.1031,-2.0786,-2.0604,-2.0593,-2.0582,-2.0529,-2.0335,-2.0064,-1.9868,-1.9736,-2.6071,-2.5674,-2.5411,-2.5188,-2.4892,-2.4664,-2.439,-2.4054,-2.3497,-2.2969,-2.2494,-2.2259,-2.2073,-2.1824,-2.1561,-2.1296,-2.1158,-2.0914,-2.0669,-2.0313,-2.0183,-1.9998,-1.9791,-1.9539,-1.9341,-1.9208,-1.8875,-1.8549,-1.8337,-1.8212,-1.8008,-1.7735,-1.7461,-1.7245,-1.7176,-1.6821,-1.6542,-1.614,-1.5867,-1.5584,-1.5078,-1.4792,-1.4569,-1.4281,-1.4072,-1.4008,-1.3863,-1.371,-1.3557,-1.3557,-1.3477,-1.3404,-1.3404,-1.3477,-1.3557,-1.3557,-1.3702,-1.4,-1.4137,-1.4505,-1.4856,-1.5141,-1.5426,-1.5638,-1.6061,-1.6202,-1.6412,-1.6612,-1.676,-1.7047,-1.7273,-1.742,-1.7802,-1.8144,-1.8319,-1.858,-1.8906,-1.9372,-1.9615,-1.9747,-1.9878,-2.002,-2.0085,-2.0085,-2.0151,-2.0216,-2.041,-2.0669,-2.0839,-2.0892,-2.0944,-2.1158,-2.1233,-2.1221,-2.1285,-2.121,-2.121,-2.1296,-2.1308,-2.1308,-2.1233,-2.1233,-2.1106,-2.0914,-2.085,-2.0797,-2.0604,-2.0335,-2.0205,-2.0129,-2.014,-2.0074,-1.9933,-1.9671,-1.9473,-2.5948,-2.5564,-2.5286,-2.5005,-2.4734,-2.4505,-2.4157,-2.3747,-2.3198,-2.2665,-2.2247,-2.2073,-2.1812,-2.1498,-2.1233,-2.0903,-2.0828,-2.0582,-2.0335,-1.9977,-1.9781,-1.9584,-1.933,-1.9075,-1.8885,-1.8741,-1.8539,-1.8212,-1.792,-1.7872,-1.7598,-1.7254,-1.6839,-1.6621,-1.6482,-1.6272,-1.6132,-1.5797,-1.5513,-1.5078,-1.4713,-1.4497,-1.4281,-1.4072,-1.3863,-1.3645,-1.3499,-1.3346,-1.3112,-1.3032,-1.2952,-1.2886,-1.2959,-1.3046,-1.3119,-1.3193,-1.3339,-1.371,-1.4,-1.4209,-1.4569,-1.4927,-1.5204,-1.5568,-1.585,-1.6061,-1.6263,-1.6473,-1.6691,-1.6899,-1.7176,-1.7314,-1.7598,-1.794,-1.8279,-1.8539,-1.8741,-1.9208,-1.9615,-1.9681,-1.9878,-2.002,-2.0085,-2.0085,-2.0151,-2.0151,-2.0216,-2.0464,-2.0722,-2.0775,-2.0828,-2.0967,-2.1042,-2.0967,-2.0967,-2.0978,-2.0978,-2.1042,-2.1042,-2.1053,-2.0914,-2.0903,-2.0711,-2.0593,-2.0593,-2.054,-2.0335,-2.014,-2.0064,-1.9868,-1.9802,-1.9736,-1.9736,-1.9454,-1.9117,-2.5757,-2.5439,-2.5131,-2.4835,-2.4549,-2.4157,-2.3688,-2.3078,-2.2787,-2.2494,-2.2123,-2.1824,-2.1486,-2.1221,-2.0955,-2.0635,-2.0237,-2.0107,-1.9857,-1.9605,-1.933,-1.9131,-1.8931,-1.8684,-1.8472,-1.8269,-1.8076,-1.7872,-1.7647,-1.7382,-1.7185,-1.6839,-1.6342,-1.614,-1.5929,-1.5711,-1.5596,-1.5409,-1.5051,-1.4609,-1.43,-1.4063,-1.3795,-1.3573,-1.3366,-1.315,-1.3006,-1.2869,-1.2753,-1.2774,-1.2722,-1.283,-1.2858,-1.2886,-1.2886,-1.2973,-1.3119,-1.3411,-1.371,-1.3928,-1.4209,-1.4569,-1.4927,-1.5213,-1.5568,-1.5921,-1.6202,-1.6342,-1.6551,-1.6821,-1.7097,-1.7314,-1.7529,-1.7872,-1.8202,-1.8472,-1.8617,-1.9019,-1.9483,-1.9681,-1.9944,-2.0085,-2.0085,-2.0085,-2.0085,-2.0151,-2.0151,-2.0216,-2.0475,-2.0691,-2.0744,-2.0722,-2.0786,-2.0722,-2.0722,-2.0786,-2.0797,-2.0862,-2.0873,-2.0809,-2.0733,-2.0582,-2.0453,-2.0388,-2.0399,-2.027,-2.014,-2.0009,-1.9868,-1.9726,-1.9465,-1.9348,-1.9295,-1.8986,-1.8741,-2.5674,-2.53,-2.5005,-2.462,-2.4171,-2.3628,-2.321,-2.2909,-2.2555,-2.2135,-2.1835,-2.1498,-2.1221,-2.0967,-2.0495,-2.0302,-1.9977,-1.9726,-1.9473,-1.9208,-1.8942,-1.8741,-1.8539,-1.8279,-1.8056,-1.7852,-1.7657,-1.7461,-1.7107,-1.6839,-1.6491,-1.607,-1.5929,-1.5647,-1.5325,-1.4895,-1.4898,-1.4757,-1.4425,-1.4089,-1.3715,-1.3337,-1.3075,-1.2822,-1.269,-1.2473,-1.2403,-1.2249,-1.2102,-1.2074,-1.1914,-1.1961,-1.2206,-1.237,-1.2476,-1.2879,-1.3119,-1.3266,-1.3419,-1.371,-1.3977,-1.4243,-1.4625,-1.4999,-1.5426,-1.578,-1.6132,-1.6272,-1.6482,-1.6682,-1.7038,-1.7254,-1.7461,-1.7735,-1.8066,-1.8482,-1.8684,-1.9085,-1.9483,-1.9747,-1.9944,-2.0085,-2.0085,-2.0085,-2.0085,-2.0085,-2.0118,-2.0063,-2.0172,-2.0431,-2.0573,-2.054,-2.0518,-2.0442,-2.0593,-2.0733,-2.0733,-2.0733,-2.068,-2.0616,-2.054,-2.0388,-2.0248,-2.0183,-2.0194,-2.0074,-2.0009,-1.9802,-1.966,-1.938,-1.9165,-1.8963,-1.8816,-1.8511,-1.826,-2.5522,-2.5174,-2.4835,-2.439,-2.3806,-2.3271,-2.2909,-2.2604,-2.2309,-2.1949,-2.1498,-2.1296,-2.0967,-2.0571,-2.0237,-1.9977,-1.9649,-1.9396,-1.9142,-1.8808,-1.8607,-1.8405,-1.8144,-1.7872,-1.7666,-1.7451,-1.7235,-1.7038,-1.663,-1.6281,-1.5929,-1.5718,-1.5505,-1.5114,-1.4763,-1.4321,-1.3956,-1.3847,-1.3623,-1.3401,-1.3005,-1.2696,-1.2434,-1.2158,-1.1948,-1.188,-1.1812,-1.1676,-1.1546,-1.156,-1.143,-1.1496,-1.169,-1.1844,-1.2004,-1.2338,-1.2558,-1.2692,-1.2848,-1.3292,-1.3622,-1.3976,-1.4331,-1.4848,-1.5213,-1.563,-1.5921,-1.6202,-1.6403,-1.6612,-1.6899,-1.7185,-1.7323,-1.7529,-1.8008,-1.8414,-1.8818,-1.9218,-1.955,-1.9813,-1.9944,-2.0085,-2.0085,-2.0074,-1.9976,-1.9867,-1.9703,-1.9594,-1.9736,-1.9986,-2.0257,-2.0346,-2.0248,-2.0215,-2.0366,-2.0506,-2.0475,-2.041,-2.041,-2.0346,-2.027,-2.0205,-2.0129,-2.0064,-1.9998,-1.9868,-1.9813,-1.9594,-1.9431,-1.911,-1.8751,-1.849,-1.8229,-1.7853,-1.7646,-2.5369,-2.5118,-2.4677,-2.4041,-2.3403,-2.2969,-2.2604,-2.2185,-2.2061,-2.18,-2.1296,-2.1094,-2.07,-2.0237,-1.9977,-1.966,-1.9264,-1.9008,-1.8741,-1.8405,-1.8144,-1.794,-1.7735,-1.7608,-1.7254,-1.6978,-1.676,-1.6551,-1.6202,-1.585,-1.5551,-1.5401,-1.4846,-1.4473,-1.4032,-1.3607,-1.3195,-1.2968,-1.2751,-1.2535,-1.2453,-1.2325,-1.2116,-1.1864,-1.1708,-1.158,-1.1519,-1.1404,-1.1295,-1.1281,-1.1268,-1.1242,-1.1376,-1.1463,-1.1614,-1.1772,-1.1985,-1.2199,-1.2462,-1.287,-1.3229,-1.363,-1.4089,-1.4457,-1.4776,-1.535,-1.5771,-1.6132,-1.6333,-1.6542,-1.683,-1.7185,-1.7461,-1.7666,-1.8008,-1.8247,-1.8461,-1.883,-1.9116,-1.9372,-1.951,-1.9659,-1.9659,-1.9604,-1.9517,-1.9408,-1.9321,-1.9168,-1.9222,-1.9432,-1.9637,-1.9845,-1.9899,-1.9845,-2.0018,-2.0116,-2.0194,-2.0151,-2.0151,-2.0151,-2.0216,-2.014,-2.0009,-1.9933,-1.9802,-1.9671,-1.9605,-1.9302,-1.9057,-1.8762,-1.8385,-1.8009,-1.7625,-1.7324,-1.7077,-2.5257,-2.4835,-2.4028,-2.345,-2.3078,-2.2604,-2.2173,-2.18,-2.1549,-2.1348,-2.1094,-2.0624,-2.0291,-2.0031,-1.9584,-1.9264,-1.8998,-1.8607,-1.8279,-1.8008,-1.7735,-1.7461,-1.7254,-1.7116,-1.6769,-1.6551,-1.6272,-1.6053,-1.5649,-1.5296,-1.4923,-1.4555,-1.4104,-1.3793,-1.333,-1.2833,-1.2432,-1.2218,-1.1884,-1.1833,-1.1875,-1.1467,-1.1083,-1.1047,-1.0996,-1.0835,-1.077,-1.0679,-1.0458,-1.0367,-1.0503,-1.0745,-1.1076,-1.1289,-1.1396,-1.1485,-1.1635,-1.1817,-1.2055,-1.2337,-1.2696,-1.2999,-1.3362,-1.3627,-1.4118,-1.4948,-1.5596,-1.5948,-1.6219,-1.6419,-1.6688,-1.7101,-1.7453,-1.7726,-1.7988,-1.8002,-1.8077,-1.8425,-1.8751,-1.8916,-1.904,-1.9113,-1.9135,-1.908,-1.8971,-1.8916,-1.8873,-1.8785,-1.8637,-1.8757,-1.8735,-1.8953,-1.9282,-1.9358,-1.9563,-1.9759,-1.9868,-2.0009,-2.0107,-2.0118,-2.0085,-2.0009,-1.9933,-1.9802,-1.966,-1.9412,-1.9123,-1.8856,-1.8604,-1.8322,-1.7947,-1.7542,-1.7332,-1.704,-1.6774,-2.5131,-2.4677,-2.3806,-2.321,-2.2836,-2.2359,-2.1937,-2.1474,-2.1083,-2.0828,-2.07,-2.0302,-1.9977,-1.9715,-1.9264,-1.8798,-1.8596,-1.8202,-1.7862,-1.7588,-1.7392,-1.7107,-1.683,-1.6621,-1.6351,-1.607,-1.57,-1.5313,-1.4944,-1.4582,-1.4228,-1.3744,-1.3461,-1.3112,-1.2609,-1.2116,-1.1761,-1.1632,-1.1136,-1.1058,-1.1274,-1.091,-1.0618,-1.0561,-1.0428,-1.0244,-1.0244,-1.018,-1.0117,-1.0053,-1.0149,-1.0379,-1.0601,-1.0784,-1.0936,-1.1009,-1.12,-1.1372,-1.1619,-1.1895,-1.224,-1.2528,-1.296,-1.332,-1.3755,-1.4509,-1.4874,-1.5214,-1.556,-1.582,-1.6012,-1.6411,-1.6609,-1.6873,-1.7331,-1.762,-1.7912,-1.8301,-1.8556,-1.8801,-1.8862,-1.8873,-1.8884,-1.8884,-1.8731,-1.8425,-1.8392,-1.8217,-1.8104,-1.8148,-1.8093,-1.818,-1.8544,-1.8859,-1.9051,-1.9397,-1.9639,-1.9791,-1.9955,-1.9944,-1.9966,-1.9922,-1.9857,-1.9457,-1.9157,-1.8837,-1.8562,-1.8331,-1.7957,-1.7636,-1.7357,-1.7067,-1.6946,-1.6827,-1.6655,-2.4948,-2.4563,-2.3688,-2.3017,-2.2519,-2.2235,-2.1737,-2.1158,-2.0711,-2.0313,-2.0042,-1.9977,-1.9594,-1.9264,-1.8931,-1.8472,-1.8066,-1.7794,-1.7451,-1.7245,-1.6899,-1.6621,-1.6412,-1.6202,-1.5869,-1.5466,-1.501,-1.4509,-1.4069,-1.3754,-1.3424,-1.3013,-1.2602,-1.2306,-1.1956,-1.1625,-1.1261,-1.1051,-1.0751,-1.0561,-1.0511,-1.0561,-1.0434,-1.0238,-1.011,-0.9983,-0.9989,-0.9989,-0.9989,-0.9926,-0.9983,-1.0136,-1.0276,-1.0412,-1.052,-1.0617,-1.0823,-1.093,-1.1121,-1.1489,-1.1819,-1.218,-1.2696,-1.306,-1.3391,-1.3729,-1.4147,-1.4499,-1.4833,-1.5281,-1.5532,-1.579,-1.5974,-1.6265,-1.6772,-1.7234,-1.7616,-1.797,-1.818,-1.842,-1.848,-1.848,-1.849,-1.8512,-1.8348,-1.8043,-1.7835,-1.7617,-1.7508,-1.7639,-1.7682,-1.7701,-1.7952,-1.8224,-1.8556,-1.9091,-1.9517,-1.9628,-1.9791,-1.9836,-1.9749,-1.9566,-1.9254,-1.8786,-1.8501,-1.8301,-1.8051,-1.7792,-1.746,-1.7121,-1.6943,-1.6746,-1.6632,-1.6545,-1.6493,-2.465,-2.3793,-2.321,-2.2726,-2.2247,-2.1788,-2.1336,-2.0892,-2.0355,-1.9911,-1.9454,-1.9309,-1.9075,-1.8798,-1.8347,-1.8008,-1.7716,-1.7382,-1.7176,-1.6908,-1.6491,-1.6202,-1.5852,-1.5443,-1.513,-1.4673,-1.4188,-1.3799,-1.3278,-1.3021,-1.2669,-1.2291,-1.1868,-1.1595,-1.1284,-1.096,-1.0776,-1.0555,-1.0358,-1.011,-1.011,-1.011,-1.011,-1.0047,-1.0053,-0.9926,-0.9862,-0.9868,-0.974,-0.9676,-0.9734,-0.9926,-1.0047,-1.0174,-1.0301,-1.0428,-1.0555,-1.0744,-1.0995,-1.1164,-1.1489,-1.1602,-1.2025,-1.2322,-1.2632,-1.2885,-1.3241,-1.3622,-1.411,-1.4857,-1.5185,-1.5433,-1.5679,-1.6027,-1.6488,-1.6779,-1.716,-1.7227,-1.7338,-1.7521,-1.7636,-1.7704,-1.7715,-1.7726,-1.7726,-1.7529,-1.7529,-1.7355,-1.7355,-1.7311,-1.7278,-1.7464,-1.756,-1.7679,-1.8075,-1.8905,-1.9375,-1.955,-1.9639,-1.9641,-1.948,-1.9094,-1.8744,-1.8228,-1.7978,-1.7802,-1.7585,-1.7295,-1.7191,-1.6933,-1.6653,-1.6456,-1.6384,-1.6363,-1.6363]},{"header":{"parameterUnit":"m.s-1","parameterCategory":1,"la1":31.0,"la2":29.5877,"lo1":-88.7671,"lo2":-86.6584,"dy":0.0162,"dx":0.0185,"nx":115,"ny":88,"refTime":"2023-07-01T12:00:00:Z","depth":0,"parameterNumber":3,"parameterNumberName":"V-component_of_WINDS"},"data":[0.0,0.0,0.0,0.0,0.0,0.0,0.0,0.0,0.0,0.0,0.0,0.0,0.0,0.0,0.0,0.0,0.0,0.0,0.0,0.0,0.0,0.0,0.0,0.0,0.0,0.0,0.0,0.0,0.0,0.0,0.0,0.0,0.0,0.0,0.0,0.0,0.0,0.0,0.0,0.0,0.0,0.0,0.0,0.0,0.0,0.0,0.0,0.0,0.0,0.0,0.0,0.0,0.0,0.0,0.0,0.0,0.0,0.0,0.0,0.0,0.0,0.0,0.0,0.0,0.0,0.0,0.0,0.0,0.0,0.0,0.0,0.0,0.0,0.0,0.0,0.0,0.0,0.0,0.0,0.0,0.0,0.0,0.0,0.0,0.0,0.0,0.0,0.0,0.0,0.0,0.0,0.0,0.0,0.0,0.0,0.0,0.0,0.0,0.0,0.0,0.0,0.0,0.0,0.0,0.0,0.0,0.0,0.0,0.0,0.0,0.0,0.0,0.0,0.0,0.0,0.0,0.0,0.0,0.0,0.0,0.0,0.0,0.0,0.0,0.0,0.0,0.0,0.0,0.0,0.0,0.0,0.0,0.0,0.0,0.0,0.0,0.0,0.0,0.0,0.0,0.0,0.0,0.0,0.0,0.0,0.0,0.0,0.0,0.0,0.0,0.0,0.0,0.0,0.0,0.0,0.0,0.0,0.0,0.0,0.0,0.0,0.0,0.0,0.0,0.0,0.0,0.0,0.0,0.0,0.0,0.0,0.0,0.0,0.0,0.0,0.0,0.0,0.0,0.0,0.0,0.0,0.0,0.0,0.0,0.0,0.0,0.0,0.0,0.0,0.0,0.0,0.0,0.0,0.0,0.0,0.0,0.0,0.0,0.0,0.0,0.0,0.0,0.0,0.0,0.0,0.0,0.0,0.0,0.0,0.0,0.0,0.0,0.0,0.0,0.0,0.0,0.0,0.0,0.0,0.0,0.0,0.0,0.0,0.0,0.0,0.0,0.0,0.0,0.0,0.0,0.0,0.0,0.0,0.0,0.0,0.0,0.0,0.0,0.0,0.0,0.0,0.0,0.0,0.0,0.0,0.0,0.0,0.0,0.0,0.0,0.0,0.0,0.0,0.0,0.0,0.0,0.0,0.0,0.0,0.0,0.0,0.0,0.0,0.0,0.0,0.0,0.0,0.0,0.0,0.0,0.0,0.0,0.0,0.0,0.0,0.0,0.0,0.0,0.0,0.0,0.0,0.0,0.0,0.0,0.0,0.0,0.0,0.0,0.0,0.0,0.0,0.0,0.0,0.0,0.0,0.0,0.0,0.0,0.0,0.0,0.0,0.0,0.0,0.0,0.0,0.0,0.0,0.0,0.0,0.0,0.0,0.0,0.0,0.0,0.0,0.0,0.0,0.0,0.0,0.0,0.0,0.0,0.0,0.0,0.0,0.0,0.0,0.0,0.0,0.0,0.0,0.0,0.0,0.0,0.0,0.0,0.0,0.0,0.0,0.0,0.0,0.0,0.0,0.0,0.0,0.0,0.0,0.0,0.0,0.0,0.0,0.0,0.0,0.0,0.0,0.0,0.0,0.0,0.0,0.0,0.0,0.0,0.0,0.0,0.0,0.0,0.0,0.0,0.0,0.0,0.0,0.0,0.0,0.0,0.0,0.0,0.0,0.0,0.0,0.0,0.0,0.0,0.0,0.0,0.0,0.0,0.0,0.0,0.0,0.0,0.0,0.0,0.0,0.0,0.0,0.0,0.0,0.0,0.0,0.0,0.0,0.0,0.0,0.0,0.0,0.0,0.0,0.0,0.0,0.0,0.0,0.0,0.0,0.0,0.0,0.0,0.0,0.0,0.0,0.0,0.0,0.0,0.0,0.0,0.0,0.0,0.0,0.0,0.0,0.0,0.0,0.0,0.0,0.0,0.0,0.0,0.0,0.0,0.0,0.0,0.0,0.0,0.0,0.0,0.0,0.0,0.0,0.0,0.0,0.0,0.0,0.0,0.0,0.0,0.0,0.0,0.0,0.0,0.0,0.0,0.0,0.0,0.0,0.0,0.0,0.0,0.0,0.0,0.0,0.0,0.0,0.0,0.0,0.0,0.0,0.0,0.0,0.0,0.0,0.0,0.0,0.0,0.0,0.0,0.0,0.0,0.0,0.0,0.0,0.0,0.0,0.0,0.0,0.0,0.0,0.0,0.0,0.0,0.0,0.0,0.0,0.0,0.0,0.0,0.0,0.0,0.0,0.0,0.0,0.0,0.0,0.0,0.0,0.0,0.0,0.0,0.0,0.0,0.0,0.0,0.0,0.0,0.0,0.0,0.0,0.0,0.0,0.0,0.0,0.0,0.0,0.0,0.0,0.0,0.0,0.0,0.0,0.0,0.0,0.0,0.0,0.0,0.0,0.0,0.0,0.0,0.0,0.0,0.0,0.0,0.0,0.0,0.0,0.0,0.0,0.0,0.0,0.0,0.0,0.0,0.0,0.0,0.0,0.0,0.0,0.0,0.0,0.0,0.0,0.0,0.0,0.0,0.0,0.0,0.0,0.0,0.0,0.0,0.0,0.0,0.0,0.0,0.0,0.0,0.0,0.0,0.0,0.0,0.0,0.0,0.0,0.0,0.0,0.0,0.0,0.0,0.0,0.0,0.0,0.0,0.0,0.0,0.0,0.0,0.0,0.0,0.0,0.0,0.0,0.0,0.0,0.0,0.0,0.0,0.0,0.0,0.0,0.0,0.0,0.0,0.0,0.0,0.0,0.0,0.0,0.0,0.0,0.0,0.0,0.0,0.0,0.0,0.0,0.0,0.0,0.0,0.0,0.0,0.0,0.0,0.0,0.0,0.0,0.0,0.0,0.0,0.0,0.0,0.0,0.0,0.0,0.0,0.0,0.0,0.0,0.0,0.0,0.0,0.0,0.0,0.0,0.0,0.0,0.0,0.0,0.0,0.0,0.0,0.0,0.0,0.0,0.0,0.0,0.0,0.0,0.0,0.0,0.0,0.0,0.0,0.0,0.0,0.0,0.0,0.0,0.0,0.0,0.0,0.0,0.0,0.0,0.0,0.0,0.0,0.0,0.0,0.0,0.0,0.0,0.0,0.0,0.0,0.0,0.0,0.0,0.0,0.0,0.0,0.0,0.0,0.0,0.0,0.0,0.0,0.0,0.0,0.0,0.0,0.0,0.0,0.0,0.0,0.0,0.0,0.0,0.0,0.0,0.0,0.0,0.0,0.0,0.0,0.0,0.0,0.0,0.0,0.0,0.0,0.0,0.0,0.0,0.0,0.0,0.0,0.0,0.0,0.0,0.0,0.0,0.0,0.0,0.0,0.0,0.0,0.0,0.0,0.0,0.0,0.0,0.0,0.0,0.0,0.0,0.0,0.0,0.0,0.0,0.0,0.0,0.0,0.0,0.0,0.0,0.0,0.0,0.0,0.0,0.0,0.0,0.0,0.0,0.0,0.0,0.0,0.0,0.0,0.0,0.0,0.0,0.0,0.0,0.0,0.0,0.0,0.0,0.0,0.0,0.0,0.0,0.0,0.0,0.0,0.0,0.0,0.0,0.0,0.0,0.0,0.0,0.0,0.0,0.0,0.0,0.0,0.0,0.0,0.0,0.0,0.0,0.0,0.0,0.0,0.0,0.0,0.0,0.0,0.0,0.0,0.0,0.0,0.0,0.0,0.0,0.0,0.0,0.0,0.0,0.0,0.0,0.0,0.0,0.0,0.0,0.0,0.0,0.0,0.0,0.0,0.0,0.0,0.0,0.0,0.0,0.0,0.0,0.0,0.0,0.0,0.0,0.0,0.0,0.0,0.0,0.0,0.0,0.0,0.0,0.0,0.0,0.0,0.0,0.0,0.0,0.0,0.0,0.0,0.0,0.0,0.0,0.0,0.0,0.0,0.0,0.0,0.0,0.0,0.0,0.0,0.0,0.0,0.0,0.0,0.0,0.0,0.0,0.0,0.0,0.0,0.0,0.0,0.0,0.0,0.0,0.0,0.0,0.0,0.0,0.0,0.0,0.0,0.0,0.0,0.0,0.0,0.0,0.0,0.0,0.0,0.0,0.0,0.0,0.0,0.0,0.0,0.0,0.0,0.0,0.0,0.0,0.0,0.0,0.0,0.0,0.0,0.0,0.0,0.0,0.0,0.0,0.0,0.0,0.0,0.0,0.0,0.0,0.0,0.0,0.0,0.0,0.0,0.0,0.0,0.0,0.0,0.0,0.0,0.0,0.0,0.0,0.0,0.0,0.0,0.0,0.0,0.0,0.0,-3.2555,0.0,0.0,0.0,0.0,0.0,0.0,0.0,0.0,0.0,0.0,0.0,0.0,0.0,0.0,0.0,0.0,0.0,0.0,0.0,0.0,0.0,0.0,0.0,0.0,0.0,0.0,0.0,0.0,0.0,0.0,0.0,0.0,0.0,0.0,0.0,0.0,0.0,0.0,0.0,0.0,0.0,0.0,0.0,0.0,0.0,0.0,0.0,0.0,0.0,0.0,0.0,0.0,0.0,0.0,0.0,0.0,0.0,0.0,0.0,0.0,0.0,0.0,0.0,0.0,0.0,0.0,0.0,0.0,0.0,0.0,0.0,0.0,0.0,0.0,0.0,0.0,0.0,0.0,0.0,0.0,0.0,0.0,0.0,0.0,0.0,0.0,0.0,0.0,0.0,0.0,0.0,0.0,0.0,0.0,0.0,0.0,0.0,0.0,0.0,0.0,0.0,0.0,0.0,0.0,0.0,0.0,0.0,0.0,0.0,0.0,-3.2287,-3.2104,-3.1992,-3.2007,-3.2216,0.0,0.0,0.0,0.0,0.0,0.0,0.0,0.0,0.0,0.0,0.0,0.0,0.0,0.0,0.0,0.0,0.0,0.0,0.0,0.0,0.0,0.0,0.0,0.0,0.0,0.0,0.0,0.0,0.0,0.0,0.0,0.0,0.0,0.0,0.0,0.0,0.0,0.0,0.0,0.0,0.0,0.0,0.0,0.0,0.0,0.0,0.0,0.0,0.0,0.0,0.0,0.0,0.0,0.0,0.0,0.0,0.0,0.0,0.0,0.0,0.0,0.0,0.0,0.0,0.0,0.0,0.0,0.0,0.0,0.0,0.0,0.0,0.0,0.0,0.0,0.0,0.0,0.0,0.0,0.0,0.0,0.0,0.0,0.0,0.0,0.0,0.0,0.0,0.0,0.0,0.0,0.0,0.0,0.0,0.0,0.0,0.0,0.0,0.0,0.0,0.0,0.0,0.0,0.0,0.0,0.0,0.0,0.0,0.0,0.0,0.0,0.0,-3.1379,-3.1437,-3.1739,0.0,0.0,0.0,0.0,0.0,0.0,0.0,0.0,0.0,0.0,0.0,0.0,0.0,0.0,0.0,0.0,0.0,0.0,0.0,0.0,0.0,0.0,0.0,0.0,0.0,0.0,0.0,0.0,0.0,0.0,0.0,0.0,0.0,0.0,0.0,0.0,0.0,0.0,0.0,0.0,0.0,0.0,0.0,0.0,0.0,0.0,0.0,0.0,0.0,0.0,0.0,0.0,0.0,0.0,0.0,0.0,0.0,0.0,0.0,0.0,0.0,0.0,0.0,0.0,0.0,0.0,0.0,0.0,0.0,0.0,0.0,0.0,0.0,0.0,0.0,0.0,0.0,0.0,0.0,0.0,0.0,0.0,0.0,0.0,0.0,0.0,0.0,0.0,0.0,0.0,0.0,0.0,0.0,0.0,0.0,0.0,0.0,0.0,0.0,0.0,0.0,0.0,0.0,0.0,0.0,0.0,0.0,0.0,0.0,0.0,-3.097,-3.0687,-3.0687,0.0,-3.1087,0.0,0.0,0.0,0.0,0.0,0.0,0.0,0.0,0.0,0.0,0.0,0.0,0.0,0.0,0.0,0.0,0.0,0.0,0.0,0.0,0.0,0.0,0.0,0.0,0.0,0.0,0.0,0.0,0.0,0.0,0.0,0.0,0.0,0.0,0.0,0.0,0.0,0.0,0.0,0.0,0.0,0.0,0.0,0.0,0.0,0.0,0.0,0.0,0.0,0.0,0.0,0.0,0.0,0.0,0.0,0.0,0.0,0.0,0.0,0.0,0.0,0.0,0.0,0.0,0.0,0.0,0.0,0.0,0.0,0.0,0.0,0.0,0.0,0.0,0.0,0.0,0.0,0.0,0.0,0.0,0.0,0.0,0.0,0.0,0.0,0.0,0.0,0.0,0.0,0.0,0.0,0.0,0.0,0.0,0.0,0.0,0.0,0.0,0.0,0.0,0.0,0.0,0.0,0.0,0.0,0.0,0.0,0.0,0.0,0.0,-3.1277,-3.0716,-3.0467,-3.0387,0.0,0.0,0.0,0.0,0.0,0.0,0.0,0.0,0.0,0.0,0.0,0.0,0.0,0.0,0.0,0.0,0.0,0.0,0.0,0.0,0.0,0.0,0.0,0.0,0.0,0.0,0.0,0.0,0.0,0.0,0.0,0.0,0.0,0.0,0.0,0.0,0.0,0.0,0.0,0.0,0.0,0.0,0.0,0.0,0.0,0.0,0.0,0.0,0.0,0.0,0.0,0.0,0.0,0.0,0.0,0.0,0.0,0.0,0.0,0.0,0.0,0.0,0.0,0.0,0.0,0.0,0.0,0.0,0.0,0.0,0.0,0.0,0.0,0.0,0.0,0.0,0.0,0.0,0.0,0.0,0.0,0.0,0.0,0.0,0.0,0.0,0.0,0.0,0.0,0.0,0.0,0.0,0.0,0.0,0.0,0.0,0.0,0.0,0.0,0.0,0.0,0.0,0.0,0.0,0.0,0.0,0.0,0.0,0.0,0.0,-3.1545,-3.1429,-3.0847,-3.034,-3.0077,-3.0202,0.0,0.0,0.0,0.0,0.0,0.0,0.0,0.0,0.0,0.0,0.0,0.0,0.0,0.0,0.0,0.0,0.0,0.0,0.0,0.0,0.0,0.0,0.0,0.0,0.0,0.0,0.0,0.0,0.0,0.0,0.0,0.0,0.0,0.0,0.0,0.0,0.0,0.0,0.0,0.0,0.0,0.0,0.0,0.0,0.0,0.0,0.0,0.0,0.0,0.0,0.0,0.0,0.0,0.0,0.0,0.0,0.0,0.0,0.0,0.0,0.0,0.0,0.0,0.0,0.0,0.0,0.0,0.0,0.0,0.0,0.0,0.0,0.0,0.0,0.0,0.0,0.0,0.0,0.0,0.0,0.0,0.0,0.0,0.0,0.0,0.0,0.0,0.0,0.0,0.0,0.0,0.0,0.0,0.0,0.0,0.0,0.0,0.0,0.0,0.0,0.0,0.0,0.0,0.0,0.0,0.0,0.0,0.0,-3.1373,-3.1244,-3.1096,-3.0853,-3.0245,-3.0058,0.0,0.0,0.0,0.0,0.0,0.0,0.0,0.0,0.0,0.0,0.0,0.0,0.0,0.0,0.0,0.0,0.0,0.0,0.0,0.0,0.0,0.0,0.0,0.0,0.0,0.0,0.0,0.0,0.0,0.0,0.0,0.0,0.0,0.0,0.0,0.0,0.0,0.0,0.0,0.0,0.0,0.0,0.0,0.0,0.0,0.0,0.0,0.0,0.0,0.0,0.0,0.0,0.0,0.0,0.0,0.0,0.0,0.0,0.0,0.0,0.0,0.0,0.0,0.0,0.0,0.0,0.0,0.0,0.0,0.0,0.0,0.0,0.0,0.0,0.0,0.0,0.0,0.0,0.0,0.0,0.0,0.0,0.0,0.0,0.0,0.0,0.0,0.0,0.0,0.0,0.0,0.0,0.0,0.0,0.0,0.0,0.0,0.0,0.0,0.0,0.0,0.0,0.0,0.0,0.0,0.0,0.0,0.0,0.0,-3.1461,-3.1199,-3.0934,-3.078,-3.0268,-2.9916,0.0,0.0,0.0,0.0,0.0,0.0,0.0,0.0,0.0,0.0,0.0,0.0,0.0,0.0,0.0,0.0,0.0,0.0,0.0,0.0,0.0,0.0,0.0,0.0,0.0,0.0,0.0,0.0,0.0,0.0,0.0,0.0,0.0,0.0,0.0,0.0,0.0,0.0,0.0,0.0,0.0,0.0,0.0,0.0,0.0,0.0,0.0,0.0,0.0,0.0,0.0,0.0,0.0,0.0,0.0,0.0,0.0,0.0,0.0,0.0,0.0,0.0,0.0,0.0,0.0,0.0,0.0,0.0,0.0,0.0,0.0,0.0,0.0,0.0,0.0,0.0,0.0,0.0,0.0,0.0,0.0,0.0,0.0,0.0,0.0,0.0,0.0,0.0,0.0,0.0,0.0,0.0,0.0,0.0,0.0,0.0,0.0,0.0,0.0,0.0,0.0,0.0,0.0,0.0,0.0,0.0,0.0,0.0,0.0,-3.146,0.0,-3.0824,-3.0811,-3.0339,-2.9987,0.0,0.0,0.0,0.0,0.0,0.0,0.0,0.0,0.0,0.0,0.0,0.0,0.0,0.0,0.0,0.0,0.0,0.0,0.0,0.0,0.0,0.0,0.0,0.0,0.0,0.0,0.0,0.0,0.0,0.0,0.0,0.0,0.0,0.0,0.0,0.0,0.0,0.0,0.0,0.0,0.0,0.0,0.0,0.0,0.0,0.0,0.0,0.0,0.0,0.0,0.0,0.0,0.0,0.0,0.0,0.0,0.0,0.0,0.0,0.0,0.0,0.0,0.0,0.0,0.0,0.0,0.0,0.0,0.0,0.0,0.0,0.0,0.0,0.0,0.0,0.0,0.0,0.0,0.0,0.0,0.0,0.0,0.0,0.0,0.0,0.0,0.0,0.0,0.0,0.0,0.0,0.0,0.0,0.0,0.0,0.0,0.0,0.0,0.0,0.0,0.0,0.0,0.0,0.0,0.0,0.0,0.0,0.0,-3.1186,-3.1233,-3.0885,-3.0735,-3.096,-3.0424,-3.0342,0.0,0.0,0.0,0.0,0.0,0.0,0.0,0.0,0.0,0.0,0.0,0.0,0.0,0.0,0.0,0.0,0.0,0.0,0.0,0.0,0.0,0.0,0.0,0.0,0.0,0.0,0.0,0.0,0.0,0.0,0.0,0.0,0.0,0.0,0.0,0.0,0.0,0.0,0.0,0.0,0.0,0.0,0.0,0.0,0.0,0.0,0.0,0.0,0.0,0.0,0.0,0.0,0.0,0.0,0.0,0.0,0.0,0.0,0.0,0.0,0.0,0.0,0.0,0.0,0.0,0.0,0.0,0.0,0.0,0.0,0.0,0.0,0.0,0.0,0.0,0.0,0.0,0.0,0.0,0.0,0.0,0.0,0.0,0.0,0.0,0.0,0.0,0.0,0.0,0.0,0.0,0.0,0.0,0.0,0.0,0.0,0.0,0.0,0.0,0.0,0.0,0.0,0.0,0.0,0.0,0.0,0.0,0.0,0.0,-3.0659,-3.0457,-3.0203,-3.0088,-3.0126,-3.0157,0.0,0.0,0.0,0.0,0.0,0.0,0.0,0.0,0.0,0.0,0.0,0.0,0.0,0.0,0.0,0.0,0.0,0.0,0.0,0.0,0.0,0.0,0.0,0.0,0.0,0.0,0.0,0.0,0.0,0.0,0.0,0.0,0.0,0.0,0.0,0.0,0.0,0.0,0.0,0.0,0.0,0.0,0.0,0.0,0.0,0.0,0.0,0.0,0.0,0.0,0.0,0.0,0.0,0.0,0.0,0.0,0.0,0.0,0.0,0.0,0.0,0.0,0.0,0.0,0.0,0.0,0.0,0.0,0.0,0.0,0.0,0.0,0.0,0.0,0.0,0.0,0.0,0.0,0.0,0.0,0.0,0.0,0.0,0.0,0.0,0.0,0.0,0.0,0.0,0.0,0.0,0.0,0.0,0.0,0.0,0.0,0.0,0.0,0.0,0.0,0.0,0.0,0.0,0.0,0.0,0.0,0.0,0.0,0.0,-2.9664,-2.9677,-2.9574,-2.9484,-2.9677,-2.9757,-2.9918,0.0,0.0,0.0,0.0,0.0,0.0,0.0,0.0,0.0,0.0,0.0,0.0,0.0,0.0,0.0,0.0,0.0,0.0,0.0,0.0,0.0,0.0,0.0,0.0,0.0,0.0,0.0,0.0,0.0,0.0,0.0,0.0,0.0,0.0,0.0,0.0,0.0,0.0,0.0,0.0,0.0,0.0,0.0,0.0,0.0,0.0,0.0,0.0,0.0,0.0,0.0,0.0,0.0,0.0,0.0,0.0,0.0,0.0,0.0,0.0,0.0,0.0,0.0,0.0,0.0,0.0,0.0,0.0,0.0,0.0,0.0,0.0,0.0,0.0,0.0,0.0,0.0,0.0,0.0,0.0,0.0,0.0,0.0,0.0,0.0,0.0,0.0,0.0,0.0,0.0,0.0,0.0,0.0,0.0,0.0,0.0,0.0,0.0,0.0,0.0,0.0,0.0,0.0,0.0,0.0,0.0,0.0,0.0,-2.8419,-2.8645,-2.8803,-2.9052,-2.9052,-2.9353,0.0,0.0,0.0,0.0,0.0,0.0,0.0,0.0,0.0,0.0,0.0,0.0,0.0,0.0,0.0,0.0,0.0,0.0,0.0,0.0,0.0,0.0,0.0,0.0,0.0,0.0,0.0,0.0,0.0,0.0,0.0,0.0,0.0,0.0,0.0,0.0,0.0,0.0,0.0,0.0,0.0,0.0,0.0,0.0,0.0,0.0,0.0,0.0,0.0,0.0,0.0,0.0,0.0,0.0,0.0,0.0,0.0,0.0,0.0,0.0,0.0,0.0,0.0,0.0,0.0,0.0,0.0,0.0,0.0,0.0,0.0,0.0,0.0,0.0,0.0,0.0,0.0,0.0,0.0,0.0,0.0,0.0,0.0,0.0,0.0,0.0,0.0,0.0,0.0,0.0,0.0,0.0,0.0,0.0,0.0,0.0,0.0,0.0,0.0,0.0,0.0,0.0,0.0,0.0,0.0,0.0,0.0,0.0,0.0,-2.7983,-2.7603,-2.7615,-2.8203,-2.851,-2.8803,0.0,0.0,0.0,0.0,0.0,0.0,0.0,0.0,0.0,0.0,0.0,0.0,0.0,0.0,0.0,0.0,0.0,0.0,0.0,0.0,0.0,0.0,0.0,0.0,0.0,0.0,0.0,0.0,0.0,0.0,0.0,0.0,0.0,0.0,0.0,0.0,0.0,0.0,0.0,0.0,0.0,0.0,0.0,0.0,0.0,0.0,0.0,0.0,0.0,0.0,0.0,0.0,0.0,0.0,0.0,0.0,0.0,0.0,0.0,0.0,0.0,0.0,0.0,0.0,0.0,0.0,0.0,0.0,0.0,0.0,0.0,0.0,0.0,0.0,0.0,0.0,0.0,0.0,0.0,0.0,0.0,0.0,0.0,0.0,0.0,0.0,0.0,0.0,0.0,0.0,0.0,0.0,0.0,0.0,0.0,0.0,0.0,0.0,0.0,0.0,0.0,0.0,0.0,0.0,0.0,0.0,0.0,0.0,-2.7592,-2.7255,-2.6857,-2.6798,-2.7208,-2.7696,-2.8179,0.0,0.0,0.0,0.0,0.0,0.0,0.0,0.0,0.0,0.0,0.0,0.0,0.0,0.0,0.0,0.0,0.0,0.0,0.0,0.0,0.0,0.0,0.0,0.0,0.0,0.0,0.0,0.0,0.0,0.0,0.0,0.0,0.0,0.0,0.0,0.0,0.0,0.0,0.0,0.0,0.0,0.0,0.0,0.0,0.0,0.0,0.0,0.0,0.0,0.0,0.0,0.0,0.0,0.0,0.0,0.0,0.0,0.0,0.0,0.0,0.0,0.0,0.0,0.0,0.0,0.0,0.0,0.0,0.0,0.0,0.0,0.0,0.0,0.0,0.0,0.0,0.0,0.0,0.0,0.0,0.0,0.0,0.0,0.0,0.0,0.0,0.0,0.0,0.0,0.0,0.0,0.0,0.0,0.0,0.0,0.0,0.0,0.0,0.0,0.0,0.0,0.0,0.0,0.0,0.0,0.0,0.0,0.0,-2.6846,-2.6445,-2.6185,-2.6113,-2.6196,-2.6764,-2.7429,0.0,0.0,0.0,0.0,0.0,0.0,0.0,0.0,0.0,0.0,0.0,0.0,0.0,0.0,0.0,0.0,0.0,0.0,0.0,0.0,0.0,0.0,0.0,0.0,0.0,0.0,0.0,0.0,0.0,0.0,0.0,0.0,0.0,0.0,0.0,0.0,0.0,0.0,0.0,0.0,0.0,0.0,0.0,0.0,0.0,0.0,0.0,0.0,0.0,0.0,0.0,0.0,0.0,0.0,0.0,0.0,0.0,0.0,0.0,0.0,0.0,0.0,0.0,0.0,0.0,0.0,0.0,0.0,0.0,0.0,0.0,0.0,0.0,0.0,0.0,0.0,0.0,0.0,0.0,0.0,0.0,0.0,0.0,0.0,0.0,0.0,0.0,0.0,0.0,0.0,0.0,0.0,0.0,0.0,0.0,0.0,0.0,0.0,0.0,0.0,0.0,0.0,0.0,0.0,0.0,0.0,0.0,0.0,-2.6279,-2.6063,-2.5622,-2.5538,-2.5728,-2.655,-2.7208,0.0,0.0,0.0,0.0,0.0,0.0,0.0,0.0,0.0,0.0,0.0,0.0,0.0,0.0,0.0,0.0,0.0,0.0,0.0,0.0,0.0,0.0,0.0,0.0,0.0,0.0,0.0,0.0,0.0,0.0,0.0,0.0,0.0,0.0,0.0,0.0,0.0,0.0,0.0,0.0,0.0,0.0,0.0,0.0,0.0,0.0,0.0,0.0,-3.2765,0.0,0.0,0.0,0.0,0.0,0.0,0.0,0.0,0.0,0.0,0.0,0.0,0.0,0.0,0.0,0.0,0.0,0.0,0.0,0.0,0.0,0.0,0.0,0.0,0.0,0.0,0.0,0.0,0.0,0.0,0.0,0.0,0.0,0.0,0.0,0.0,0.0,0.0,0.0,0.0,0.0,0.0,0.0,0.0,0.0,0.0,0.0,0.0,0.0,0.0,0.0,0.0,0.0,0.0,0.0,0.0,0.0,0.0,0.0,-2.5706,-2.5221,-2.4956,-2.4956,-2.5137,-2.5801,-2.661,0.0,0.0,0.0,0.0,0.0,0.0,0.0,0.0,0.0,0.0,0.0,0.0,0.0,0.0,0.0,0.0,0.0,0.0,0.0,0.0,0.0,0.0,0.0,0.0,0.0,0.0,0.0,0.0,0.0,0.0,0.0,0.0,0.0,0.0,0.0,0.0,0.0,0.0,0.0,0.0,0.0,0.0,0.0,0.0,0.0,0.0,0.0,0.0,0.0,0.0,0.0,0.0,0.0,0.0,0.0,0.0,0.0,0.0,0.0,0.0,0.0,0.0,0.0,0.0,0.0,0.0,0.0,0.0,0.0,0.0,0.0,0.0,0.0,0.0,0.0,0.0,0.0,0.0,0.0,0.0,0.0,0.0,0.0,0.0,0.0,0.0,0.0,0.0,0.0,0.0,0.0,0.0,0.0,0.0,0.0,0.0,0.0,0.0,0.0,0.0,0.0,0.0,0.0,0.0,0.0,0.0,0.0,-2.5706,-2.5031,-2.454,-2.4454,-2.4454,-2.454,-2.5126,-2.5946,-2.7021,0.0,0.0,0.0,0.0,0.0,0.0,0.0,0.0,0.0,0.0,0.0,0.0,0.0,0.0,0.0,0.0,0.0,0.0,0.0,0.0,0.0,0.0,0.0,0.0,0.0,0.0,0.0,0.0,0.0,0.0,0.0,0.0,0.0,0.0,0.0,0.0,0.0,0.0,-2.9656,-3.029,0.0,0.0,0.0,0.0,0.0,0.0,0.0,0.0,-3.1863,0.0,0.0,0.0,0.0,0.0,0.0,0.0,0.0,0.0,0.0,0.0,0.0,0.0,0.0,0.0,0.0,0.0,0.0,0.0,0.0,0.0,0.0,0.0,0.0,0.0,0.0,0.0,0.0,0.0,0.0,0.0,0.0,0.0,0.0,0.0,0.0,0.0,0.0,0.0,0.0,0.0,0.0,0.0,0.0,0.0,0.0,0.0,0.0,0.0,0.0,0.0,0.0,0.0,0.0,0.0,0.0,-2.5968,-2.5137,-2.4625,-2.4454,-2.41,-2.41,-2.4454,-2.4956,-2.5706,-2.661,0.0,0.0,0.0,0.0,0.0,0.0,0.0,0.0,0.0,0.0,0.0,0.0,0.0,0.0,0.0,0.0,0.0,0.0,0.0,0.0,0.0,0.0,0.0,0.0,0.0,0.0,0.0,0.0,0.0,0.0,0.0,0.0,0.0,0.0,0.0,0.0,0.0,0.0,0.0,-2.9908,-3.0406,0.0,0.0,0.0,0.0,0.0,0.0,0.0,0.0,-3.1246,0.0,0.0,0.0,0.0,0.0,0.0,0.0,0.0,0.0,0.0,0.0,0.0,0.0,0.0,0.0,0.0,0.0,0.0,0.0,0.0,0.0,0.0,0.0,0.0,0.0,0.0,0.0,0.0,0.0,0.0,0.0,0.0,0.0,0.0,0.0,0.0,0.0,0.0,0.0,0.0,0.0,0.0,0.0,0.0,0.0,0.0,0.0,0.0,0.0,0.0,0.0,0.0,0.0,0.0,0.0,-2.538,-2.4711,-2.4196,-2.4013,-2.3754,-2.3851,-2.41,-2.47,-2.5454,0.0,0.0,0.0,0.0,0.0,0.0,0.0,0.0,0.0,0.0,0.0,0.0,0.0,0.0,0.0,0.0,0.0,0.0,0.0,0.0,0.0,0.0,0.0,0.0,0.0,0.0,0.0,0.0,0.0,0.0,0.0,0.0,0.0,0.0,0.0,0.0,0.0,0.0,0.0,0.0,-2.9969,-3.0299,-3.0495,0.0,0.0,0.0,0.0,0.0,0.0,-3.0672,-3.0748,0.0,0.0,0.0,0.0,0.0,0.0,0.0,0.0,0.0,0.0,0.0,0.0,0.0,0.0,0.0,0.0,0.0,0.0,0.0,0.0,0.0,0.0,0.0,0.0,0.0,0.0,0.0,0.0,0.0,0.0,0.0,0.0,0.0,0.0,0.0,0.0,0.0,0.0,0.0,0.0,0.0,0.0,0.0,0.0,0.0,0.0,0.0,0.0,0.0,0.0,0.0,0.0,0.0,0.0,0.0,-2.4861,-2.4282,-2.3861,-2.3503,-2.3406,-2.3493,-2.3841,-2.4423,-2.52,0.0,0.0,0.0,0.0,0.0,0.0,0.0,0.0,0.0,0.0,0.0,0.0,0.0,0.0,0.0,0.0,0.0,0.0,0.0,0.0,0.0,0.0,0.0,0.0,0.0,0.0,0.0,0.0,0.0,0.0,0.0,0.0,0.0,0.0,0.0,0.0,0.0,0.0,0.0,0.0,0.0,-3.0203,-3.0216,-3.0126,0.0,0.0,0.0,0.0,-3.0203,-3.0203,0.0,0.0,0.0,0.0,0.0,0.0,0.0,0.0,0.0,0.0,0.0,0.0,0.0,0.0,0.0,0.0,0.0,0.0,0.0,0.0,0.0,0.0,0.0,0.0,0.0,0.0,0.0,0.0,0.0,0.0,0.0,0.0,0.0,0.0,0.0,0.0,0.0,0.0,0.0,0.0,0.0,0.0,0.0,0.0,0.0,0.0,0.0,0.0,0.0,0.0,0.0,0.0,0.0,0.0,0.0,0.0,-2.454,-2.3937,-2.359,-2.3503,-2.3319,-2.3319,-2.3754,-2.4251,-2.4935,0.0,0.0,0.0,0.0,0.0,0.0,0.0,0.0,0.0,0.0,0.0,0.0,0.0,0.0,0.0,0.0,0.0,0.0,0.0,0.0,0.0,0.0,0.0,0.0,0.0,0.0,0.0,0.0,0.0,0.0,0.0,0.0,0.0,0.0,0.0,0.0,0.0,0.0,0.0,0.0,0.0,-2.9496,-2.9496,-2.9353,-2.93,0.0,0.0,-2.9275,-2.9496,-2.9496,0.0,0.0,0.0,0.0,0.0,0.0,0.0,0.0,0.0,0.0,0.0,0.0,0.0,0.0,0.0,0.0,0.0,0.0,0.0,0.0,0.0,0.0,0.0,0.0,0.0,0.0,0.0,0.0,0.0,0.0,0.0,0.0,0.0,0.0,0.0,0.0,0.0,0.0,0.0,0.0,0.0,0.0,0.0,0.0,0.0,0.0,0.0,0.0,0.0,0.0,0.0,0.0,0.0,0.0,0.0,-2.4615,-2.41,-2.3677,-2.3416,-2.3319,-2.3329,-2.358,-2.4024,-2.4605,-2.5359,0.0,0.0,0.0,0.0,0.0,0.0,0.0,0.0,0.0,0.0,0.0,0.0,0.0,0.0,0.0,0.0,0.0,0.0,0.0,0.0,0.0,0.0,0.0,0.0,0.0,0.0,0.0,0.0,0.0,0.0,0.0,0.0,0.0,0.0,0.0,0.0,0.0,0.0,0.0,0.0,0.0,0.0,-2.9419,-2.9455,0.0,0.0,0.0,-3.004,-3.0109,0.0,0.0,0.0,0.0,0.0,0.0,0.0,0.0,0.0,0.0,0.0,0.0,0.0,0.0,0.0,0.0,0.0,0.0,0.0,0.0,0.0,0.0,0.0,0.0,0.0,0.0,0.0,0.0,0.0,0.0,0.0,0.0,0.0,0.0,0.0,0.0,0.0,0.0,0.0,0.0,0.0,0.0,0.0,0.0,0.0,0.0,0.0,0.0,0.0,0.0,0.0,0.0,0.0,0.0,0.0,0.0,0.0,-2.3754,-2.3493,-2.3319,-2.3135,-2.3406,-2.3764,-2.4206,-2.4871,0.0,0.0,0.0,0.0,0.0,0.0,0.0,0.0,0.0,0.0,0.0,0.0,0.0,0.0,0.0,0.0,0.0,0.0,0.0,0.0,0.0,0.0,0.0,0.0,0.0,0.0,0.0,-3.008,0.0,0.0,0.0,0.0,0.0,0.0,0.0,0.0,0.0,0.0,0.0,0.0,0.0,0.0,-2.9403,-2.9526,-2.9671,-2.9748,0.0,0.0,-3.0575,-3.0492,-3.0397,-3.0369,0.0,0.0,0.0,0.0,0.0,0.0,0.0,0.0,0.0,0.0,0.0,0.0,0.0,0.0,0.0,0.0,0.0,0.0,0.0,0.0,0.0,0.0,0.0,0.0,0.0,0.0,0.0,0.0,0.0,0.0,0.0,0.0,0.0,0.0,0.0,0.0,0.0,0.0,0.0,0.0,0.0,0.0,0.0,0.0,0.0,0.0,0.0,0.0,0.0,0.0,0.0,0.0,0.0,0.0,-2.4024,-2.3503,-2.3232,-2.3135,-2.3144,-2.3319,-2.3677,-2.4206,-2.4871,-2.5611,0.0,0.0,0.0,0.0,0.0,0.0,0.0,0.0,0.0,0.0,0.0,0.0,0.0,0.0,0.0,0.0,0.0,0.0,0.0,0.0,0.0,0.0,0.0,0.0,0.0,0.0,0.0,0.0,0.0,0.0,0.0,0.0,0.0,0.0,0.0,0.0,0.0,0.0,0.0,0.0,0.0,-2.9315,-2.9807,-2.9594,-2.9472,0.0,-2.9978,-3.0074,-3.0062,-3.0479,-3.0811,-3.1034,0.0,0.0,0.0,0.0,0.0,0.0,0.0,0.0,0.0,0.0,0.0,0.0,0.0,0.0,0.0,0.0,0.0,0.0,0.0,0.0,0.0,0.0,0.0,0.0,0.0,0.0,0.0,0.0,0.0,0.0,0.0,0.0,0.0,0.0,0.0,0.0,0.0,0.0,0.0,0.0,0.0,0.0,0.0,0.0,0.0,0.0,0.0,0.0,0.0,0.0,0.0,0.0,0.0,-2.3677,-2.3503,-2.3232,-2.3144,-2.3329,-2.358,-2.4013,-2.4786,-2.5443,-2.6196,0.0,0.0,0.0,0.0,0.0,0.0,0.0,0.0,0.0,0.0,0.0,0.0,0.0,0.0,0.0,0.0,0.0,0.0,0.0,0.0,0.0,0.0,0.0,0.0,0.0,0.0,0.0,0.0,-3.168,-3.1487,-3.1546,0.0,0.0,0.0,0.0,0.0,0.0,0.0,0.0,0.0,0.0,-2.9868,-2.9905,-3.026,0.0,0.0,-3.0757,-3.106,-3.1048,-3.1126,-3.1257,-3.1329,-3.1377,0.0,0.0,0.0,0.0,0.0,0.0,0.0,0.0,0.0,0.0,0.0,0.0,0.0,0.0,0.0,0.0,0.0,0.0,0.0,0.0,0.0,0.0,0.0,0.0,0.0,0.0,0.0,0.0,0.0,0.0,0.0,0.0,0.0,0.0,0.0,0.0,0.0,0.0,0.0,0.0,0.0,0.0,0.0,0.0,0.0,0.0,0.0,0.0,0.0,0.0,0.0,0.0,-2.3503,-2.3406,-2.3222,-2.3232,-2.3493,-2.3754,-2.4358,-2.52,-2.5935,-2.6682,0.0,0.0,0.0,0.0,0.0,0.0,0.0,0.0,0.0,0.0,0.0,0.0,0.0,0.0,0.0,0.0,0.0,0.0,0.0,0.0,0.0,0.0,0.0,0.0,0.0,0.0,0.0,0.0,-3.2222,-3.1823,-3.1629,0.0,0.0,0.0,0.0,0.0,0.0,0.0,0.0,0.0,0.0,-3.0307,-3.0384,-3.0893,-3.1161,-3.0997,-3.142,-3.1673,-3.1572,-3.1697,-3.1798,-3.1798,0.0,0.0,0.0,0.0,0.0,0.0,0.0,0.0,0.0,0.0,0.0,0.0,0.0,0.0,0.0,0.0,0.0,0.0,0.0,0.0,0.0,0.0,0.0,0.0,0.0,0.0,0.0,-2.6935,0.0,0.0,-2.7681,0.0,0.0,0.0,0.0,0.0,0.0,0.0,0.0,0.0,0.0,0.0,0.0,0.0,0.0,0.0,0.0,0.0,0.0,0.0,0.0,0.0,0.0,-2.3416,-2.3144,-2.3135,-2.3232,-2.3503,-2.3947,-2.454,-2.5211,-2.603,-2.6917,-2.781,0.0,0.0,0.0,0.0,0.0,0.0,0.0,0.0,0.0,0.0,0.0,0.0,0.0,0.0,0.0,0.0,0.0,0.0,0.0,0.0,0.0,0.0,0.0,0.0,0.0,0.0,-3.3422,-3.2704,-3.1982,0.0,0.0,0.0,0.0,0.0,0.0,0.0,0.0,0.0,-3.052,-3.0448,-3.058,-3.1355,-3.1357,-3.1307,-3.1288,-3.156,-3.1572,-3.1395,-3.1913,-3.2388,0.0,0.0,0.0,0.0,0.0,0.0,0.0,0.0,0.0,0.0,0.0,0.0,0.0,0.0,0.0,0.0,0.0,0.0,0.0,0.0,0.0,0.0,0.0,0.0,0.0,0.0,0.0,-2.7668,-2.7981,0.0,0.0,0.0,0.0,0.0,0.0,0.0,0.0,0.0,0.0,0.0,-2.6715,-2.6644,0.0,0.0,0.0,0.0,0.0,0.0,0.0,0.0,0.0,0.0,0.0,0.0,-2.3503,-2.357,-2.3406,-2.359,-2.3937,-2.4282,-2.4796,-2.5644,-2.6385,-2.736,-2.8633,0.0,0.0,0.0,0.0,0.0,0.0,0.0,0.0,0.0,0.0,0.0,0.0,0.0,0.0,0.0,0.0,0.0,0.0,0.0,0.0,0.0,0.0,0.0,0.0,0.0,-3.324,0.0,0.0,0.0,0.0,0.0,0.0,0.0,0.0,0.0,0.0,-3.0118,-3.0407,-3.0595,-3.1142,-3.1635,-3.1757,-3.2031,-3.2154,0.0,0.0,0.0,0.0,0.0,0.0,0.0,0.0,0.0,0.0,0.0,0.0,0.0,0.0,-3.1675,-3.0946,-3.042,-2.9889,-2.9274,0.0,0.0,0.0,0.0,0.0,0.0,0.0,0.0,0.0,0.0,0.0,0.0,0.0,0.0,-2.8122,-2.851,-2.851,0.0,0.0,0.0,0.0,0.0,0.0,0.0,0.0,-2.7962,-2.7545,-2.6798,-2.6633,-2.6229,0.0,-2.538,-2.52,0.0,0.0,0.0,0.0,0.0,0.0,0.0,0.0,-2.3677,-2.3754,-2.3764,-2.3947,-2.4282,-2.47,-2.5295,-2.6052,-2.7044,-2.8087,-2.9197,-2.9431,-2.9831,0.0,0.0,0.0,0.0,0.0,0.0,0.0,0.0,0.0,0.0,0.0,0.0,0.0,0.0,0.0,0.0,0.0,0.0,0.0,0.0,0.0,0.0,0.0,-3.3452,0.0,0.0,0.0,0.0,0.0,0.0,0.0,0.0,0.0,-3.008,-3.0394,-3.0758,-3.1122,-3.1775,-3.2193,-3.2152,0.0,0.0,0.0,0.0,0.0,0.0,0.0,-3.2711,-3.2711,-3.2896,-3.3081,-3.3081,-3.3081,-3.2995,-3.2562,0.0,0.0,-3.1318,-3.0859,-3.0397,-2.9669,-2.9301,-2.9035,-2.885,-2.885,-2.8943,0.0,0.0,0.0,0.0,0.0,0.0,0.0,0.0,-2.7719,-2.8122,0.0,-2.851,0.0,0.0,0.0,0.0,-2.851,-2.851,0.0,0.0,-2.8042,-2.7708,-2.7185,-2.6798,-2.6385,-2.5895,-2.5717,-2.5464,-2.52,-2.4786,0.0,0.0,0.0,0.0,0.0,0.0,-2.3841,-2.3841,-2.411,-2.4368,-2.454,-2.52,-2.5863,-2.6528,-2.7983,-2.8937,-2.9419,-2.9689,-3.0011,-3.0355,-3.0748,0.0,0.0,0.0,0.0,0.0,0.0,0.0,0.0,0.0,0.0,0.0,0.0,0.0,0.0,0.0,0.0,0.0,0.0,0.0,0.0,-3.4088,0.0,0.0,0.0,0.0,0.0,0.0,0.0,0.0,0.0,-3.0645,-3.0683,-3.0696,-3.1047,-3.2064,0.0,0.0,0.0,0.0,-3.2636,-3.2475,-3.24,-3.2388,-3.24,-3.255,-3.2711,-3.2711,0.0,0.0,-3.3081,-3.3081,-3.2995,-3.2723,-3.2562,-3.2125,-3.1252,-3.0781,-3.0397,-2.9669,-2.9301,-2.9035,-2.885,-2.8991,-2.905,-2.2087,0.0,0.0,0.0,0.0,-2.5622,-2.6456,-2.7267,-2.7708,-2.8122,-2.851,-2.851,0.0,0.0,0.0,0.0,0.0,0.0,-2.8419,-2.8179,-2.8111,-2.7765,-2.7185,-2.7103,-2.6693,-2.6124,-2.6041,-2.5874,-2.5728,-2.5559,-2.5295,-2.4946,0.0,0.0,0.0,0.0,-2.469,-2.4775,-2.4861,-2.5031,-2.52,-2.5874,-2.6693,-2.7672,-2.8407,-2.8949,-2.9419,-2.9754,-3.0152,-3.0368,-3.0898,0.0,0.0,0.0,0.0,0.0,0.0,0.0,0.0,0.0,0.0,0.0,0.0,0.0,0.0,0.0,0.0,0.0,0.0,0.0,-3.4196,-3.402,-3.3675,0.0,0.0,0.0,0.0,0.0,0.0,0.0,0.0,0.0,-3.1712,-3.1763,-3.1863,0.0,0.0,-3.2893,-3.2957,-3.2995,-3.2982,-3.2909,-3.2909,0.0,-3.2909,-3.2982,-3.2982,-3.2995,-3.3068,-3.3081,-3.3081,-3.3081,-3.2995,-3.2698,-3.255,-3.2213,-3.1584,-3.1026,-3.0476,-3.0034,-2.9669,-2.9405,-2.9346,-2.9068,-2.8835,-2.2087,-2.2608,-2.3232,-2.3917,-2.4765,-2.5622,-2.6539,-2.7348,-2.7708,-2.8122,-2.851,-2.851,-2.851,-2.851,-2.851,0.0,0.0,0.0,-2.8431,-2.8339,-2.8259,-2.8007,-2.7592,-2.7348,-2.701,-2.6599,-2.6456,-2.6302,-2.6146,-2.6146,-2.6063,-2.5874,0.0,-2.5464,-2.5464,-2.538,-2.538,-2.5454,-2.5622,-2.5779,-2.5863,-2.6775,-2.7592,-2.8407,-2.8791,-2.9275,-2.9664,-2.9908,-3.0305,-3.0596,-3.1123,-3.1703,0.0,0.0,0.0,0.0,0.0,0.0,0.0,0.0,0.0,0.0,0.0,-3.4414,-3.4414,0.0,0.0,0.0,-3.4414,-3.4448,-3.4488,-3.4393,0.0,0.0,0.0,0.0,0.0,0.0,0.0,-3.2555,-3.2217,-3.2162,-3.2718,-3.2723,-3.2638,-3.2554,-3.2855,-3.3081,-3.3081,0.0,-3.3006,-3.278,-3.2729,-3.2654,-3.2453,-3.2403,-3.2403,-3.2416,-3.2416,-3.2403,-3.2416,-3.2416,-3.2403,-3.2234,-3.1992,-3.1749,-3.1393,-3.0862,-3.0308,-3.005,-2.9656,-2.9285,-2.9157,-2.8914,-2.8881,-2.2362,-2.2882,-2.3319,-2.409,-2.4946,-2.5852,-2.6682,-2.751,-2.78,-2.8122,-2.851,-2.851,-2.851,-2.851,-2.851,0.0,-2.851,-2.851,-2.851,-2.851,-2.8339,-2.8179,-2.8179,-2.7592,-2.7267,-2.7255,-2.688,-2.6727,-2.6715,-2.6727,-2.6809,-2.6985,-2.6396,-2.6063,-2.5979,-2.5979,-2.5979,-2.5979,-2.6373,-2.6599,-2.6693,-2.7672,-2.8407,-2.8791,-2.9184,-2.9677,-3.0075,-3.0152,-3.0457,-3.0986,-3.1421,-3.1923,-3.2417,0.0,0.0,0.0,0.0,0.0,0.0,0.0,0.0,0.0,0.0,0.0,0.0,0.0,0.0,-3.4486,-3.4545,0.0,-3.5163,-3.5024,0.0,0.0,0.0,-3.423,-3.3742,-3.3264,-3.2958,-3.3234,0.0,0.0,-3.3649,-3.353,-3.325,-3.3091,-3.3043,-3.3056,-3.3018,-3.2993,-3.2805,-3.2227,-3.2139,-3.1964,-3.1587,-3.1486,-3.1499,-3.1486,-3.1386,-3.1449,-3.1461,-3.1449,-3.1411,-3.1461,-3.1248,-3.1038,-3.0873,-3.0445,-2.9977,-2.9851,-2.9456,-2.8964,-2.8869,-2.8919,-2.897,-2.2618,-2.3057,-2.3734,-2.4423,-2.52,-2.5863,-2.6693,-2.751,-2.7788,-2.8122,-2.851,-2.851,-2.851,-2.851,-2.851,-2.851,-2.851,-2.851,-2.851,-2.851,-2.8431,-2.8339,-2.8179,-2.8018,-2.7857,-2.7708,-2.7638,-2.7557,-2.7557,-2.7557,-2.7626,-2.7638,-2.7476,-2.7208,-2.694,-2.6869,-2.6857,-2.6869,-2.7103,-2.7522,-2.8018,-2.8407,-2.8882,-2.9263,-2.9521,-2.9856,-3.0075,-3.0533,-3.0911,-3.1198,-3.173,-3.23,-3.2846,-3.3157,0.0,0.0,0.0,0.0,0.0,0.0,0.0,0.0,0.0,-3.4414,-3.4414,0.0,-3.514,0.0,-3.5575,-3.5909,-3.5998,-3.587,0.0,0.0,-3.5634,-3.5475,-3.4845,-3.462,-3.4468,-3.4175,-3.3772,-3.3572,-3.37,-3.3283,-3.304,-3.2969,-3.3073,-3.2918,-3.2503,-3.2428,-3.2215,-3.1712,-3.1574,-3.1549,-3.1386,-3.1386,-3.1361,-3.1386,-3.1373,-3.1386,-3.1373,-3.1386,-3.1386,-3.1386,-3.1248,-3.1083,-3.0976,-3.0433,-2.9931,-2.99,-2.9546,-2.932,-2.9393,-2.9183,-2.8999,-2.296,-2.3484,-2.4166,-2.4935,-2.5695,-2.6196,-2.688,-2.7696,-2.78,-2.8122,-2.851,-2.851,-2.851,-2.851,-2.851,-2.851,-2.851,-2.851,-2.851,-2.851,-2.851,-2.8431,-2.8339,-2.8259,-2.8099,-2.803,-2.7962,-2.7881,-2.7881,-2.7881,-2.7973,-2.803,-2.8042,-2.7938,-2.7765,-2.7603,-2.7534,-2.7522,-2.7765,-2.8167,-2.8736,-2.9064,-2.9365,-2.9599,-3.0011,-3.0318,-3.0457,-3.0973,-3.1421,-3.1716,-3.2228,-3.2731,-3.3143,-3.3437,-3.3785,0.0,0.0,0.0,0.0,0.0,0.0,0.0,0.0,0.0,0.0,0.0,-3.5793,-3.5778,-3.6112,-3.6431,-3.6722,-3.6592,-3.6474,-3.6539,-3.649,-3.6227,-3.5617,-3.5439,-3.5236,-3.4743,-3.4258,-3.3853,-3.3757,-3.3209,-3.2778,-3.271,-3.2638,-3.2465,-3.2174,-3.2111,-3.1896,-3.1364,-3.1263,-3.1175,-3.088,-3.0763,-3.0683,-3.0683,-3.067,-3.067,-3.0683,-3.067,-3.067,-3.0683,-3.0616,-3.0443,-3.0338,-3.0034,-2.9653,-2.9542,-2.9496,-2.94,-2.945,-2.9232,-2.9076,-2.3406,-2.3927,-2.4605,-2.5359,-2.6185,-2.6467,-2.7056,-2.7881,-2.7881,-2.8122,-2.851,-2.851,-2.851,-2.851,-2.851,-2.851,-2.851,-2.851,-2.851,-2.851,-2.851,-2.851,-2.851,-2.8339,-2.8259,-2.8259,-2.8042,-2.7962,-2.7973,-2.7973,-2.8042,-2.8259,-2.8259,-2.8339,-2.851,-2.8203,-2.8042,-2.803,-2.8351,-2.8736,-2.9209,-2.9624,-2.9869,-2.9946,-3.047,-3.0836,-3.1061,-3.1495,-3.1863,-3.2314,-3.2803,-3.3143,-3.3382,-3.3854,-3.4128,0.0,-3.4346,0.0,0.0,0.0,0.0,0.0,0.0,0.0,0.0,-3.6388,-3.646,-3.6548,-3.6548,-3.678,-3.736,-3.7271,-3.7264,-3.7539,-3.7303,-3.6822,-3.6204,-3.5816,-3.5521,-3.5142,-3.454,-3.402,-3.3847,-3.3106,-3.2581,-3.2423,-3.2186,-3.1976,-3.1909,-3.188,-3.166,-3.1176,-3.1099,-3.088,-3.0342,-3.0074,-2.9919,-2.9907,-3.0022,-2.9869,-2.9919,-2.9919,-2.9894,-2.9907,-3.0009,-2.9829,-2.9586,-2.9599,-2.9521,-2.939,-2.9506,-2.9489,-2.9309,-2.9327,-2.9291,-2.3754,-2.4368,-2.4786,-2.5359,-2.6196,-2.6456,-2.7138,-2.7881,-2.7881,-2.8122,-2.851,-2.851,-2.851,-2.851,-2.851,-2.851,-2.851,-2.851,-2.851,-2.851,-2.851,-2.851,-2.851,-2.8431,-2.8431,-2.8431,-2.8431,-2.8351,-2.8351,-2.8351,-2.8431,-2.8431,-2.8431,-2.8431,-2.851,0.0,0.0,0.0,-2.8882,-2.9221,-2.9624,-2.9934,-3.0164,-3.0546,-3.0773,0.0,-3.1482,-3.1877,-3.23,-3.286,-3.3072,0.0,0.0,0.0,0.0,0.0,0.0,0.0,0.0,0.0,0.0,0.0,-3.662,-3.6765,-3.6359,-3.6809,-3.7317,-3.7781,-3.7839,-3.7897,-3.8014,-3.8043,-3.7846,-3.7596,-3.7534,-3.724,-3.6615,-3.5935,-3.5305,-3.4911,-3.4176,-3.3657,-3.3395,-3.2826,-3.2442,-3.2339,-3.1982,-3.1717,-3.1655,-3.15,-3.115,-3.0637,-3.065,-3.0509,-3.0394,-3.0292,-3.0228,-3.0292,-3.0292,-3.0292,-3.0292,-3.0292,-3.0292,-3.0305,-3.0305,-3.0292,-3.0203,-3.0216,-3.0126,-3.0139,-3.0216,-3.0113,-2.9745,-2.9814,-2.9985,-2.4272,-2.47,-2.5211,-2.5801,0.0,-2.6633,-2.7231,-2.7881,-2.7881,-2.8122,-2.851,-2.851,-2.851,-2.851,-2.851,-2.851,-2.851,-2.851,-2.851,-2.851,-2.851,-2.851,-2.851,-2.851,-2.851,-2.851,-2.851,-2.851,-2.851,-2.8578,-2.8657,-2.8657,-2.8736,-2.8816,-2.8828,-2.8882,-2.904,-2.9106,-2.9287,-2.9624,-2.9934,-3.0305,-3.0609,-3.0836,-3.136,0.0,0.0,0.0,0.0,0.0,0.0,0.0,0.0,-3.4196,0.0,-3.4414,-3.4414,-3.4414,-3.4443,-3.5009,-3.5503,-3.5822,-3.6736,-3.7288,-3.723,-3.7549,-3.7868,-3.8173,-3.8202,-3.8202,-3.8202,-3.8202,-3.7922,-3.7361,-3.7243,-3.6826,-3.6045,-3.5433,-3.501,-3.4635,-3.4031,-3.3512,-3.3333,-3.2758,-3.2259,-3.2158,-3.187,-3.1609,-3.1548,-3.1373,-3.1109,-3.0711,-3.0633,-3.0545,-3.052,-3.0444,-3.0368,-3.0368,-3.0368,-3.0368,-3.0368,-3.0368,-3.0368,-3.0368,-3.0368,-3.0368,-3.0368,-3.0368,-3.0368,-3.0444,-3.0457,-3.0496,-3.0317,-3.0241,-3.0279,-2.47,-2.5031,-2.5633,-2.6146,-2.6644,-2.6891,-2.7383,-2.7962,-2.7962,0.0,0.0,-2.851,-2.851,-2.851,-2.851,-2.851,-2.851,-2.851,-2.851,-2.851,-2.851,-2.851,-2.851,-2.8498,-2.859,-2.859,-2.8602,-2.859,-2.8578,-2.8803,-2.8882,-2.887,-2.8954,-2.8934,-2.8938,-2.8913,-2.9068,-2.9299,-2.9601,-2.9946,-3.0228,-3.0761,-3.1136,-3.1211,-3.195,-3.2314,-3.2386,-3.303,-3.3396,-3.3452,-3.3854,-3.4128,-3.4196,-3.4346,-3.4481,-3.4467,-3.4467,-3.4467,-3.4481,-3.5146,-3.5554,-3.5656,-3.659,-3.7463,-3.7999,-3.813,-3.8202,-3.8202,-3.8115,-3.8043,-3.8043,-3.7926,-3.7606,-3.6864,-3.6673,-3.6237,-3.531,-3.4892,-3.4687,-3.4394,-3.385,-3.3404,-3.3216,-3.27,-3.2241,-3.2109,-3.1977,-3.1743,-3.1669,-3.1535,-3.1338,-3.1149,-3.1022,-3.0846,-3.0836,-3.0773,-3.0596,-3.0685,-3.0672,-3.0596,-3.0596,-3.052,-3.052,-3.052,-3.052,-3.052,-3.0596,-3.0583,-3.0596,-3.0596,-3.0761,-3.0862,-3.0838,-3.0633,-3.0504,-2.4786,-2.52,-2.5717,-2.6146,-2.6633,-2.7033,-2.7522,-2.8179,-2.8339,-2.8443,-2.851,-2.851,-2.851,-2.851,-2.851,-2.851,-2.851,-2.851,-2.851,-2.851,-2.851,-2.851,-2.851,-2.8657,-2.8803,-2.8803,-2.8895,-2.9052,-2.9052,-2.904,-2.9052,-2.8978,-2.8586,-2.836,-2.8225,-2.8335,-2.8616,-2.9006,-2.953,-3.0164,-3.0836,-3.1123,-3.1495,-3.2023,-3.2431,-3.2789,-3.31,-3.3396,-3.366,-3.4005,-3.4059,-3.4264,-3.4631,-3.4631,-3.4683,-3.4802,-3.4868,-3.4868,-3.4817,-3.5472,-3.6075,-3.652,-3.6755,-3.6994,-3.7375,-3.7912,-3.8202,-3.8188,-3.7709,-3.7433,-3.7404,-3.6939,-3.6534,-3.6173,-3.6158,-3.5883,-3.539,-3.4806,-3.4423,-3.4033,-3.3417,-3.307,-3.2869,-3.2701,-3.2561,-3.2574,-3.2503,-3.2431,-3.2096,-3.177,-3.1548,-3.1548,-3.1474,-3.1461,-3.1386,-3.1447,-3.1373,-3.1461,-3.1373,-3.1299,-3.1123,-3.1123,-3.1048,-3.0911,-3.0911,-3.0973,-3.1123,-3.1198,-3.1198,-3.1286,-3.136,-3.1347,-3.1334,-3.0937,-3.0785,-2.5126,-2.5633,-2.6052,-2.649,-2.6809,-2.7371,-2.7857,-2.8259,-2.8486,-2.8578,-2.851,-2.851,-2.851,-2.851,-2.8578,-2.8657,-2.8657,-2.8816,-2.8828,-2.8828,-2.8828,-2.8828,-2.8791,-2.859,-2.8533,-2.8521,-2.8304,-2.8258,-2.8258,-2.841,-2.8561,-2.8536,-2.8512,-2.8482,-2.8558,-2.8605,-2.8821,-2.9203,-2.9718,-3.028,-3.0811,-3.1483,-3.2009,-3.2444,-3.2803,-3.3157,-3.3466,-3.373,-3.3991,-3.4264,-3.4346,-3.4563,-3.4817,-3.4817,-3.4802,-3.4935,-3.4935,-3.4935,-3.4935,-3.52,-3.5495,-3.5722,-3.6143,-3.6384,-3.6497,-3.7097,-3.739,-3.7332,-3.7055,-3.6837,-3.6765,-3.6489,-3.6099,-3.5737,-3.5581,-3.5295,-3.4768,-3.4426,-3.4101,-3.3917,-3.3551,-3.3297,-3.3241,-3.3002,-3.2846,-3.2846,-3.2775,-3.2646,-3.2516,-3.2323,-3.2011,-3.1696,-3.1589,-3.1589,-3.1582,-3.1609,-3.1609,-3.1609,-3.1609,-3.1548,-3.1447,-3.1447,-3.1461,-3.1373,-3.1299,-3.1373,-3.1434,-3.1447,-3.1522,-3.1495,-3.1289,-3.1129,-3.1029,-3.0791,-3.0495,-2.5549,-2.5979,-2.6479,-2.6798,-2.7149,-2.7719,-2.8111,-2.8339,-2.8645,-2.8724,-2.8669,-2.8669,-2.8657,-2.8669,-2.8803,-2.8882,-2.887,-2.8929,-2.8946,-2.8934,-2.8823,-2.8774,-2.8737,-2.8332,-2.8223,-2.8249,-2.7866,-2.7742,-2.7804,-2.8097,-2.818,-2.8151,-2.84,-2.8634,-2.8659,-2.8716,-2.8926,-2.934,-2.9773,-3.0272,-3.0632,-3.1531,-3.2105,-3.2444,-3.2947,-3.3393,-3.3585,-3.3988,-3.4346,-3.4467,-3.4683,-3.4831,-3.4935,-3.5001,-3.5067,-3.5052,-3.5133,-3.5118,-3.5118,-3.5133,-3.5118,-3.5133,-3.5577,-3.5941,-3.5986,-3.6319,-3.6571,-3.6597,-3.6567,-3.638,-3.621,-3.5994,-3.5747,-3.5281,-3.5071,-3.4759,-3.416,-3.402,-3.3951,-3.3896,-3.3744,-3.3689,-3.3605,-3.3368,-3.3213,-3.3143,-3.3002,-3.2917,-3.2789,-3.2756,-3.2495,-3.2109,-3.1829,-3.1874,-3.185,-3.1877,-3.1877,-3.1817,-3.1844,-3.1917,-3.1817,-3.183,-3.1757,-3.1716,-3.1596,-3.1502,-3.1516,-3.1455,-3.1361,-3.1339,-3.1087,-3.0764,-3.0607,-3.0378,-3.0158,-2.5895,-2.5979,-2.6561,-2.7219,-2.78,-2.8018,-2.8419,-2.8724,-2.8791,-2.8895,-2.9028,-2.9052,-2.9028,-2.9052,-2.904,-2.9028,-2.8991,-2.8614,-2.8405,-2.8344,-2.7901,-2.7668,-2.7792,-2.778,-2.7903,-2.8111,-2.817,-2.8227,-2.8346,-2.8443,-2.8382,-2.8182,-2.8283,-2.8229,-2.7973,-2.8226,-2.8489,-2.8698,-2.9531,-3.0105,-3.0336,-3.0911,-3.133,-3.1545,-3.2644,-3.3264,-3.3396,-3.4243,-3.4683,-3.4868,-3.4854,-3.4935,-3.5148,-3.5344,-3.5474,-3.5623,-3.5767,-3.591,-3.591,-3.591,-3.5846,-3.591,-3.5921,-3.5967,-3.5967,-3.5868,-3.6081,-3.6478,-3.6306,-3.5942,-3.5884,-3.5321,-3.4976,-3.4902,-3.4627,-3.4322,-3.4225,-3.4059,-3.4005,-3.3896,-3.3896,-3.3882,-3.3813,-3.3813,-3.3744,-3.3521,-3.3452,-3.3368,-3.3072,-3.2988,-3.2931,-3.2632,-3.2605,-3.2533,-3.2561,-3.2547,-3.2489,-3.2489,-3.2544,-3.2444,-3.2245,-3.2164,-3.2205,-3.169,-3.1568,-3.1284,-3.1289,-3.1157,-3.0829,-3.0979,-3.0925,-3.0691,-3.0262,-3.0066,-3.0038,-2.6063,-2.6313,-2.6869,-2.7452,-2.803,-2.8271,-2.8578,-2.8779,-2.8684,-2.8793,-2.8909,-2.8787,-2.8847,-2.9106,-2.8876,-2.8793,-2.8744,-2.8475,-2.8387,-2.8362,-2.8185,-2.8157,-2.8119,-2.7889,-2.7822,-2.7842,-2.7729,-2.7703,-2.7816,-2.801,-2.8098,-2.8118,-2.8279,-2.8292,-2.8262,-2.8495,-2.8739,-2.9022,-2.9525,-2.9903,-3.0247,-3.0984,-3.1641,-3.2062,-3.2515,-3.289,-3.3191,-3.3891,-3.444,-3.4649,-3.499,-3.5409,-3.5653,-3.5733,-3.5797,-3.591,-3.5973,-3.5988,-3.5988,-3.5988,-3.5988,-3.5988,-3.5988,-3.5988,-3.5988,-3.5894,-3.6039,-3.622,-3.5814,-3.5466,-3.5318,-3.503,-3.4817,-3.4802,-3.4735,-3.4601,-3.4481,-3.4481,-3.4428,-3.4225,-3.4074,-3.4005,-3.402,-3.3951,-3.3896,-3.3827,-3.3758,-3.366,-3.3507,-3.3396,-3.334,-3.3241,-3.3157,-3.2945,-3.2775,-3.269,-3.269,-3.269,-3.2717,-3.2591,-3.2164,-3.2028,-3.1916,-3.1474,-3.124,-3.1076,-3.1144,-3.1007,-3.0827,-3.0798,-3.0613,-3.0387,-2.9939,-2.9891,-2.9891,-2.5913,-2.6402,-2.6864,-2.7343,-2.783,-2.8065,-2.83,-2.8549,-2.8473,-2.8612,-2.8798,-2.8578,-2.861,-2.8936,-2.87,-2.86,-2.8599,-2.8353,-2.8244,-2.8219,-2.8221,-2.8119,-2.8081,-2.7806,-2.767,-2.7662,-2.7352,-2.7294,-2.7536,-2.7776,-2.8052,-2.8197,-2.8365,-2.8546,-2.8766,-2.8931,-2.9198,-2.9484,-2.9775,-3.0036,-3.0395,-3.1157,-3.1709,-3.2004,-3.2227,-3.2503,-3.2877,-3.3484,-3.4029,-3.4328,-3.4973,-3.5461,-3.5763,-3.5993,-3.6178,-3.6226,-3.6304,-3.6289,-3.6304,-3.6304,-3.6304,-3.6289,-3.6304,-3.6304,-3.6226,-3.6163,-3.6163,-3.6146,-3.5733,-3.5359,-3.5264,-3.5133,-3.5067,-3.5082,-3.5001,-3.4868,-3.4765,-3.475,-3.4683,-3.4549,-3.4399,-3.4264,-3.4196,-3.4142,-3.402,-3.3951,-3.3951,-3.3965,-3.3896,-3.3787,-3.3662,-3.3689,-3.3521,-3.3297,-3.2931,-3.2931,-3.2832,-3.2652,-3.261,-3.2387,-3.1902,-3.1763,-3.1726,-3.152,-3.116,-3.0898,-3.0936,-3.0922,-3.0689,-3.0592,-3.0457,-3.0178,-2.9973,-2.9879,-2.9974,-2.5384,-2.5796,-2.6388,-2.6828,-2.7007,-2.7257,-2.7606,-2.8211,-2.816,-2.8268,-2.8618,-2.8541,-2.8592,-2.8643,-2.8579,-2.8618,-2.8541,-2.8042,-2.7857,-2.7806,-2.737,-2.7114,-2.7088,-2.7062,-2.7198,-2.7574,-2.7522,-2.7669,-2.8,-2.817,-2.8365,-2.8573,-2.8753,-2.8931,-2.9247,-2.9463,-2.9727,-3.0007,-3.0326,-3.0628,-3.0762,-3.1132,-3.122,-3.113,-3.1645,-3.2196,-3.2572,-3.3185,-3.3652,-3.391,-3.4638,-3.5094,-3.5324,-3.6014,-3.6616,-3.6877,-3.6938,-3.6938,-3.6938,-3.6877,-3.6877,-3.6938,-3.6862,-3.6938,-3.6877,-3.6616,-3.6492,-3.6492,-3.6178,-3.5973,-3.591,-3.5668,-3.5489,-3.5424,-3.5148,-3.5001,-3.4935,-3.4949,-3.4935,-3.4883,-3.475,-3.4549,-3.4414,-3.4414,-3.4278,-3.4142,-3.4059,-3.4074,-3.3951,-3.3922,-3.3854,-3.3854,-3.3825,-3.3728,-3.3353,-3.3087,-3.2877,-3.261,-3.2305,-3.218,-3.1857,-3.1625,-3.1575,-3.1504,-3.1091,-3.0828,-3.0856,-3.0657,-3.0387,-3.0211,-3.0253,-3.0093,-3.014,-3.014,-3.0172,-2.5615,-2.6153,-2.6621,-2.6923,-2.7136,-2.7582,-2.7877,-2.8059,-2.7995,-2.8055,-2.8202,-2.8032,-2.8001,-2.8056,-2.8206,-2.8209,-2.8036,-2.7743,-2.7634,-2.7608,-2.7708,-2.7683,-2.7683,-2.7683,-2.7749,-2.7881,-2.7881,-2.8066,-2.8406,-2.8716,-2.8894,-2.9058,-2.9212,-2.9449,-2.9623,-2.9884,-3.0129,-3.0447,-3.0732,-3.097,-3.1219,-3.1452,-3.1567,-3.1597,-3.1676,-3.1927,-3.2173,-3.291,-3.3361,-3.3594,-3.4312,-3.4999,-3.5641,-3.6367,-3.6877,-3.6999,-3.6999,-3.6999,-3.6999,-3.6999,-3.6999,-3.6999,-3.6999,-3.6999,-3.6999,-3.6862,-3.6816,-3.6816,-3.6754,-3.6631,-3.6554,-3.6178,-3.5797,-3.5797,-3.5668,-3.5459,-3.5344,-3.5294,-3.5228,-3.4935,-3.4868,-3.475,-3.4631,-3.4631,-3.4481,-3.4346,-3.4278,-3.4278,-3.421,-3.4113,-3.4002,-3.3905,-3.3579,-3.3239,-3.3118,-3.305,-3.288,-3.2387,-3.1984,-3.1744,-3.1425,-3.1223,-3.12,-3.0868,-3.0625,-3.0645,-3.0587,-3.0544,-3.0233,-3.028,-3.028,-3.0355,-3.0416,-3.043,-3.0462,-2.5512,-2.6024,-2.6332,-2.6688,-2.6967,-2.7413,-2.7641,-2.7817,-2.7716,-2.7825,-2.7952,-2.776,-2.7802,-2.7934,-2.8066,-2.8,-2.791,-2.776,-2.7669,-2.7736,-2.7947,-2.8079,-2.8079,-2.8079,-2.8131,-2.821,-2.8262,-2.8471,-2.878,-2.9099,-2.9289,-2.9387,-2.9665,-2.9837,-3.0068,-3.0312,-3.0568,-3.0851,-3.1087,-3.1321,-3.1667,-3.1838,-3.2007,-3.2135,-3.215,-3.2094,-3.215,-3.2675,-3.309,-3.3295,-3.4038,-3.482,-3.5723,-3.6503,-3.6971,-3.6971,-3.7175,-3.7285,-3.7301,-3.7301,-3.7301,-3.7285,-3.7301,-3.7301,-3.7241,-3.7181,-3.7105,-3.7044,-3.6999,-3.6999,-3.6938,-3.6631,-3.6304,-3.6178,-3.6037,-3.591,-3.5699,-3.5683,-3.5474,-3.5198,-3.5082,-3.4949,-3.4817,-3.4735,-3.4683,-3.4481,-3.4481,-3.4481,-3.4399,-3.4076,-3.3893,-3.3835,-3.3249,-3.2737,-3.2442,-3.2313,-3.2197,-3.1789,-3.1579,-3.1304,-3.1082,-3.0902,-3.0704,-3.0319,-3.0233,-3.0294,-3.0294,-3.0294,-3.0401,-3.0522,-3.0642,-3.0731,-3.0731,-3.0791,-3.0763,-2.5028,-2.5396,-2.5548,-2.5996,-2.6427,-2.6578,-2.6833,-2.7317,-2.7468,-2.7681,-2.7894,-2.8013,-2.8066,-2.8079,-2.8145,-2.8106,-2.8132,-2.8092,-2.8079,-2.8079,-2.8145,-2.8145,-2.8145,-2.8145,-2.8249,-2.8365,-2.8638,-2.8922,-2.9099,-2.9415,-2.9602,-2.9665,-2.9988,-3.028,-3.0582,-3.0628,-3.0911,-3.1321,-3.148,-3.1724,-3.2135,-3.2302,-3.2468,-3.2602,-3.2757,-3.2718,-3.2453,-3.2578,-3.2819,-3.3022,-3.3717,-3.4526,-3.5411,-3.6294,-3.6894,-3.6997,-3.7476,-3.7812,-3.7876,-3.7801,-3.7817,-3.7817,-3.7876,-3.7759,-3.7642,-3.7508,-3.7358,-3.7254,-3.7165,-3.706,-3.706,-3.6938,-3.6816,-3.6554,-3.6241,-3.6085,-3.6037,-3.5973,-3.5861,-3.5554,-3.5359,-3.5148,-3.5001,-3.4935,-3.4868,-3.4765,-3.461,-3.4485,-3.4263,-3.3804,-3.3499,-3.3354,-3.2854,-3.2254,-3.1869,-3.1478,-3.1305,-3.1131,-3.1084,-3.0935,-3.0702,-3.0517,-3.0592,-3.0326,-3.0462,-3.0522,-3.0657,-3.0657,-3.0776,-3.0895,-3.0969,-3.094,-3.094,-3.0896,-3.0852,-2.5182,-2.5382,-2.5931,-2.622,-2.6427,-2.685,-2.7188,-2.7456,-2.759,-2.7802,-2.8,-2.8183,-2.8249,-2.8235,-2.8392,-2.8457,-2.8587,-2.8587,-2.8457,-2.8327,-2.8392,-2.8457,-2.8522,-2.8587,-2.8638,-2.8894,-2.9099,-2.9289,-2.9491,-2.9651,-2.9884,-3.0266,-3.0401,-3.0582,-3.0955,-3.1161,-3.1364,-3.148,-3.1936,-3.2231,-3.2358,-3.2703,-3.292,-3.2973,-3.3187,-3.324,-3.3171,-3.3118,-3.3187,-3.3309,-3.3657,-3.4192,-3.493,-3.5703,-3.6366,-3.683,-3.7054,-3.7454,-3.787,-3.7934,-3.7934,-3.7934,-3.7934,-3.786,-3.7817,-3.7801,-3.7727,-3.7685,-3.7583,-3.748,-3.748,-3.7285,-3.7105,-3.6877,-3.6616,-3.6414,-3.6367,-3.6163,-3.5973,-3.5861,-3.5653,-3.5524,-3.5344,-3.5184,-3.4993,-3.4736,-3.4471,-3.4141,-3.3842,-3.3325,-3.2946,-3.2824,-3.2208,-3.1787,-3.1482,-3.1192,-3.1,-3.0906,-3.0821,-3.0797,-3.0557,-3.0372,-3.0433,-3.0553,-3.0628,-3.0747,-3.0955,-3.1014,-3.1073,-3.1029,-3.0984,-3.0984,-3.1043,-3.0894,-3.0641,-2.5453,-2.5721,-2.6208,-2.6564,-2.6769,-2.7201,-2.7469,-2.7656,-2.7842,-2.8039,-2.8183,-2.8314,-2.8444,-2.8509,-2.8651,-2.878,-2.8908,-2.8908,-2.8766,-2.8638,-2.8716,-2.8844,-2.8908,-2.8908,-2.9035,-2.9289,-2.9415,-2.9602,-2.9803,-3.0021,-3.0251,-3.0582,-3.0762,-3.0984,-3.1234,-3.1452,-3.1595,-3.1823,-3.2216,-3.2508,-3.2742,-3.3027,-3.3256,-3.3346,-3.3555,-3.3658,-3.3694,-3.3694,-3.3658,-3.3694,-3.3797,-3.4175,-3.4626,-3.534,-3.5953,-3.6373,-3.6922,-3.7406,-3.7826,-3.8084,-3.8262,-3.8262,-3.8164,-3.8164,-3.8107,-3.8049,-3.7992,-3.7876,-3.7817,-3.7743,-3.7759,-3.7626,-3.7389,-3.7301,-3.6984,-3.68,-3.6693,-3.6367,-3.6226,-3.6163,-3.5958,-3.5661,-3.5368,-3.51,-3.4837,-3.4421,-3.4002,-3.3672,-3.3333,-3.2796,-3.2484,-3.213,-3.1616,-3.1279,-3.1148,-3.0901,-3.064,-3.0655,-3.0652,-3.0664,-3.0551,-3.0507,-3.0568,-3.0687,-3.0821,-3.0999,-3.1132,-3.1117,-3.1176,-3.1087,-3.0863,-3.0683,-3.0476,-3.0223,-3.0012,-2.5804,-2.6346,-2.6414,-2.6769,-2.7268,-2.7469,-2.7656,-2.7842,-2.8105,-2.8287,-2.8365,-2.8522,-2.8716,-2.878,-2.8844,-2.8972,-2.9099,-2.9099,-2.9162,-2.9099,-2.9162,-2.9149,-2.9162,-2.9149,-2.9352,-2.9602,-2.9665,-2.9803,-3.0111,-3.0401,-3.0642,-3.0747,-3.1102,-3.1394,-3.1552,-3.1667,-3.2007,-3.2327,-3.2437,-3.2796,-3.324,-3.3346,-3.345,-3.371,-3.3848,-3.4,-3.4151,-3.425,-3.4184,-3.4,-3.4151,-3.4316,-3.4595,-3.5168,-3.5511,-3.5756,-3.6905,-3.7343,-3.7687,-3.8155,-3.8531,-3.8515,-3.8535,-3.856,-3.8448,-3.8335,-3.8221,-3.8049,-3.7992,-3.7934,-3.7934,-3.786,-3.7759,-3.7642,-3.7225,-3.6984,-3.6938,-3.6693,-3.6507,-3.6384,-3.6134,-3.5733,-3.5032,-3.4787,-3.433,-3.386,-3.3421,-3.3179,-3.2874,-3.2411,-3.1892,-3.1523,-3.1125,-3.0991,-3.0918,-3.0814,-3.0642,-3.0642,-3.0642,-3.0642,-3.0642,-3.0642,-3.0702,-3.0836,-3.0896,-3.1087,-3.1101,-3.1055,-3.0845,-3.0544,-3.0317,-3.0103,-2.9924,-2.9704,-2.948,-2.6107,-2.6427,-2.6714,-2.7066,-2.7469,-2.7643,-2.7908,-2.8157,-2.8222,-2.843,-2.8638,-2.8702,-2.8844,-2.8972,-2.9035,-2.9162,-2.9289,-2.9289,-2.9352,-2.9463,-2.9588,-2.9512,-2.954,-2.9588,-2.9713,-2.9927,-2.9988,-3.0158,-3.0462,-3.0568,-3.0866,-3.1263,-3.1379,-3.1652,-3.1951,-3.212,-3.2382,-3.2711,-3.2958,-3.3171,-3.345,-3.3745,-3.3899,-3.4,-3.4201,-3.4399,-3.4546,-3.4756,-3.4691,-3.4399,-3.4399,-3.4448,-3.4562,-3.4775,-3.5087,-3.5595,-3.5973,-3.6413,-3.6937,-3.7593,-3.7953,-3.8051,-3.8461,-3.875,-3.8711,-3.8639,-3.8544,-3.8448,-3.8335,-3.8205,-3.8107,-3.7927,-3.7828,-3.77,-3.7263,-3.7055,-3.6937,-3.6938,-3.6706,-3.6149,-3.5798,-3.5323,-3.4727,-3.4303,-3.4016,-3.3653,-3.3201,-3.2751,-3.2512,-3.2049,-3.1516,-3.1308,-3.0998,-3.0894,-3.0731,-3.0671,-3.0642,-3.0642,-3.0642,-3.0642,-3.0642,-3.0687,-3.0821,-3.0955,-3.094,-3.107,-3.0857,-3.066,-3.0313,-2.9939,-2.9774,-2.9609,-2.9475,-2.931,-2.8966,-2.6452,-2.6714,-2.7066,-2.7335,-2.7656,-2.7908,-2.8105,-2.8287,-2.843,-2.8638,-2.878,-2.8908,-2.9035,-2.924,-2.9226,-2.9338,-2.9588,-2.9588,-2.9665,-2.9803,-2.9913,-2.9837,-2.9851,-2.9913,-3.0036,-3.0158,-3.028,-3.0462,-3.0702,-3.0866,-3.1204,-3.1495,-3.1724,-3.1966,-3.2231,-3.2523,-3.2742,-3.2996,-3.333,-3.3555,-3.3745,-3.405,-3.425,-3.4349,-3.4546,-3.4756,-3.4947,-3.5105,-3.5041,-3.4851,-3.4804,-3.4851,-3.4851,-3.4835,-3.5066,-3.5497,-3.5761,-3.6158,-3.6521,-3.7166,-3.7562,-3.7711,-3.822,-3.8426,-3.8504,-3.8646,-3.875,-3.8655,-3.86,-3.8342,-3.7922,-3.7456,-3.7126,-3.6917,-3.6753,-3.6648,-3.6695,-3.6369,-3.6072,-3.5611,-3.5354,-3.496,-3.4222,-3.3867,-3.3523,-3.3163,-3.2682,-3.2372,-3.2165,-3.1689,-3.1336,-3.1234,-3.1073,-3.0955,-3.0836,-3.0762,-3.0642,-3.0628,-3.0642,-3.0642,-3.0702,-3.0807,-3.0911,-3.1043,-3.101,-3.0842,-3.0496,-3.0148,-2.9759,-2.946,-2.9295,-2.9079,-2.8854,-2.8877,-2.8546,-2.6645,-2.7092,-2.7323,-2.7656,-2.7842,-2.817,-2.8287,-2.8365,-2.8638,-2.878,-2.8908,-2.9035,-2.9226,-2.9415,-2.9415,-2.9588,-2.9808,-2.9822,-2.996,-3.0097,-3.0172,-3.0172,-3.0233,-3.0158,-3.028,-3.0447,-3.0582,-3.0762,-3.0925,-3.1321,-3.1495,-3.1724,-3.2023,-3.2302,-3.2523,-3.2757,-3.3043,-3.3346,-3.3591,-3.3864,-3.4101,-3.43,-3.4497,-3.4643,-3.493,-3.5088,-3.5291,-3.5383,-3.5337,-3.5182,-3.5274,-3.5245,-3.5245,-3.5291,-3.5278,-3.5379,-3.5783,-3.6117,-3.6365,-3.6868,-3.7351,-3.7419,-3.7751,-3.803,-3.8077,-3.8319,-3.8454,-3.8351,-3.8597,-3.8079,-3.7405,-3.6589,-3.6265,-3.6194,-3.5957,-3.5935,-3.5973,-3.5565,-3.5162,-3.5012,-3.4898,-3.4472,-3.3851,-3.3444,-3.3121,-3.2844,-3.244,-3.2311,-3.211,-3.1787,-3.1509,-3.1409,-3.1234,-3.1073,-3.0955,-3.0895,-3.0762,-3.0687,-3.0702,-3.0702,-3.0836,-3.0925,-3.1043,-3.1026,-3.083,-3.0496,-3.0043,-2.9639,-2.9205,-2.8869,-2.8584,-2.8342,-2.8092,-2.8243,-2.8107,-2.6863,-2.7281,-2.7469,-2.7736,-2.8,-2.8249,-2.8365,-2.8522,-2.8716,-2.8908,-2.9035,-2.9226,-2.9415,-2.954,-2.9651,-2.9747,-2.9822,-3.0021,-3.0219,-3.0462,-3.0522,-3.0657,-3.0776,-3.0642,-3.0642,-3.0836,-3.0955,-3.1117,-3.1321,-3.1495,-3.1724,-3.2007,-3.2231,-3.2539,-3.2788,-3.3043,-3.3398,-3.3729,-3.3933,-3.407,-3.4268,-3.4511,-3.4688,-3.4816,-3.5241,-3.5441,-3.5577,-3.5728,-3.5861,-3.5756,-3.5503,-3.5337,-3.5337,-3.5354,-3.5337,-3.5388,-3.5455,-3.5559,-3.5676,-3.6259,-3.6647,-3.6714,-3.7251,-3.7653,-3.7586,-3.7652,-3.7615,-3.743,-3.7327,-3.7219,-3.6731,-3.6442,-3.6108,-3.5803,-3.5476,-3.5145,-3.5122,-3.5276,-3.5055,-3.4613,-3.4345,-3.4015,-3.3333,-3.3193,-3.2889,-3.2539,-3.2413,-3.2247,-3.2079,-3.1868,-3.1754,-3.164,-3.1482,-3.1307,-3.1176,-3.1058,-3.0895,-3.0821,-3.0821,-3.0821,-3.0955,-3.0881,-3.0865,-3.0743,-3.0559,-3.0108,-2.9564,-2.9109,-2.8659,-2.8291,-2.8026,-2.8022,-2.7981,-2.797,-2.8005,-2.7066,-2.7403,-2.7656,-2.7934,-2.8183,-2.8365,-2.8509,-2.8716,-2.8844,-2.9035,-2.9289,-2.9463,-2.9651,-2.9713,-2.9837,-2.996,-3.0068,-3.0326,-3.0597,-3.0762,-3.0836,-3.0999,-3.1219,-3.1102,-3.1117,-3.1146,-3.1234,-3.1394,-3.1495,-3.1724,-3.2007,-3.2302,-3.2382,-3.2687,-3.3043,-3.3261,-3.3399,-3.3466,-3.3681,-3.3762,-3.3705,-3.3842,-3.4305,-3.4789,-3.5357,-3.58,-3.5783,-3.5888,-3.5993,-3.5932,-3.5756,-3.5639,-3.5622,-3.5639,-3.5622,-3.5639,-3.5639,-3.5639,-3.5774,-3.5932,-3.6202,-3.6127,-3.6771,-3.6961,-3.7164,-3.7218,-3.7353,-3.7236,-3.7136,-3.6851,-3.6184,-3.5538,-3.5386,-3.5185,-3.4875,-3.453,-3.4438,-3.45,-3.4504,-3.4016,-3.383,-3.3527,-3.3222,-3.3074,-3.2951,-3.2718,-3.2578,-3.2413,-3.2302,-3.2135,-3.1981,-3.1883,-3.1655,-3.1539,-3.1394,-3.1219,-3.1073,-3.1014,-3.0955,-3.1058,-3.1176,-3.088,-3.0611,-3.0428,-3.0212,-2.9585,-2.9071,-2.8599,-2.8246,-2.8041,-2.7946,-2.7985,-2.8054,-2.8103,-2.8186,-2.7268,-2.759,-2.7947,-2.8197,-2.83,-2.8509,-2.8665,-2.878,-2.9035,-2.9289,-2.9477,-2.9699,-2.9822,-2.9884,-3.0097,-3.0266,-3.0447,-3.0687,-3.094,-3.1117,-3.1117,-3.1336,-3.1495,-3.1552,-3.1467,-3.1322,-3.1467,-3.1625,-3.1781,-3.1992,-3.2302,-3.2437,-3.2462,-3.2654,-3.3035,-3.3153,-3.304,-3.2919,-3.3141,-3.3195,-3.2994,-3.309,-3.3621,-3.4303,-3.4976,-3.5395,-3.5472,-3.5668,-3.584,-3.5891,-3.5994,-3.6045,-3.6062,-3.6036,-3.6036,-3.5993,-3.5932,-3.5932,-3.5888,-3.5983,-3.5973,-3.5851,-3.6271,-3.6535,-3.6612,-3.6757,-3.6913,-3.6999,-3.6835,-3.6455,-3.5696,-3.5169,-3.4595,-3.4398,-3.4249,-3.4101,-3.3949,-3.371,-3.3702,-3.3582,-3.3572,-3.3419,-3.3319,-3.3165,-3.3058,-3.2935,-3.2757,-3.2578,-3.2468,-3.2302,-3.2206,-3.2053,-3.1883,-3.1727,-3.1582,-3.1246,-3.1116,-3.094,-3.0984,-3.0939,-3.0995,-3.0592,-3.019,-3.0138,-2.9804,-2.916,-2.8659,-2.8231,-2.7951,-2.7871,-2.794,-2.8103,-2.8201,-2.8235,-2.8381,-2.7469,-2.7789,-2.8,-2.8197,-2.8365,-2.8638,-2.878,-2.8844,-2.9162,-2.9415,-2.9602,-2.9761,-2.9898,-3.0097,-3.0401,-3.0702,-3.0881,-3.1058,-3.1161,-3.1394,-3.1452,-3.1625,-3.1811,-3.191,-3.1868,-3.1868,-3.1925,-3.2038,-3.2176,-3.2342,-3.24,-3.2602,-3.2379,-3.2321,-3.2352,-3.2302,-3.2401,-3.2378,-3.259,-3.2701,-3.274,-3.3033,-3.3339,-3.3826,-3.4298,-3.4466,-3.4535,-3.4995,-3.5346,-3.5415,-3.6032,-3.6316,-3.6249,-3.6079,-3.6011,-3.6062,-3.6019,-3.6062,-3.6062,-3.6019,-3.5975,-3.601,-3.6137,-3.6171,-3.6134,-3.6022,-3.619,-3.603,-3.5874,-3.5518,-3.5114,-3.4886,-3.4627,-3.4399,-3.425,-3.4184,-3.405,-3.3899,-3.3797,-3.3694,-3.3607,-3.345,-3.3361,-3.3309,-3.3203,-3.3096,-3.2973,-3.2812,-3.2648,-3.2468,-3.2302,-3.2206,-3.2038,-3.1883,-3.1784,-3.1405,-3.1084,-3.0832,-3.0671,-3.0404,-3.0339,-3.0033,-2.9774,-2.9663,-2.9304,-2.8719,-2.8261,-2.7941,-2.7951,-2.8005,-2.8152,-2.825,-2.833,-2.8442,-2.8541,-2.7536,-2.7921,-2.8079,-2.8262,-2.8444,-2.8716,-2.8844,-2.8972,-2.9289,-2.954,-2.9713,-2.9898,-3.0097,-3.0341,-3.0582,-3.0925,-3.1219,-3.1351,-3.1452,-3.1667,-3.1811,-3.1868,-3.2094,-3.215,-3.2247,-3.2318,-3.2388,-3.2413,-3.2407,-3.216,-3.2298,-3.2322,-3.1958,-3.1829,-3.2029,-3.2079,-3.1938,-3.1954,-3.2045,-3.2097,-3.2144,-3.2676,-3.314,-3.3328,-3.3739,-3.4081,-3.4224,-3.4471,-3.4787,-3.4857,-3.5174,-3.5595,-3.5815,-3.589,-3.5862,-3.6096,-3.6174,-3.6174,-3.6174,-3.6148,-3.6131,-3.6122,-3.6122,-3.6062,-3.5993,-3.5939,-3.5756,-3.5577,-3.552,-3.5291,-3.5074,-3.493,-3.4756,-3.4546,-3.4399,-3.43,-3.4201,-3.4084,-3.3984,-3.3899,-3.3713,-3.3559,-3.3487,-3.3398,-3.3361,-3.3256,-3.3134,-3.2926,-3.2803,-3.2501,-3.2175,-3.205,-3.1793,-3.1329,-3.1233,-3.0949,-3.078,-3.0559,-3.0306,-3.0037,-2.9739,-2.9445,-2.9259,-2.9147,-2.8748,-2.8439,-2.8137,-2.792,-2.8054,-2.8201,-2.8348,-2.8444,-2.8554,-2.8618,-2.8763,-2.7564,-2.8079,-2.8131,-2.8327,-2.8651,-2.878,-2.8972,-2.9162,-2.9415,-2.9651,-2.9884,-3.0083,-3.0341,-3.0642,-3.0881,-3.1176,-3.1552,-3.1567,-3.1796,-3.1981,-3.2038,-3.215,-3.2302,-3.2398,-3.2431,-3.2307,-3.2531,-3.2609,-3.2315,-3.208,-3.2029,-3.1887,-3.1399,-3.131,-3.1659,-3.157,-3.1532,-3.149,-3.149,-3.1407,-3.1574,-3.2102,-3.2638,-3.2734,-3.3381,-3.3755,-3.3723,-3.4019,-3.4123,-3.4192,-3.4422,-3.4718,-3.5192,-3.5314,-3.5571,-3.5989,-3.6236,-3.6367,-3.6402,-3.6402,-3.636,-3.6293,-3.6251,-3.6208,-3.6105,-3.6036,-3.5949,-3.5667,-3.5594,-3.5492,-3.5245,-3.5041,-3.4899,-3.4756,-3.4546,-3.4349,-3.43,-3.4201,-3.4151,-3.3968,-3.3751,-3.3617,-3.3499,-3.3503,-3.3398,-3.3171,-3.3051,-3.2694,-3.2473,-3.2117,-3.1849,-3.172,-3.1405,-3.0762,-3.0425,-3.0271,-3.0138,-3.0098,-2.9729,-2.9361,-2.9146,-2.8884,-2.8741,-2.865,-2.8631,-2.8349,-2.8126,-2.8024,-2.8186,-2.8332,-2.8477,-2.8604,-2.8698,-2.8826,-2.892,-2.7405,-2.8066,-2.8222,-2.8495,-2.8739,-2.8889,-2.9135,-2.9387,-2.9594,-2.9884,-3.0097,-3.0387,-3.0628,-3.0866,-3.1263,-3.1509,-3.1754,-3.1883,-3.1977,-3.2084,-3.218,-3.2259,-3.2501,-3.2788,-3.2298,-3.2076,-3.217,-3.2154,-3.1945,-3.1939,-3.1839,-3.1483,-3.1117,-3.1011,-3.1083,-3.0991,-3.0658,-3.0734,-3.1063,-3.137,-3.1572,-3.1863,-3.2027,-3.2154,-3.2331,-3.2596,-3.2753,-3.3173,-3.3397,-3.345,-3.41,-3.4449,-3.4644,-3.4606,-3.4606,-3.5074,-3.5802,-3.6643,-3.6557,-3.6568,-3.6561,-3.6461,-3.6461,-3.6419,-3.6276,-3.6165,-3.6036,-3.5834,-3.579,-3.5656,-3.5429,-3.5291,-3.5152,-3.4897,-3.464,-3.4399,-3.4252,-3.3681,-3.3681,-3.3616,-3.3257,-3.345,-3.3494,-3.3499,-3.3487,-3.3228,-3.2902,-3.2499,-3.2107,-3.1753,-3.1223,-3.1037,-3.0803,-3.021,-2.9687,-2.9485,-2.9426,-2.9493,-2.9147,-2.8779,-2.8651,-2.8463,-2.8212,-2.8147,-2.8217,-2.8396,-2.8262,-2.822,-2.8332,-2.8429,-2.8605,-2.87,-2.8841,-2.8936,-2.9075,-2.6472,-2.7067,-2.7243,-2.748,-2.7804,-2.8016,-2.8469,-2.8965,-2.9252,-2.9693,-3.0283,-3.0522,-3.0807,-3.116,-3.1567,-3.1811,-3.1981,-3.2089,-3.2057,-3.189,-3.1975,-3.1927,-3.1653,-3.1815,-3.1667,-3.1624,-3.1652,-3.1482,-3.1371,-3.1245,-3.115,-3.1068,-3.061,-3.0429,-3.0686,-3.0582,-3.07,-3.0912,-3.1252,-3.1538,-3.1671,-3.1802,-3.1912,-3.2055,-3.2179,-3.2267,-3.2424,-3.2599,-3.2879,-3.2915,-3.3301,-3.3653,-3.3952,-3.4128,-3.4216,-3.4798,-3.5271,-3.5735,-3.5993,-3.6388,-3.6545,-3.6568,-3.6509,-3.6444,-3.6318,-3.6182,-3.6114,-3.6053,-3.5861,-3.5694,-3.5526,-3.5475,-3.5291,-3.5005,-3.4435,-3.4067,-3.3728,-3.324,-3.2901,-3.2836,-3.2724,-3.2838,-3.2854,-3.261,-3.2508,-3.2406,-3.2133,-3.1795,-3.1533,-3.1369,-3.0744,-3.0123,-2.9929,-2.9658,-2.9123,-2.8743,-2.8657,-2.8682,-2.8646,-2.8339,-2.8278,-2.8102,-2.8,-2.8039,-2.8278,-2.836,-2.8381,-2.8429,-2.8493,-2.8573,-2.87,-2.8842,-2.8967,-2.9107,-2.9259,-2.5468,-2.5942,-2.6418,-2.6782,-2.7083,-2.7349,-2.7851,-2.8482,-2.872,-2.9331,-2.9972,-3.0221,-3.057,-3.1001,-3.1237,-3.1399,-3.1711,-3.1905,-3.1736,-3.157,-3.1472,-3.1373,-3.1271,-3.1218,-3.1241,-3.1036,-3.131,-3.1037,-3.0587,-3.0424,-3.0564,-3.0619,-3.0315,-3.0254,-3.0459,-3.0708,-3.0912,-3.1252,-3.1504,-3.1709,-3.1802,-3.1948,-3.2091,-3.2249,-3.2371,-3.2473,-3.2541,-3.2574,-3.2608,-3.2626,-3.2679,-3.3032,-3.3386,-3.3458,-3.3599,-3.4076,-3.4447,-3.4763,-3.5177,-3.557,-3.6125,-3.615,-3.607,-3.5706,-3.5676,-3.5725,-3.5641,-3.541,-3.5301,-3.5163,-3.5091,-3.4925,-3.4628,-3.4263,-3.3943,-3.3548,-3.3182,-3.2698,-3.2441,-3.2396,-3.2205,-3.1817,-3.1754,-3.1481,-3.1405,-3.1502,-3.1341,-3.1069,-3.0844,-3.0665,-3.0237,-2.9541,-2.9397,-2.9221,-2.8891,-2.8422,-2.8217,-2.8088,-2.8069,-2.8035,-2.8111,-2.816,-2.8118,-2.8201,-2.8348,-2.8493,-2.8589,-2.8636,-2.8684,-2.8748,-2.8842,-2.8983,-2.9138,-2.9275,-2.9441,-2.4744,-2.5051,-2.6367,-2.7028,-2.7221,-2.7558,-2.7792,-2.8066,-2.8426,-2.8697,-2.9055,-2.9359,-2.9879,-3.0051,-3.0411,-3.0593,-3.0575,-3.067,-3.084,-3.0963,-3.097,-3.1027,-3.0986,-3.099,-3.0991,-3.0686,-3.0808,-3.0542,-3.0101,-3.0261,-3.012,-2.9946,-3.0264,-3.0417,-3.0651,-3.0935,-3.1213,-3.1521,-3.1709,-3.1802,-3.1948,-3.2144,-3.2354,-3.2422,-3.2489,-3.2606,-3.2606,-3.2639,-3.2654,-3.2654,-3.2654,-3.2672,-3.2953,-3.2989,-3.3131,-3.3308,-3.3683,-3.3951,-3.4182,-3.4745,-3.4846,-3.4769,-3.4722,-3.4797,-3.473,-3.451,-3.4306,-3.4352,-3.4459,-3.4182,-3.3972,-3.3651,-3.3818,-3.3567,-3.3306,-3.294,-3.255,-3.2266,-3.1981,-3.1987,-3.1667,-3.1154,-3.0943,-3.0736,-3.0774,-3.0877,-3.0593,-3.0323,-2.9864,-2.9659,-2.9454,-2.9045,-2.8998,-2.8872,-2.8713,-2.8477,-2.8396,-2.8348,-2.8299,-2.8201,-2.8134,-2.8152,-2.8299,-2.8381,-2.8525,-2.8636,-2.8747,-2.8826,-2.8905,-2.892,-2.8982,-2.9153,-2.9337,-2.9515,-2.9649,-2.4677,-2.4889,-2.5764,-2.6128,-2.6242,-2.6498,-2.6933,-2.7541,-2.7891,-2.851,-2.9148,-2.9495,-2.9833,-3.0031,-3.0204,-3.0412,-3.0567,-3.0772,-3.0607,-3.049,-3.0527,-3.045,-3.0386,-3.0334,-3.0261,-3.0206,-3.0336,-3.0462,-3.0254,-3.03,-3.0384,-3.0426,-3.0526,-3.0692,-3.0935,-3.1235,-3.1504,-3.1671,-3.1802,-3.1948,-3.2196,-3.2301,-3.2457,-3.2523,-3.2722,-3.277,-3.282,-3.2866,-3.2898,-3.2898,-3.2898,-3.2898,-3.2898,-3.288,-3.288,-3.2866,-3.3244,-3.3301,-3.3501,-3.418,-3.4746,-3.4581,-3.4521,-3.4338,-3.4064,-3.4146,-3.412,-3.4054,-3.3854,-3.3596,-3.3646,-3.359,-3.3525,-3.31,-3.2694,-3.228,-3.194,-3.1616,-3.1352,-3.1202,-3.0835,-3.0356,-3.0198,-3.0085,-3.0206,-3.0309,-2.9936,-2.9593,-2.9294,-2.9075,-2.8967,-2.8967,-2.8905,-2.8811,-2.8716,-2.8684,-2.8589,-2.8541,-2.8493,-2.8396,-2.8363,-2.8508,-2.8652,-2.8684,-2.87,-2.8842,-2.8951,-2.9045,-2.9091,-2.9075,-2.9213,-2.9412,-2.9576,-2.9722,-2.987,-2.4721,-2.4948,-2.5313,-2.555,-2.5592,-2.5907,-2.6406,-2.7104,-2.7472,-2.8066,-2.9004,-2.9244,-2.9468,-2.9659,-2.9847,-2.9952,-3.0024,-3.0206,-3.0147,-3.0085,-3.0051,-2.995,-2.9797,-2.9802,-3.0032,-2.9957,-3.013,-3.0359,-3.0401,-3.0568,-3.0692,-3.0773,-3.0757,-3.0935,-3.1134,-3.1483,-3.1691,-3.1802,-3.2001,-3.2144,-3.2371,-3.2491,-3.2574,-3.2672,-3.2852,-3.2916,-3.2979,-3.3024,-3.3055,-3.3073,-3.3104,-3.3104,-3.3104,-3.3104,-3.3135,-3.3104,-3.3073,-3.3011,-3.3237,-3.3573,-3.4147,-3.3793,-3.381,-3.37,-3.3674,-3.3616,-3.3297,-3.3291,-3.3244,-3.3247,-3.3128,-3.2821,-3.2568,-3.2101,-3.1918,-3.1516,-3.1222,-3.0919,-3.0625,-3.0348,-3.0054,-2.9999,-2.9999,-2.9939,-2.9976,-3.0048,-2.9804,-2.9542,-2.9309,-2.9121,-2.9029,-2.9029,-2.8982,-2.8889,-2.8842,-2.8795,-2.8763,-2.87,-2.8652,-2.87,-2.87,-2.8842,-2.8889,-2.8858,-2.8936,-2.9013,-2.9167,-2.9321,-2.9275,-2.9259,-2.9412,-2.9592,-2.971,-2.987,-2.9957,-2.4848,-2.523,-2.5425,-2.5592,-2.5743,-2.6125,-2.6476,-2.6895,-2.7181,-2.7586,-2.8097,-2.8431,-2.8578,-2.8676,-2.9073,-2.9264,-2.936,-2.9375,-2.9419,-2.9681,-2.9833,-2.9774,-2.9858,-2.9957,-3.0103,-3.0231,-3.0401,-3.0526,-3.0568,-3.0773,-3.0992,-3.1112,-3.1151,-3.123,-3.1269,-3.1596,-3.1819,-3.1948,-3.2232,-3.2354,-3.2491,-3.2659,-3.2773,-3.2884,-3.2979,-3.3042,-3.3104,-3.3165,-3.3196,-3.3178,-3.3178,-3.3178,-3.3178,-3.3178,-3.3147,-3.3165,-3.3117,-3.3086,-3.3109,-3.2876,-3.2889,-3.2929,-3.3054,-3.2845,-3.2459,-3.2282,-3.2385,-3.2498,-3.2234,-3.1981,-3.1764,-3.1666,-3.1574,-3.1449,-3.1261,-3.1048,-3.0792,-3.0523,-3.0281,-3.0103,-2.9989,-2.9935,-2.9935,-2.9891,-2.983,-2.979,-2.9595,-2.9473,-2.9305,-2.9198,-2.9106,-2.9075,-2.9045,-2.8982,-2.8936,-2.892,-2.8889,-2.8826,-2.8842,-2.8889,-2.8936,-2.892,-2.8998,-2.9091,-2.9137,-2.9213,-2.9412,-2.9563,-2.9547,-2.9531,-2.9592,-2.9726,-2.9886,-3.0017,-3.0103,-2.4848,-2.523,-2.5522,-2.5743,-2.6002,-2.6218,-2.65,-2.6832,-2.7269,-2.774,-2.8152,-2.8363,-2.8508,-2.87,-2.8873,-2.9045,-2.9121,-2.9321,-2.9518,-2.9694,-2.9782,-2.993,-3.0044,-3.0231,-3.0359,-3.0443,-3.0651,-3.0871,-3.0975,-3.1072,-3.119,-3.1346,-3.15,-3.1596,-3.1634,-3.1802,-3.1948,-3.2196,-3.2354,-3.2491,-3.2707,-3.2838,-3.2916,-3.3042,-3.3152,-3.3201,-3.3262,-3.3304,-3.3345,-3.3345,-3.3357,-3.3386,-3.3386,-3.3357,-3.3345,-3.3345,-3.3286,-3.3183,-3.3104,-3.2965,-3.2787,-3.2657,-3.2523,-3.2422,-3.2214,-3.2144,-3.2037,-3.1912,-3.1856,-3.1726,-3.1648,-3.1589,-3.1465,-3.1269,-3.1099,-3.0922,-3.07,-3.0408,-3.0205,-3.0119,-3.0033,-2.9962,-2.9918,-2.9918,-2.9874,-2.983,-2.9697,-2.9518,-2.935,-2.9289,-2.9227,-2.9121,-2.9091,-2.9075,-2.9029,-2.9059,-2.9059,-2.9045,-2.906,-2.906,-2.9091,-2.9091,-2.9183,-2.9321,-2.9366,-2.9428,-2.9563,-2.9726,-2.9814,-2.9842,-2.9858,-2.9902,-2.9973,-3.0146,-3.0274,-2.4948,-2.5342,-2.5619,-2.5893,-2.6179,-2.6394,-2.6712,-2.7078,-2.7524,-2.7989,-2.8348,-2.8508,-2.8684,-2.892,-2.9091,-2.9305,-2.9335,-2.9531,-2.9726,-2.9897,-3.0027,-3.0156,-3.0342,-3.0526,-3.0667,-3.0733,-3.0855,-3.1072,-3.1196,-3.1269,-3.1423,-3.1614,-3.1837,-3.1929,-3.2001,-3.2108,-3.2179,-3.2388,-3.2525,-3.2707,-3.2852,-3.2948,-3.3042,-3.3152,-3.3262,-3.3352,-3.3411,-3.3452,-3.3502,-3.3512,-3.3522,-3.3569,-3.3541,-3.3549,-3.352,-3.3491,-3.3433,-3.3304,-3.3183,-3.3073,-3.2916,-3.2755,-3.2606,-3.2456,-3.2318,-3.2214,-3.2091,-3.1984,-3.1893,-3.1783,-3.1634,-3.1559,-3.1423,-3.123,-3.1032,-3.0855,-3.0733,-3.0443,-3.0205,-3.0162,-3.0033,-2.9962,-2.9918,-2.9918,-2.9874,-2.9874,-2.983,-2.9637,-2.9457,-2.9396,-2.9335,-2.9259,-2.9229,-2.9259,-2.9259,-2.9275,-2.9275,-2.9229,-2.9229,-2.9245,-2.9321,-2.9305,-2.9441,-2.9547,-2.9547,-2.9608,-2.9726,-2.9858,-2.9886,-3.0017,-3.006,-3.0103,-3.0103,-3.01,-3.0153,-2.5201,-2.555,-2.5798,-2.6056,-2.6326,-2.6712,-2.713,-2.7625,-2.789,-2.8152,-2.8444,-2.87,-2.8905,-2.9075,-2.9243,-2.947,-2.9722,-2.981,-3.0,-3.0189,-3.0342,-3.0468,-3.0593,-3.079,-3.0895,-3.1015,-3.1151,-3.1269,-3.1351,-3.1521,-3.1651,-3.1837,-3.2073,-3.2196,-3.2301,-3.2213,-3.2334,-3.2488,-3.2462,-3.262,-3.2693,-3.2732,-3.2697,-3.2769,-3.2875,-3.2962,-3.3019,-3.3093,-3.3222,-3.3277,-3.3359,-3.3423,-3.3496,-3.3569,-3.3569,-3.3577,-3.352,-3.3404,-3.3304,-3.3214,-3.3073,-3.2916,-3.2755,-3.2623,-3.2456,-3.2284,-3.2144,-3.2073,-3.1965,-3.1802,-3.1654,-3.1559,-3.1462,-3.1269,-3.1055,-3.0895,-3.0831,-3.0584,-3.029,-3.0162,-2.9989,-2.9918,-2.9918,-2.9918,-2.9918,-2.9874,-2.9874,-2.983,-2.9653,-2.955,-2.9489,-2.9457,-2.9412,-2.9457,-2.9457,-2.9412,-2.9428,-2.9382,-2.9398,-2.9444,-2.9473,-2.9531,-2.9621,-2.9665,-2.9681,-2.977,-2.9858,-2.9946,-3.0017,-3.0087,-3.0117,-2.9936,-2.9854,-2.9658,-2.956,-2.523,-2.5633,-2.5893,-2.6286,-2.6727,-2.7181,-2.7539,-2.779,-2.8103,-2.846,-2.8715,-2.892,-2.9075,-2.9259,-2.9544,-2.9677,-2.9897,-3.0087,-3.0274,-3.0443,-3.0609,-3.0733,-3.0855,-3.1032,-3.1117,-3.1235,-3.1368,-3.15,-3.1671,-3.1837,-3.2018,-3.2232,-3.2301,-3.2439,-3.2311,-3.2125,-3.2317,-3.2382,-3.221,-3.221,-3.2116,-3.2,-3.196,-3.1936,-3.201,-3.2074,-3.2101,-3.2119,-3.2153,-3.208,-3.2078,-3.2206,-3.2865,-3.2866,-3.2931,-3.355,-3.352,-3.3462,-3.3422,-3.3304,-3.3129,-3.2952,-3.2848,-3.2722,-3.2523,-3.2353,-3.2179,-3.2108,-3.2001,-3.1875,-3.1709,-3.1614,-3.15,-3.1346,-3.1134,-3.0912,-3.079,-3.0543,-3.029,-3.0119,-2.9989,-2.9918,-2.9918,-2.9918,-2.9918,-2.9918,-2.9826,-2.9745,-2.9766,-2.9589,-2.9656,-2.9608,-2.9576,-2.9605,-2.9547,-2.9473,-2.9473,-2.9473,-2.9534,-2.9579,-2.9608,-2.9665,-2.9738,-2.9782,-2.9798,-2.9902,-2.9946,-3.006,-3.013,-2.9985,-2.9938,-2.9766,-2.9535,-2.9197,-2.894,-2.5411,-2.5729,-2.6056,-2.65,-2.7026,-2.7488,-2.779,-2.8039,-2.8299,-2.8604,-2.892,-2.9045,-2.9259,-2.9515,-2.9722,-2.9897,-3.0113,-3.03,-3.0485,-3.0692,-3.0814,-3.0935,-3.1112,-3.1269,-3.1385,-3.1483,-3.1579,-3.1709,-3.1946,-3.2126,-3.2301,-3.2405,-3.2507,-3.2411,-3.2207,-3.1979,-3.1905,-3.1846,-3.1709,-3.157,-3.1397,-3.1229,-3.1166,-3.1065,-3.1125,-3.1151,-3.1177,-3.1228,-3.1297,-3.1334,-3.1403,-3.1586,-3.2118,-3.2104,-3.2107,-3.2565,-3.2502,-3.2429,-3.2409,-3.2694,-3.2685,-3.2727,-3.2764,-3.277,-3.2623,-3.2404,-3.2284,-3.2144,-3.202,-3.1912,-3.1783,-3.1651,-3.1576,-3.1462,-3.119,-3.0952,-3.0708,-3.0459,-3.0248,-3.0076,-2.9989,-2.9918,-2.9918,-2.9902,-2.9756,-2.9453,-2.9211,-2.9049,-2.9259,-2.9491,-2.9613,-2.9742,-2.9738,-2.9689,-2.9633,-2.956,-2.9653,-2.9697,-2.9697,-2.9742,-2.977,-2.9814,-2.9842,-2.9886,-2.993,-3.0017,-3.0076,-3.0172,-3.0208,-2.9996,-2.9576,-2.9164,-2.8751,-2.8295,-2.8103,-2.5592,-2.5784,-2.6233,-2.6817,-2.7401,-2.774,-2.8039,-2.8396,-2.8493,-2.8668,-2.9045,-2.9167,-2.9425,-2.9722,-2.9897,-3.013,-3.0384,-3.0568,-3.0733,-3.0935,-3.1112,-3.123,-3.1346,-3.144,-3.1614,-3.1763,-3.1856,-3.1965,-3.2144,-3.2318,-3.242,-3.247,-3.2577,-3.2317,-3.1701,-3.1482,-3.1276,-3.0926,-3.0784,-3.064,-3.0822,-3.0894,-3.0956,-3.0907,-3.0903,-3.0972,-3.1016,-3.1121,-3.1244,-3.1207,-3.117,-3.1097,-3.1256,-3.1494,-3.1481,-3.1485,-3.1634,-3.1573,-3.1638,-3.1854,-3.1939,-3.211,-3.2402,-3.2282,-3.2051,-3.2364,-3.2335,-3.2179,-3.2055,-3.1948,-3.1819,-3.1651,-3.15,-3.1385,-3.119,-3.0824,-3.0423,-2.9988,-2.9435,-2.9267,-2.9199,-2.9146,-2.9146,-2.9065,-2.8935,-2.8773,-2.8644,-2.8417,-2.8498,-2.8945,-2.9113,-2.9421,-2.9502,-2.9421,-2.9539,-2.9544,-2.9798,-2.9874,-2.9874,-2.9874,-2.983,-2.9858,-2.9946,-2.9973,-3.006,-3.0146,-3.0189,-3.0152,-2.9914,-2.9593,-2.9138,-2.8543,-2.807,-2.759,-2.733,-2.5702,-2.6056,-2.6803,-2.7335,-2.7625,-2.8039,-2.8381,-2.8668,-2.8858,-2.8982,-2.9167,-2.9454,-2.9661,-2.9837,-3.0156,-3.0384,-3.0551,-3.0814,-3.1032,-3.119,-3.1346,-3.15,-3.1614,-3.1688,-3.1873,-3.1965,-3.2108,-3.2197,-3.2264,-3.2433,-3.237,-3.1937,-3.2054,-3.1721,-3.1027,-3.0792,-3.0387,-3.0052,-2.9787,-2.9849,-3.0148,-2.9678,-2.9448,-2.9545,-2.9606,-2.9769,-2.9793,-2.9743,-2.9738,-2.9687,-2.966,-2.9926,-3.043,-3.1017,-3.1311,-3.1341,-3.1119,-3.0987,-3.1,-3.112,-3.1229,-3.1189,-3.129,-3.1154,-3.1342,-3.2057,-3.2334,-3.2162,-3.2004,-3.188,-3.1718,-3.1497,-3.1325,-3.1172,-3.0999,-3.0561,-3.0084,-2.9343,-2.86,-2.8444,-2.8362,-2.8336,-2.8369,-2.8288,-2.8126,-2.8045,-2.798,-2.785,-2.7762,-2.794,-2.7908,-2.8232,-2.8858,-2.8971,-2.914,-2.9432,-2.9594,-2.9805,-2.981,-2.9826,-2.9918,-2.9946,-2.9973,-3.006,-3.013,-3.0035,-2.9872,-2.9741,-2.9485,-2.9039,-2.8582,-2.7937,-2.747,-2.7007,-2.6713,-2.5798,-2.6233,-2.7026,-2.7539,-2.7825,-2.8235,-2.8589,-2.8889,-2.9152,-2.9335,-2.9425,-2.9677,-2.9897,-3.007,-3.0384,-3.0675,-3.0797,-3.1055,-3.1252,-3.1406,-3.1538,-3.1671,-3.1819,-3.1929,-3.209,-3.2232,-3.237,-3.2468,-3.2231,-3.2183,-3.1956,-3.1422,-3.1332,-3.1078,-3.0441,-2.9989,-2.9668,-2.9341,-2.901,-2.9186,-2.9564,-2.9179,-2.8975,-2.9017,-2.9044,-2.913,-2.913,-2.9152,-2.9175,-2.9197,-2.9267,-2.931,-2.9729,-3.0037,-3.0252,-3.0246,-3.0155,-3.0216,-3.0268,-3.0392,-3.0486,-3.0432,-3.0718,-3.0819,-3.0713,-3.1292,-3.1185,-3.1021,-3.087,-3.0716,-3.0595,-3.0382,-3.0274,-3.0128,-2.9867,-2.947,-2.9087,-2.8589,-2.8168,-2.8005,-2.7964,-2.798,-2.7996,-2.7996,-2.7769,-2.7316,-2.7267,-2.7008,-2.6967,-2.7032,-2.6951,-2.7081,-2.7753,-2.8224,-2.8378,-2.8757,-2.9253,-2.948,-2.9724,-2.9848,-2.9881,-2.9957,-3.0,-2.9819,-2.9641,-2.9568,-2.9419,-2.9194,-2.8738,-2.8224,-2.7777,-2.7313,-2.6858,-2.6541,-2.6396,-2.5948,-2.634,-2.713,-2.7675,-2.8057,-2.8332,-2.8716,-2.9121,-2.9441,-2.9694,-2.9853,-2.9897,-3.0172,-3.0384,-3.0593,-3.0895,-3.1134,-3.1291,-3.1483,-3.1596,-3.1783,-3.1929,-3.2037,-3.2144,-3.2179,-3.2244,-3.2373,-3.2022,-3.1599,-3.1631,-3.1433,-3.0844,-3.0613,-3.0459,-2.9969,-2.9701,-2.9527,-2.9168,-2.8947,-2.9017,-2.9076,-2.9017,-2.9062,-2.9112,-2.9156,-2.92,-2.9218,-2.9218,-2.9218,-2.924,-2.92,-2.923,-2.9222,-2.9402,-2.9301,-2.937,-2.9337,-2.9234,-2.9162,-2.9544,-2.9624,-2.9773,-3.0278,-3.0399,-3.0255,-3.0125,-2.9995,-2.9892,-2.975,-2.9829,-2.9678,-2.9541,-2.942,-2.9193,-2.8904,-2.854,-2.8191,-2.7804,-2.7597,-2.7437,-2.7397,-2.7397,-2.7413,-2.7446,-2.7203,-2.6749,-2.6442,-2.6118,-2.5956,-2.615,-2.6215,-2.6367,-2.674,-2.7145,-2.751,-2.8304,-2.8935,-2.9237,-2.948,-2.9686,-2.9837,-2.9701,-2.9508,-2.9206,-2.9041,-2.9006,-2.8748,-2.8472,-2.7942,-2.7533,-2.7114,-2.68,-2.6617,-2.6349,-2.6267,-2.6204,-2.7011,-2.7539,-2.794,-2.8348,-2.8653,-2.8967,-2.9289,-2.9617,-2.9941,-3.01,-3.0309,-3.0526,-3.0675,-3.0992,-3.119,-3.1312,-3.1521,-3.1634,-3.18,-3.2018,-3.2144,-3.2144,-3.2017,-3.208,-3.2012,-3.1867,-3.1548,-3.1092,-3.1052,-3.0776,-3.0044,-3.0129,-2.9817,-2.9204,-2.9119,-2.9208,-2.8998,-2.9048,-2.9156,-2.9156,-2.9156,-2.9156,-2.9178,-2.9197,-2.924,-2.9262,-2.928,-2.9323,-2.9344,-2.9304,-2.924,-2.9178,-2.9134,-2.9089,-2.9044,-2.8998,-2.8929,-2.9022,-2.9083,-2.9166,-2.908,-2.9393,-2.9206,-2.9052,-2.8941,-2.8887,-2.8882,-2.893,-2.9475,-2.9483,-2.9332,-2.9179,-2.8766,-2.8414,-2.7925,-2.7462,-2.6911,-2.6444,-2.6346,-2.627,-2.6247,-2.6264,-2.628,-2.628,-2.5988,-2.5988,-2.5729,-2.5729,-2.5664,-2.5616,-2.5891,-2.6156,-2.6335,-2.6798,-2.8029,-2.8725,-2.8984,-2.9253,-2.9534,-2.9571,-2.9263,-2.9001,-2.8613,-2.8494,-2.8489,-2.8141,-2.7677,-2.7512,-2.7098,-2.6651,-2.6336,-2.622,-2.6187,-2.6187]}]]